<?xml version="1.0" encoding="UTF-8" standalone="no" ?>
<gpx xmlns="http://www.topografix.com/GPX/1/1" creator="http://nakarte.me" xmlns:xsi="http://www.w3.org/2001/XMLSchema-instance" xsi:schemaLocation="http://www.topografix.com/GPX/1/1 http://www.topografix.com/GPX/1/1/gpx.xsd" version="1.1">
	<metadata>
		<time>2022-05-22T22:40:55.584Z</time>
	</metadata>
	<trk>
		<name>Ruler</name>
		<trkseg>
			<trkpt lat="51.707430" lon="39.074303"><time>1970-01-01T00:00:01.000Z</time></trkpt>
			<trkpt lat="51.708181" lon="39.073917"><time>1970-01-01T00:00:01.000Z</time></trkpt>
			<trkpt lat="51.708982" lon="39.073675"><time>1970-01-01T00:00:01.000Z</time></trkpt>
			<trkpt lat="51.709783" lon="39.073788"><time>1970-01-01T00:00:01.000Z</time></trkpt>
			<trkpt lat="51.713094" lon="39.074700"><time>1970-01-01T00:00:01.000Z</time></trkpt>
			<trkpt lat="51.713945" lon="39.074834"><time>1970-01-01T00:00:01.000Z</time></trkpt>
			<trkpt lat="51.714473" lon="39.074829"><time>1970-01-01T00:00:01.000Z</time></trkpt>
			<trkpt lat="51.715606" lon="39.074668"><time>1970-01-01T00:00:01.000Z</time></trkpt>
			<trkpt lat="51.716404" lon="39.074442"><time>1970-01-01T00:00:01.000Z</time></trkpt>
			<trkpt lat="51.717102" lon="39.074153"><time>1970-01-01T00:00:01.000Z</time></trkpt>
			<trkpt lat="51.717913" lon="39.073616"><time>1970-01-01T00:00:01.000Z</time></trkpt>
			<trkpt lat="51.719043" lon="39.072527"><time>1970-01-01T00:00:01.000Z</time></trkpt>
			<trkpt lat="51.720050" lon="39.071390"><time>1970-01-01T00:00:01.000Z</time></trkpt>
			<trkpt lat="51.720645" lon="39.070478"><time>1970-01-01T00:00:01.000Z</time></trkpt>
			<trkpt lat="51.721333" lon="39.069255"><time>1970-01-01T00:00:01.000Z</time></trkpt>
			<trkpt lat="51.721878" lon="39.067909"><time>1970-01-01T00:00:01.000Z</time></trkpt>
			<trkpt lat="51.722492" lon="39.066010"><time>1970-01-01T00:00:01.000Z</time></trkpt>
			<trkpt lat="51.723499" lon="39.062576"><time>1970-01-01T00:00:01.000Z</time></trkpt>
			<trkpt lat="51.725669" lon="39.055313"><time>1970-01-01T00:00:01.000Z</time></trkpt>
			<trkpt lat="51.726503" lon="39.056219"><time>1970-01-01T00:00:01.000Z</time></trkpt>
			<trkpt lat="51.728198" lon="39.058295"><time>1970-01-01T00:00:01.000Z</time></trkpt>
			<trkpt lat="51.728606" lon="39.058440"><time>1970-01-01T00:00:01.000Z</time></trkpt>
			<trkpt lat="51.728952" lon="39.057952"><time>1970-01-01T00:00:01.000Z</time></trkpt>
			<trkpt lat="51.729507" lon="39.057636"><time>1970-01-01T00:00:01.000Z</time></trkpt>
			<trkpt lat="51.730809" lon="39.057249"><time>1970-01-01T00:00:01.000Z</time></trkpt>
			<trkpt lat="51.732005" lon="39.057351"><time>1970-01-01T00:00:01.000Z</time></trkpt>
			<trkpt lat="51.732889" lon="39.059014"><time>1970-01-01T00:00:01.000Z</time></trkpt>
			<trkpt lat="51.733182" lon="39.059840"><time>1970-01-01T00:00:01.000Z</time></trkpt>
			<trkpt lat="51.734590" lon="39.061654"><time>1970-01-01T00:00:01.000Z</time></trkpt>
			<trkpt lat="51.735251" lon="39.062367"><time>1970-01-01T00:00:01.000Z</time></trkpt>
			<trkpt lat="51.735992" lon="39.063451"><time>1970-01-01T00:00:01.000Z</time></trkpt>
			<trkpt lat="51.736351" lon="39.063338"><time>1970-01-01T00:00:01.000Z</time></trkpt>
			<trkpt lat="51.736922" lon="39.063649"><time>1970-01-01T00:00:01.000Z</time></trkpt>
			<trkpt lat="51.737098" lon="39.063638"><time>1970-01-01T00:00:01.000Z</time></trkpt>
			<trkpt lat="51.737284" lon="39.063751"><time>1970-01-01T00:00:01.000Z</time></trkpt>
			<trkpt lat="51.737935" lon="39.063880"><time>1970-01-01T00:00:01.000Z</time></trkpt>
			<trkpt lat="51.738414" lon="39.064148"><time>1970-01-01T00:00:01.000Z</time></trkpt>
			<trkpt lat="51.739586" lon="39.064368"><time>1970-01-01T00:00:01.000Z</time></trkpt>
			<trkpt lat="51.740487" lon="39.064422"><time>1970-01-01T00:00:01.000Z</time></trkpt>
			<trkpt lat="51.742460" lon="39.064744"><time>1970-01-01T00:00:01.000Z</time></trkpt>
			<trkpt lat="51.745801" lon="39.065259"><time>1970-01-01T00:00:01.000Z</time></trkpt>
			<trkpt lat="51.748236" lon="39.065634"><time>1970-01-01T00:00:01.000Z</time></trkpt>
			<trkpt lat="51.759819" lon="39.067211"><time>1970-01-01T00:00:01.000Z</time></trkpt>
			<trkpt lat="51.760483" lon="39.058027"><time>1970-01-01T00:00:01.000Z</time></trkpt>
			<trkpt lat="51.761110" lon="39.057947"><time>1970-01-01T00:00:01.000Z</time></trkpt>
			<trkpt lat="51.761399" lon="39.057620"><time>1970-01-01T00:00:01.000Z</time></trkpt>
			<trkpt lat="51.761459" lon="39.056718"><time>1970-01-01T00:00:01.000Z</time></trkpt>
			<trkpt lat="51.761509" lon="39.056391"><time>1970-01-01T00:00:01.000Z</time></trkpt>
			<trkpt lat="51.761638" lon="39.056284"><time>1970-01-01T00:00:01.000Z</time></trkpt>
			<trkpt lat="51.761987" lon="39.056520"><time>1970-01-01T00:00:01.000Z</time></trkpt>
			<trkpt lat="51.762697" lon="39.057099"><time>1970-01-01T00:00:01.000Z</time></trkpt>
			<trkpt lat="51.763487" lon="39.056461"><time>1970-01-01T00:00:01.000Z</time></trkpt>
			<trkpt lat="51.763869" lon="39.056370"><time>1970-01-01T00:00:01.000Z</time></trkpt>
			<trkpt lat="51.764417" lon="39.056396"><time>1970-01-01T00:00:01.000Z</time></trkpt>
			<trkpt lat="51.765224" lon="39.055699"><time>1970-01-01T00:00:01.000Z</time></trkpt>
			<trkpt lat="51.767890" lon="39.053784"><time>1970-01-01T00:00:01.000Z</time></trkpt>
			<trkpt lat="51.769045" lon="39.052985"><time>1970-01-01T00:00:01.000Z</time></trkpt>
			<trkpt lat="51.769656" lon="39.052598"><time>1970-01-01T00:00:01.000Z</time></trkpt>
			<trkpt lat="51.770542" lon="39.051450"><time>1970-01-01T00:00:01.000Z</time></trkpt>
			<trkpt lat="51.771040" lon="39.050705"><time>1970-01-01T00:00:01.000Z</time></trkpt>
			<trkpt lat="51.771392" lon="39.050345"><time>1970-01-01T00:00:01.000Z</time></trkpt>
			<trkpt lat="51.772182" lon="39.050426"><time>1970-01-01T00:00:01.000Z</time></trkpt>
			<trkpt lat="51.772328" lon="39.050367"><time>1970-01-01T00:00:01.000Z</time></trkpt>
			<trkpt lat="51.772521" lon="39.050104"><time>1970-01-01T00:00:01.000Z</time></trkpt>
			<trkpt lat="51.772670" lon="39.050388"><time>1970-01-01T00:00:01.000Z</time></trkpt>
			<trkpt lat="51.772962" lon="39.050646"><time>1970-01-01T00:00:01.000Z</time></trkpt>
			<trkpt lat="51.773307" lon="39.050812"><time>1970-01-01T00:00:01.000Z</time></trkpt>
			<trkpt lat="51.775627" lon="39.051397"><time>1970-01-01T00:00:01.000Z</time></trkpt>
			<trkpt lat="51.778186" lon="39.052083"><time>1970-01-01T00:00:01.000Z</time></trkpt>
			<trkpt lat="51.780682" lon="39.052706"><time>1970-01-01T00:00:01.000Z</time></trkpt>
			<trkpt lat="51.784409" lon="39.053736"><time>1970-01-01T00:00:01.000Z</time></trkpt>
			<trkpt lat="51.785551" lon="39.054465"><time>1970-01-01T00:00:01.000Z</time></trkpt>
			<trkpt lat="51.786480" lon="39.055452"><time>1970-01-01T00:00:01.000Z</time></trkpt>
			<trkpt lat="51.792745" lon="39.065495"><time>1970-01-01T00:00:01.000Z</time></trkpt>
			<trkpt lat="51.794443" lon="39.067597"><time>1970-01-01T00:00:01.000Z</time></trkpt>
			<trkpt lat="51.795558" lon="39.068670"><time>1970-01-01T00:00:01.000Z</time></trkpt>
			<trkpt lat="51.796407" lon="39.069099"><time>1970-01-01T00:00:01.000Z</time></trkpt>
			<trkpt lat="51.797708" lon="39.069314"><time>1970-01-01T00:00:01.000Z</time></trkpt>
			<trkpt lat="51.800070" lon="39.069529"><time>1970-01-01T00:00:01.000Z</time></trkpt>
			<trkpt lat="51.800707" lon="39.069872"><time>1970-01-01T00:00:01.000Z</time></trkpt>
			<trkpt lat="51.803440" lon="39.071803"><time>1970-01-01T00:00:01.000Z</time></trkpt>
			<trkpt lat="51.804183" lon="39.072061"><time>1970-01-01T00:00:01.000Z</time></trkpt>
			<trkpt lat="51.805324" lon="39.072232"><time>1970-01-01T00:00:01.000Z</time></trkpt>
			<trkpt lat="51.810313" lon="39.070559"><time>1970-01-01T00:00:01.000Z</time></trkpt>
			<trkpt lat="51.811135" lon="39.070687"><time>1970-01-01T00:00:01.000Z</time></trkpt>
			<trkpt lat="51.815115" lon="39.073520"><time>1970-01-01T00:00:01.000Z</time></trkpt>
			<trkpt lat="51.818896" lon="39.076180"><time>1970-01-01T00:00:01.000Z</time></trkpt>
			<trkpt lat="51.820076" lon="39.076824"><time>1970-01-01T00:00:01.000Z</time></trkpt>
			<trkpt lat="51.823140" lon="39.077275"><time>1970-01-01T00:00:01.000Z</time></trkpt>
			<trkpt lat="51.823697" lon="39.076953"><time>1970-01-01T00:00:01.000Z</time></trkpt>
			<trkpt lat="51.828392" lon="39.073133"><time>1970-01-01T00:00:01.000Z</time></trkpt>
			<trkpt lat="51.828975" lon="39.072318"><time>1970-01-01T00:00:01.000Z</time></trkpt>
			<trkpt lat="51.829081" lon="39.072039"><time>1970-01-01T00:00:01.000Z</time></trkpt>
			<trkpt lat="51.829108" lon="39.070644"><time>1970-01-01T00:00:01.000Z</time></trkpt>
			<trkpt lat="51.829399" lon="39.068692"><time>1970-01-01T00:00:01.000Z</time></trkpt>
			<trkpt lat="51.829479" lon="39.066138"><time>1970-01-01T00:00:01.000Z</time></trkpt>
			<trkpt lat="51.832184" lon="39.065988"><time>1970-01-01T00:00:01.000Z</time></trkpt>
			<trkpt lat="51.832821" lon="39.065688"><time>1970-01-01T00:00:01.000Z</time></trkpt>
			<trkpt lat="51.833351" lon="39.065709"><time>1970-01-01T00:00:01.000Z</time></trkpt>
			<trkpt lat="51.833736" lon="39.065430"><time>1970-01-01T00:00:01.000Z</time></trkpt>
			<trkpt lat="51.833842" lon="39.064808"><time>1970-01-01T00:00:01.000Z</time></trkpt>
			<trkpt lat="51.836029" lon="39.060817"><time>1970-01-01T00:00:01.000Z</time></trkpt>
			<trkpt lat="51.839039" lon="39.051719"><time>1970-01-01T00:00:01.000Z</time></trkpt>
			<trkpt lat="51.839808" lon="39.049401"><time>1970-01-01T00:00:01.000Z</time></trkpt>
			<trkpt lat="51.840763" lon="39.047642"><time>1970-01-01T00:00:01.000Z</time></trkpt>
			<trkpt lat="51.842314" lon="39.044509"><time>1970-01-01T00:00:01.000Z</time></trkpt>
			<trkpt lat="51.843600" lon="39.042170"><time>1970-01-01T00:00:01.000Z</time></trkpt>
			<trkpt lat="51.844528" lon="39.039810"><time>1970-01-01T00:00:01.000Z</time></trkpt>
			<trkpt lat="51.844766" lon="39.038866"><time>1970-01-01T00:00:01.000Z</time></trkpt>
			<trkpt lat="51.845190" lon="39.038265"><time>1970-01-01T00:00:01.000Z</time></trkpt>
			<trkpt lat="51.845986" lon="39.037449"><time>1970-01-01T00:00:01.000Z</time></trkpt>
			<trkpt lat="51.848332" lon="39.034123"><time>1970-01-01T00:00:01.000Z</time></trkpt>
			<trkpt lat="51.848531" lon="39.034188"><time>1970-01-01T00:00:01.000Z</time></trkpt>
			<trkpt lat="51.850029" lon="39.037900"><time>1970-01-01T00:00:01.000Z</time></trkpt>
			<trkpt lat="51.850453" lon="39.038351"><time>1970-01-01T00:00:01.000Z</time></trkpt>
			<trkpt lat="51.850970" lon="39.038436"><time>1970-01-01T00:00:01.000Z</time></trkpt>
			<trkpt lat="51.856855" lon="39.032686"><time>1970-01-01T00:00:01.000Z</time></trkpt>
			<trkpt lat="51.859691" lon="39.031270"><time>1970-01-01T00:00:01.000Z</time></trkpt>
			<trkpt lat="51.861599" lon="39.030111"><time>1970-01-01T00:00:01.000Z</time></trkpt>
			<trkpt lat="51.867668" lon="39.025970"><time>1970-01-01T00:00:01.000Z</time></trkpt>
			<trkpt lat="51.869125" lon="39.024961"><time>1970-01-01T00:00:01.000Z</time></trkpt>
			<trkpt lat="51.870291" lon="39.023759"><time>1970-01-01T00:00:01.000Z</time></trkpt>
			<trkpt lat="51.872159" lon="39.022279"><time>1970-01-01T00:00:01.000Z</time></trkpt>
			<trkpt lat="51.872623" lon="39.021721"><time>1970-01-01T00:00:01.000Z</time></trkpt>
			<trkpt lat="51.872888" lon="39.020948"><time>1970-01-01T00:00:01.000Z</time></trkpt>
			<trkpt lat="51.875352" lon="39.015477"><time>1970-01-01T00:00:01.000Z</time></trkpt>
			<trkpt lat="51.876438" lon="39.012558"><time>1970-01-01T00:00:01.000Z</time></trkpt>
			<trkpt lat="51.877590" lon="39.009254"><time>1970-01-01T00:00:01.000Z</time></trkpt>
			<trkpt lat="51.878372" lon="39.007666"><time>1970-01-01T00:00:01.000Z</time></trkpt>
			<trkpt lat="51.880279" lon="39.003997"><time>1970-01-01T00:00:01.000Z</time></trkpt>
			<trkpt lat="51.882134" lon="39.000971"><time>1970-01-01T00:00:01.000Z</time></trkpt>
			<trkpt lat="51.892517" lon="39.009597"><time>1970-01-01T00:00:01.000Z</time></trkpt>
			<trkpt lat="51.893265" lon="39.008911"><time>1970-01-01T00:00:01.000Z</time></trkpt>
			<trkpt lat="51.893914" lon="39.007988"><time>1970-01-01T00:00:01.000Z</time></trkpt>
			<trkpt lat="51.895212" lon="39.006582"><time>1970-01-01T00:00:01.000Z</time></trkpt>
			<trkpt lat="51.895271" lon="39.005671"><time>1970-01-01T00:00:01.000Z</time></trkpt>
			<trkpt lat="51.895483" lon="39.005038"><time>1970-01-01T00:00:01.000Z</time></trkpt>
			<trkpt lat="51.895728" lon="39.004662"><time>1970-01-01T00:00:01.000Z</time></trkpt>
			<trkpt lat="51.895993" lon="39.004437"><time>1970-01-01T00:00:01.000Z</time></trkpt>
			<trkpt lat="51.896476" lon="39.004169"><time>1970-01-01T00:00:01.000Z</time></trkpt>
			<trkpt lat="51.896721" lon="39.003836"><time>1970-01-01T00:00:01.000Z</time></trkpt>
			<trkpt lat="51.896913" lon="39.003021"><time>1970-01-01T00:00:01.000Z</time></trkpt>
			<trkpt lat="51.897119" lon="39.002656"><time>1970-01-01T00:00:01.000Z</time></trkpt>
			<trkpt lat="51.897370" lon="39.002377"><time>1970-01-01T00:00:01.000Z</time></trkpt>
			<trkpt lat="51.897840" lon="39.002184"><time>1970-01-01T00:00:01.000Z</time></trkpt>
			<trkpt lat="51.898052" lon="39.002044"><time>1970-01-01T00:00:01.000Z</time></trkpt>
			<trkpt lat="51.898423" lon="39.001476"><time>1970-01-01T00:00:01.000Z</time></trkpt>
			<trkpt lat="51.898734" lon="39.001132"><time>1970-01-01T00:00:01.000Z</time></trkpt>
			<trkpt lat="51.899204" lon="39.001100"><time>1970-01-01T00:00:01.000Z</time></trkpt>
			<trkpt lat="51.899568" lon="39.001325"><time>1970-01-01T00:00:01.000Z</time></trkpt>
			<trkpt lat="51.900005" lon="39.001615"><time>1970-01-01T00:00:01.000Z</time></trkpt>
			<trkpt lat="51.900164" lon="39.001551"><time>1970-01-01T00:00:01.000Z</time></trkpt>
			<trkpt lat="51.900462" lon="39.001143"><time>1970-01-01T00:00:01.000Z</time></trkpt>
			<trkpt lat="51.900680" lon="39.000735"><time>1970-01-01T00:00:01.000Z</time></trkpt>
			<trkpt lat="51.901044" lon="39.000649"><time>1970-01-01T00:00:01.000Z</time></trkpt>
			<trkpt lat="51.901567" lon="39.000875"><time>1970-01-01T00:00:01.000Z</time></trkpt>
			<trkpt lat="51.902064" lon="39.001164"><time>1970-01-01T00:00:01.000Z</time></trkpt>
			<trkpt lat="51.902461" lon="39.001572"><time>1970-01-01T00:00:01.000Z</time></trkpt>
			<trkpt lat="51.902699" lon="39.001851"><time>1970-01-01T00:00:01.000Z</time></trkpt>
			<trkpt lat="51.903030" lon="39.002473"><time>1970-01-01T00:00:01.000Z</time></trkpt>
			<trkpt lat="51.903388" lon="39.002581"><time>1970-01-01T00:00:01.000Z</time></trkpt>
			<trkpt lat="51.904017" lon="39.003031"><time>1970-01-01T00:00:01.000Z</time></trkpt>
			<trkpt lat="51.904599" lon="39.003696"><time>1970-01-01T00:00:01.000Z</time></trkpt>
			<trkpt lat="51.905294" lon="39.004716"><time>1970-01-01T00:00:01.000Z</time></trkpt>
			<trkpt lat="51.905817" lon="39.006314"><time>1970-01-01T00:00:01.000Z</time></trkpt>
			<trkpt lat="51.906227" lon="39.007312"><time>1970-01-01T00:00:01.000Z</time></trkpt>
			<trkpt lat="51.906558" lon="39.008031"><time>1970-01-01T00:00:01.000Z</time></trkpt>
			<trkpt lat="51.906836" lon="39.009029"><time>1970-01-01T00:00:01.000Z</time></trkpt>
			<trkpt lat="51.906903" lon="39.009522"><time>1970-01-01T00:00:01.000Z</time></trkpt>
			<trkpt lat="51.906936" lon="39.009941"><time>1970-01-01T00:00:01.000Z</time></trkpt>
			<trkpt lat="51.907320" lon="39.009737"><time>1970-01-01T00:00:01.000Z</time></trkpt>
			<trkpt lat="51.907644" lon="39.009458"><time>1970-01-01T00:00:01.000Z</time></trkpt>
			<trkpt lat="51.907882" lon="39.009029"><time>1970-01-01T00:00:01.000Z</time></trkpt>
			<trkpt lat="51.908048" lon="39.008718"><time>1970-01-01T00:00:01.000Z</time></trkpt>
			<trkpt lat="51.908193" lon="39.008664"><time>1970-01-01T00:00:01.000Z</time></trkpt>
			<trkpt lat="51.908398" lon="39.008986"><time>1970-01-01T00:00:01.000Z</time></trkpt>
			<trkpt lat="51.908683" lon="39.009254"><time>1970-01-01T00:00:01.000Z</time></trkpt>
			<trkpt lat="51.909027" lon="39.009705"><time>1970-01-01T00:00:01.000Z</time></trkpt>
			<trkpt lat="51.909226" lon="39.010069"><time>1970-01-01T00:00:01.000Z</time></trkpt>
			<trkpt lat="51.909431" lon="39.010348"><time>1970-01-01T00:00:01.000Z</time></trkpt>
			<trkpt lat="51.909590" lon="39.010348"><time>1970-01-01T00:00:01.000Z</time></trkpt>
			<trkpt lat="51.909735" lon="39.010134"><time>1970-01-01T00:00:01.000Z</time></trkpt>
			<trkpt lat="51.910093" lon="39.008578"><time>1970-01-01T00:00:01.000Z</time></trkpt>
			<trkpt lat="51.910338" lon="39.007881"><time>1970-01-01T00:00:01.000Z</time></trkpt>
			<trkpt lat="51.911046" lon="39.006314"><time>1970-01-01T00:00:01.000Z</time></trkpt>
			<trkpt lat="51.911483" lon="39.005853"><time>1970-01-01T00:00:01.000Z</time></trkpt>
			<trkpt lat="51.916460" lon="39.002849"><time>1970-01-01T00:00:01.000Z</time></trkpt>
			<trkpt lat="51.916936" lon="39.002548"><time>1970-01-01T00:00:01.000Z</time></trkpt>
			<trkpt lat="51.917287" lon="39.002119"><time>1970-01-01T00:00:01.000Z</time></trkpt>
			<trkpt lat="51.922031" lon="39.000660"><time>1970-01-01T00:00:01.000Z</time></trkpt>
			<trkpt lat="51.922355" lon="39.000682"><time>1970-01-01T00:00:01.000Z</time></trkpt>
			<trkpt lat="51.923044" lon="39.000735"><time>1970-01-01T00:00:01.000Z</time></trkpt>
			<trkpt lat="51.923606" lon="39.000424"><time>1970-01-01T00:00:01.000Z</time></trkpt>
			<trkpt lat="51.924903" lon="39.000145"><time>1970-01-01T00:00:01.000Z</time></trkpt>
			<trkpt lat="51.925121" lon="39.000059"><time>1970-01-01T00:00:01.000Z</time></trkpt>
			<trkpt lat="51.926160" lon="39.000263"><time>1970-01-01T00:00:01.000Z</time></trkpt>
			<trkpt lat="51.926802" lon="39.000338"><time>1970-01-01T00:00:01.000Z</time></trkpt>
			<trkpt lat="51.927258" lon="39.000295"><time>1970-01-01T00:00:01.000Z</time></trkpt>
			<trkpt lat="51.927721" lon="39.000403"><time>1970-01-01T00:00:01.000Z</time></trkpt>
			<trkpt lat="51.928098" lon="39.000231"><time>1970-01-01T00:00:01.000Z</time></trkpt>
			<trkpt lat="51.928211" lon="38.999780"><time>1970-01-01T00:00:01.000Z</time></trkpt>
			<trkpt lat="51.928363" lon="38.998890"><time>1970-01-01T00:00:01.000Z</time></trkpt>
			<trkpt lat="51.928595" lon="38.998815"><time>1970-01-01T00:00:01.000Z</time></trkpt>
			<trkpt lat="51.928707" lon="38.999072"><time>1970-01-01T00:00:01.000Z</time></trkpt>
			<trkpt lat="51.929607" lon="38.999201"><time>1970-01-01T00:00:01.000Z</time></trkpt>
			<trkpt lat="51.929759" lon="38.998997"><time>1970-01-01T00:00:01.000Z</time></trkpt>
			<trkpt lat="51.930017" lon="38.998278"><time>1970-01-01T00:00:01.000Z</time></trkpt>
			<trkpt lat="51.930156" lon="38.998214"><time>1970-01-01T00:00:01.000Z</time></trkpt>
			<trkpt lat="51.930407" lon="38.998461"><time>1970-01-01T00:00:01.000Z</time></trkpt>
			<trkpt lat="51.931195" lon="38.999276"><time>1970-01-01T00:00:01.000Z</time></trkpt>
			<trkpt lat="51.931664" lon="38.999641"><time>1970-01-01T00:00:01.000Z</time></trkpt>
			<trkpt lat="51.932141" lon="38.999780"><time>1970-01-01T00:00:01.000Z</time></trkpt>
			<trkpt lat="51.933278" lon="38.999898"><time>1970-01-01T00:00:01.000Z</time></trkpt>
			<trkpt lat="51.933589" lon="39.000006"><time>1970-01-01T00:00:01.000Z</time></trkpt>
			<trkpt lat="51.933715" lon="39.000263"><time>1970-01-01T00:00:01.000Z</time></trkpt>
			<trkpt lat="51.933761" lon="39.000875"><time>1970-01-01T00:00:01.000Z</time></trkpt>
			<trkpt lat="51.933682" lon="39.001443"><time>1970-01-01T00:00:01.000Z</time></trkpt>
			<trkpt lat="51.933715" lon="39.002087"><time>1970-01-01T00:00:01.000Z</time></trkpt>
			<trkpt lat="51.933867" lon="39.002581"><time>1970-01-01T00:00:01.000Z</time></trkpt>
			<trkpt lat="51.934046" lon="39.003117"><time>1970-01-01T00:00:01.000Z</time></trkpt>
			<trkpt lat="51.934310" lon="39.003611"><time>1970-01-01T00:00:01.000Z</time></trkpt>
			<trkpt lat="51.938160" lon="39.007645"><time>1970-01-01T00:00:01.000Z</time></trkpt>
			<trkpt lat="51.939185" lon="39.008750"><time>1970-01-01T00:00:01.000Z</time></trkpt>
			<trkpt lat="51.940369" lon="39.009812"><time>1970-01-01T00:00:01.000Z</time></trkpt>
			<trkpt lat="51.941163" lon="39.010520"><time>1970-01-01T00:00:01.000Z</time></trkpt>
			<trkpt lat="51.943207" lon="39.012698"><time>1970-01-01T00:00:01.000Z</time></trkpt>
			<trkpt lat="51.943584" lon="39.013138"><time>1970-01-01T00:00:01.000Z</time></trkpt>
			<trkpt lat="51.946738" lon="39.016410"><time>1970-01-01T00:00:01.000Z</time></trkpt>
			<trkpt lat="51.951890" lon="39.021764"><time>1970-01-01T00:00:01.000Z</time></trkpt>
			<trkpt lat="51.954561" lon="39.024628"><time>1970-01-01T00:00:01.000Z</time></trkpt>
			<trkpt lat="51.955242" lon="39.025186"><time>1970-01-01T00:00:01.000Z</time></trkpt>
			<trkpt lat="51.958098" lon="39.026817"><time>1970-01-01T00:00:01.000Z</time></trkpt>
			<trkpt lat="51.958363" lon="39.027085"><time>1970-01-01T00:00:01.000Z</time></trkpt>
			<trkpt lat="51.958548" lon="39.027472"><time>1970-01-01T00:00:01.000Z</time></trkpt>
			<trkpt lat="51.962204" lon="39.042449"><time>1970-01-01T00:00:01.000Z</time></trkpt>
			<trkpt lat="51.962640" lon="39.044144"><time>1970-01-01T00:00:01.000Z</time></trkpt>
			<trkpt lat="51.962805" lon="39.045013"><time>1970-01-01T00:00:01.000Z</time></trkpt>
			<trkpt lat="51.963202" lon="39.046022"><time>1970-01-01T00:00:01.000Z</time></trkpt>
			<trkpt lat="51.963559" lon="39.046279"><time>1970-01-01T00:00:01.000Z</time></trkpt>
			<trkpt lat="51.967968" lon="39.047953"><time>1970-01-01T00:00:01.000Z</time></trkpt>
			<trkpt lat="51.970116" lon="39.049337"><time>1970-01-01T00:00:01.000Z</time></trkpt>
			<trkpt lat="51.971478" lon="39.050367"><time>1970-01-01T00:00:01.000Z</time></trkpt>
			<trkpt lat="51.971729" lon="39.050817"><time>1970-01-01T00:00:01.000Z</time></trkpt>
			<trkpt lat="51.972192" lon="39.052041"><time>1970-01-01T00:00:01.000Z</time></trkpt>
			<trkpt lat="51.972258" lon="39.052631"><time>1970-01-01T00:00:01.000Z</time></trkpt>
			<trkpt lat="51.971425" lon="39.055946"><time>1970-01-01T00:00:01.000Z</time></trkpt>
			<trkpt lat="51.971187" lon="39.057019"><time>1970-01-01T00:00:01.000Z</time></trkpt>
			<trkpt lat="51.971960" lon="39.057888"><time>1970-01-01T00:00:01.000Z</time></trkpt>
			<trkpt lat="51.972562" lon="39.058714"><time>1970-01-01T00:00:01.000Z</time></trkpt>
			<trkpt lat="51.972945" lon="39.059272"><time>1970-01-01T00:00:01.000Z</time></trkpt>
			<trkpt lat="51.973276" lon="39.059969"><time>1970-01-01T00:00:01.000Z</time></trkpt>
			<trkpt lat="51.973692" lon="39.060248"><time>1970-01-01T00:00:01.000Z</time></trkpt>
			<trkpt lat="51.974102" lon="39.060667"><time>1970-01-01T00:00:01.000Z</time></trkpt>
			<trkpt lat="51.974320" lon="39.060956"><time>1970-01-01T00:00:01.000Z</time></trkpt>
			<trkpt lat="51.974591" lon="39.061482"><time>1970-01-01T00:00:01.000Z</time></trkpt>
			<trkpt lat="51.974644" lon="39.062008"><time>1970-01-01T00:00:01.000Z</time></trkpt>
			<trkpt lat="51.974849" lon="39.063209"><time>1970-01-01T00:00:01.000Z</time></trkpt>
			<trkpt lat="51.975054" lon="39.064400"><time>1970-01-01T00:00:01.000Z</time></trkpt>
			<trkpt lat="51.975120" lon="39.065140"><time>1970-01-01T00:00:01.000Z</time></trkpt>
			<trkpt lat="51.975034" lon="39.065945"><time>1970-01-01T00:00:01.000Z</time></trkpt>
			<trkpt lat="51.974981" lon="39.066653"><time>1970-01-01T00:00:01.000Z</time></trkpt>
			<trkpt lat="51.975021" lon="39.066986"><time>1970-01-01T00:00:01.000Z</time></trkpt>
			<trkpt lat="51.974941" lon="39.067179"><time>1970-01-01T00:00:01.000Z</time></trkpt>
			<trkpt lat="51.975073" lon="39.067866"><time>1970-01-01T00:00:01.000Z</time></trkpt>
			<trkpt lat="51.974988" lon="39.068305"><time>1970-01-01T00:00:01.000Z</time></trkpt>
			<trkpt lat="51.974591" lon="39.068660"><time>1970-01-01T00:00:01.000Z</time></trkpt>
			<trkpt lat="51.974485" lon="39.068992"><time>1970-01-01T00:00:01.000Z</time></trkpt>
			<trkpt lat="51.974538" lon="39.069421"><time>1970-01-01T00:00:01.000Z</time></trkpt>
			<trkpt lat="51.975133" lon="39.069958"><time>1970-01-01T00:00:01.000Z</time></trkpt>
			<trkpt lat="51.975767" lon="39.070065"><time>1970-01-01T00:00:01.000Z</time></trkpt>
			<trkpt lat="51.976501" lon="39.070269"><time>1970-01-01T00:00:01.000Z</time></trkpt>
			<trkpt lat="51.977684" lon="39.071170"><time>1970-01-01T00:00:01.000Z</time></trkpt>
			<trkpt lat="51.978080" lon="39.071621"><time>1970-01-01T00:00:01.000Z</time></trkpt>
			<trkpt lat="51.978404" lon="39.072640"><time>1970-01-01T00:00:01.000Z</time></trkpt>
			<trkpt lat="51.978728" lon="39.073133"><time>1970-01-01T00:00:01.000Z</time></trkpt>
			<trkpt lat="51.979032" lon="39.073337"><time>1970-01-01T00:00:01.000Z</time></trkpt>
			<trkpt lat="51.979323" lon="39.073294"><time>1970-01-01T00:00:01.000Z</time></trkpt>
			<trkpt lat="51.979805" lon="39.073015"><time>1970-01-01T00:00:01.000Z</time></trkpt>
			<trkpt lat="51.980175" lon="39.072962"><time>1970-01-01T00:00:01.000Z</time></trkpt>
			<trkpt lat="51.980770" lon="39.072737"><time>1970-01-01T00:00:01.000Z</time></trkpt>
			<trkpt lat="51.981299" lon="39.072726"><time>1970-01-01T00:00:01.000Z</time></trkpt>
			<trkpt lat="51.981702" lon="39.073015"><time>1970-01-01T00:00:01.000Z</time></trkpt>
			<trkpt lat="51.982369" lon="39.073541"><time>1970-01-01T00:00:01.000Z</time></trkpt>
			<trkpt lat="51.983017" lon="39.073884"><time>1970-01-01T00:00:01.000Z</time></trkpt>
			<trkpt lat="51.983274" lon="39.074163"><time>1970-01-01T00:00:01.000Z</time></trkpt>
			<trkpt lat="51.984200" lon="39.076234"><time>1970-01-01T00:00:01.000Z</time></trkpt>
			<trkpt lat="51.986169" lon="39.080547"><time>1970-01-01T00:00:01.000Z</time></trkpt>
			<trkpt lat="51.986730" lon="39.081652"><time>1970-01-01T00:00:01.000Z</time></trkpt>
			<trkpt lat="51.987080" lon="39.082156"><time>1970-01-01T00:00:01.000Z</time></trkpt>
			<trkpt lat="51.987503" lon="39.082693"><time>1970-01-01T00:00:01.000Z</time></trkpt>
			<trkpt lat="51.988032" lon="39.084581"><time>1970-01-01T00:00:01.000Z</time></trkpt>
			<trkpt lat="51.988521" lon="39.085300"><time>1970-01-01T00:00:01.000Z</time></trkpt>
			<trkpt lat="51.988726" lon="39.085761"><time>1970-01-01T00:00:01.000Z</time></trkpt>
			<trkpt lat="51.989670" lon="39.088744"><time>1970-01-01T00:00:01.000Z</time></trkpt>
			<trkpt lat="51.990298" lon="39.090954"><time>1970-01-01T00:00:01.000Z</time></trkpt>
			<trkpt lat="51.990463" lon="39.091212"><time>1970-01-01T00:00:01.000Z</time></trkpt>
			<trkpt lat="51.990708" lon="39.091169"><time>1970-01-01T00:00:01.000Z</time></trkpt>
			<trkpt lat="51.995510" lon="39.089205"><time>1970-01-01T00:00:01.000Z</time></trkpt>
			<trkpt lat="51.997730" lon="39.088283"><time>1970-01-01T00:00:01.000Z</time></trkpt>
			<trkpt lat="52.004441" lon="39.085439"><time>1970-01-01T00:00:01.000Z</time></trkpt>
			<trkpt lat="52.011745" lon="39.082296"><time>1970-01-01T00:00:01.000Z</time></trkpt>
			<trkpt lat="52.017543" lon="39.079871"><time>1970-01-01T00:00:01.000Z</time></trkpt>
			<trkpt lat="52.022303" lon="39.077865"><time>1970-01-01T00:00:01.000Z</time></trkpt>
			<trkpt lat="52.024422" lon="39.076953"><time>1970-01-01T00:00:01.000Z</time></trkpt>
			<trkpt lat="52.025492" lon="39.076889"><time>1970-01-01T00:00:01.000Z</time></trkpt>
			<trkpt lat="52.026422" lon="39.076631"><time>1970-01-01T00:00:01.000Z</time></trkpt>
			<trkpt lat="52.027578" lon="39.076052"><time>1970-01-01T00:00:01.000Z</time></trkpt>
			<trkpt lat="52.028390" lon="39.075891"><time>1970-01-01T00:00:01.000Z</time></trkpt>
			<trkpt lat="52.028937" lon="39.075730"><time>1970-01-01T00:00:01.000Z</time></trkpt>
			<trkpt lat="52.029611" lon="39.075161"><time>1970-01-01T00:00:01.000Z</time></trkpt>
			<trkpt lat="52.029835" lon="39.074582"><time>1970-01-01T00:00:01.000Z</time></trkpt>
			<trkpt lat="52.029763" lon="39.073477"><time>1970-01-01T00:00:01.000Z</time></trkpt>
			<trkpt lat="52.029815" lon="39.072640"><time>1970-01-01T00:00:01.000Z</time></trkpt>
			<trkpt lat="52.029908" lon="39.072189"><time>1970-01-01T00:00:01.000Z</time></trkpt>
			<trkpt lat="52.030297" lon="39.070880"><time>1970-01-01T00:00:01.000Z</time></trkpt>
			<trkpt lat="52.030370" lon="39.069947"><time>1970-01-01T00:00:01.000Z</time></trkpt>
			<trkpt lat="52.030370" lon="39.069035"><time>1970-01-01T00:00:01.000Z</time></trkpt>
			<trkpt lat="52.030139" lon="39.068069"><time>1970-01-01T00:00:01.000Z</time></trkpt>
			<trkpt lat="52.029862" lon="39.067104"><time>1970-01-01T00:00:01.000Z</time></trkpt>
			<trkpt lat="52.029848" lon="39.066750"><time>1970-01-01T00:00:01.000Z</time></trkpt>
			<trkpt lat="52.030020" lon="39.066525"><time>1970-01-01T00:00:01.000Z</time></trkpt>
			<trkpt lat="52.030363" lon="39.066503"><time>1970-01-01T00:00:01.000Z</time></trkpt>
			<trkpt lat="52.030891" lon="39.066621"><time>1970-01-01T00:00:01.000Z</time></trkpt>
			<trkpt lat="52.031631" lon="39.066664"><time>1970-01-01T00:00:01.000Z</time></trkpt>
			<trkpt lat="52.032000" lon="39.066600"><time>1970-01-01T00:00:01.000Z</time></trkpt>
			<trkpt lat="52.032423" lon="39.066471"><time>1970-01-01T00:00:01.000Z</time></trkpt>
			<trkpt lat="52.032680" lon="39.066213"><time>1970-01-01T00:00:01.000Z</time></trkpt>
			<trkpt lat="52.032931" lon="39.065892"><time>1970-01-01T00:00:01.000Z</time></trkpt>
			<trkpt lat="52.032990" lon="39.065634"><time>1970-01-01T00:00:01.000Z</time></trkpt>
			<trkpt lat="52.033393" lon="39.064958"><time>1970-01-01T00:00:01.000Z</time></trkpt>
			<trkpt lat="52.033518" lon="39.064668"><time>1970-01-01T00:00:01.000Z</time></trkpt>
			<trkpt lat="52.033657" lon="39.063950"><time>1970-01-01T00:00:01.000Z</time></trkpt>
			<trkpt lat="52.033558" lon="39.063413"><time>1970-01-01T00:00:01.000Z</time></trkpt>
			<trkpt lat="52.033505" lon="39.062705"><time>1970-01-01T00:00:01.000Z</time></trkpt>
			<trkpt lat="52.033485" lon="39.061890"><time>1970-01-01T00:00:01.000Z</time></trkpt>
			<trkpt lat="52.033466" lon="39.060999"><time>1970-01-01T00:00:01.000Z</time></trkpt>
			<trkpt lat="52.033281" lon="39.059765"><time>1970-01-01T00:00:01.000Z</time></trkpt>
			<trkpt lat="52.033822" lon="39.058017"><time>1970-01-01T00:00:01.000Z</time></trkpt>
			<trkpt lat="52.034152" lon="39.056922"><time>1970-01-01T00:00:01.000Z</time></trkpt>
			<trkpt lat="52.034185" lon="39.056547"><time>1970-01-01T00:00:01.000Z</time></trkpt>
			<trkpt lat="52.034145" lon="39.056203"><time>1970-01-01T00:00:01.000Z</time></trkpt>
			<trkpt lat="52.034238" lon="39.055957"><time>1970-01-01T00:00:01.000Z</time></trkpt>
			<trkpt lat="52.034337" lon="39.055828"><time>1970-01-01T00:00:01.000Z</time></trkpt>
			<trkpt lat="52.034548" lon="39.054669"><time>1970-01-01T00:00:01.000Z</time></trkpt>
			<trkpt lat="52.034706" lon="39.054176"><time>1970-01-01T00:00:01.000Z</time></trkpt>
			<trkpt lat="52.034805" lon="39.052942"><time>1970-01-01T00:00:01.000Z</time></trkpt>
			<trkpt lat="52.034911" lon="39.052523"><time>1970-01-01T00:00:01.000Z</time></trkpt>
			<trkpt lat="52.035624" lon="39.054261"><time>1970-01-01T00:00:01.000Z</time></trkpt>
			<trkpt lat="52.035888" lon="39.054744"><time>1970-01-01T00:00:01.000Z</time></trkpt>
			<trkpt lat="52.036653" lon="39.055463"><time>1970-01-01T00:00:01.000Z</time></trkpt>
			<trkpt lat="52.038000" lon="39.056590"><time>1970-01-01T00:00:01.000Z</time></trkpt>
			<trkpt lat="52.039379" lon="39.057276"><time>1970-01-01T00:00:01.000Z</time></trkpt>
			<trkpt lat="52.040844" lon="39.057974"><time>1970-01-01T00:00:01.000Z</time></trkpt>
			<trkpt lat="52.041385" lon="39.057963"><time>1970-01-01T00:00:01.000Z</time></trkpt>
			<trkpt lat="52.041517" lon="39.057802"><time>1970-01-01T00:00:01.000Z</time></trkpt>
			<trkpt lat="52.041544" lon="39.057233"><time>1970-01-01T00:00:01.000Z</time></trkpt>
			<trkpt lat="52.041676" lon="39.056257"><time>1970-01-01T00:00:01.000Z</time></trkpt>
			<trkpt lat="52.041847" lon="39.055420"><time>1970-01-01T00:00:01.000Z</time></trkpt>
			<trkpt lat="52.042124" lon="39.054691"><time>1970-01-01T00:00:01.000Z</time></trkpt>
			<trkpt lat="52.042501" lon="39.054197"><time>1970-01-01T00:00:01.000Z</time></trkpt>
			<trkpt lat="52.042778" lon="39.053532"><time>1970-01-01T00:00:01.000Z</time></trkpt>
			<trkpt lat="52.042903" lon="39.052985"><time>1970-01-01T00:00:01.000Z</time></trkpt>
			<trkpt lat="52.042718" lon="39.051418"><time>1970-01-01T00:00:01.000Z</time></trkpt>
			<trkpt lat="52.042560" lon="39.050463"><time>1970-01-01T00:00:01.000Z</time></trkpt>
			<trkpt lat="52.042553" lon="39.049777"><time>1970-01-01T00:00:01.000Z</time></trkpt>
			<trkpt lat="52.042151" lon="39.046000"><time>1970-01-01T00:00:01.000Z</time></trkpt>
			<trkpt lat="52.042177" lon="39.045807"><time>1970-01-01T00:00:01.000Z</time></trkpt>
			<trkpt lat="52.042448" lon="39.045550"><time>1970-01-01T00:00:01.000Z</time></trkpt>
			<trkpt lat="52.042626" lon="39.045453"><time>1970-01-01T00:00:01.000Z</time></trkpt>
			<trkpt lat="52.042666" lon="39.044659"><time>1970-01-01T00:00:01.000Z</time></trkpt>
			<trkpt lat="52.042923" lon="39.044187"><time>1970-01-01T00:00:01.000Z</time></trkpt>
			<trkpt lat="52.043174" lon="39.043382"><time>1970-01-01T00:00:01.000Z</time></trkpt>
			<trkpt lat="52.043240" lon="39.042717"><time>1970-01-01T00:00:01.000Z</time></trkpt>
			<trkpt lat="52.043180" lon="39.042063"><time>1970-01-01T00:00:01.000Z</time></trkpt>
			<trkpt lat="52.043055" lon="39.041559"><time>1970-01-01T00:00:01.000Z</time></trkpt>
			<trkpt lat="52.043042" lon="39.040829"><time>1970-01-01T00:00:01.000Z</time></trkpt>
			<trkpt lat="52.042798" lon="39.039638"><time>1970-01-01T00:00:01.000Z</time></trkpt>
			<trkpt lat="52.042751" lon="39.039005"><time>1970-01-01T00:00:01.000Z</time></trkpt>
			<trkpt lat="52.042910" lon="39.037503"><time>1970-01-01T00:00:01.000Z</time></trkpt>
			<trkpt lat="52.042963" lon="39.036999"><time>1970-01-01T00:00:01.000Z</time></trkpt>
			<trkpt lat="52.042903" lon="39.035915"><time>1970-01-01T00:00:01.000Z</time></trkpt>
			<trkpt lat="52.042930" lon="39.035583"><time>1970-01-01T00:00:01.000Z</time></trkpt>
			<trkpt lat="52.043207" lon="39.035379"><time>1970-01-01T00:00:01.000Z</time></trkpt>
			<trkpt lat="52.043589" lon="39.035379"><time>1970-01-01T00:00:01.000Z</time></trkpt>
			<trkpt lat="52.044665" lon="39.035540"><time>1970-01-01T00:00:01.000Z</time></trkpt>
			<trkpt lat="52.044936" lon="39.035593"><time>1970-01-01T00:00:01.000Z</time></trkpt>
			<trkpt lat="52.045701" lon="39.035465"><time>1970-01-01T00:00:01.000Z</time></trkpt>
			<trkpt lat="52.046843" lon="39.035003"><time>1970-01-01T00:00:01.000Z</time></trkpt>
			<trkpt lat="52.047859" lon="39.033973"><time>1970-01-01T00:00:01.000Z</time></trkpt>
			<trkpt lat="52.048334" lon="39.033211"><time>1970-01-01T00:00:01.000Z</time></trkpt>
			<trkpt lat="52.048611" lon="39.032815"><time>1970-01-01T00:00:01.000Z</time></trkpt>
			<trkpt lat="52.049013" lon="39.031827"><time>1970-01-01T00:00:01.000Z</time></trkpt>
			<trkpt lat="52.049376" lon="39.030787"><time>1970-01-01T00:00:01.000Z</time></trkpt>
			<trkpt lat="52.049482" lon="39.029832"><time>1970-01-01T00:00:01.000Z</time></trkpt>
			<trkpt lat="52.049429" lon="39.029124"><time>1970-01-01T00:00:01.000Z</time></trkpt>
			<trkpt lat="52.049508" lon="39.028641"><time>1970-01-01T00:00:01.000Z</time></trkpt>
			<trkpt lat="52.049673" lon="39.028233"><time>1970-01-01T00:00:01.000Z</time></trkpt>
			<trkpt lat="52.049587" lon="39.027311"><time>1970-01-01T00:00:01.000Z</time></trkpt>
			<trkpt lat="52.049667" lon="39.026721"><time>1970-01-01T00:00:01.000Z</time></trkpt>
			<trkpt lat="52.049891" lon="39.025776"><time>1970-01-01T00:00:01.000Z</time></trkpt>
			<trkpt lat="52.050030" lon="39.025100"><time>1970-01-01T00:00:01.000Z</time></trkpt>
			<trkpt lat="52.050030" lon="39.024714"><time>1970-01-01T00:00:01.000Z</time></trkpt>
			<trkpt lat="52.050148" lon="39.023974"><time>1970-01-01T00:00:01.000Z</time></trkpt>
			<trkpt lat="52.050419" lon="39.023008"><time>1970-01-01T00:00:01.000Z</time></trkpt>
			<trkpt lat="52.050775" lon="39.021860"><time>1970-01-01T00:00:01.000Z</time></trkpt>
			<trkpt lat="52.051521" lon="39.018470"><time>1970-01-01T00:00:01.000Z</time></trkpt>
			<trkpt lat="52.051719" lon="39.017483"><time>1970-01-01T00:00:01.000Z</time></trkpt>
			<trkpt lat="52.051851" lon="39.016399"><time>1970-01-01T00:00:01.000Z</time></trkpt>
			<trkpt lat="52.052161" lon="39.014844"><time>1970-01-01T00:00:01.000Z</time></trkpt>
			<trkpt lat="52.052497" lon="39.013385"><time>1970-01-01T00:00:01.000Z</time></trkpt>
			<trkpt lat="52.052952" lon="39.011443"><time>1970-01-01T00:00:01.000Z</time></trkpt>
			<trkpt lat="52.053137" lon="39.010348"><time>1970-01-01T00:00:01.000Z</time></trkpt>
			<trkpt lat="52.053203" lon="39.009061"><time>1970-01-01T00:00:01.000Z</time></trkpt>
			<trkpt lat="52.053203" lon="39.008417"><time>1970-01-01T00:00:01.000Z</time></trkpt>
			<trkpt lat="52.053045" lon="39.007366"><time>1970-01-01T00:00:01.000Z</time></trkpt>
			<trkpt lat="52.053256" lon="39.005992"><time>1970-01-01T00:00:01.000Z</time></trkpt>
			<trkpt lat="52.053559" lon="39.005048"><time>1970-01-01T00:00:01.000Z</time></trkpt>
			<trkpt lat="52.054140" lon="39.004383"><time>1970-01-01T00:00:01.000Z</time></trkpt>
			<trkpt lat="52.054628" lon="39.004705"><time>1970-01-01T00:00:01.000Z</time></trkpt>
			<trkpt lat="52.054826" lon="39.004362"><time>1970-01-01T00:00:01.000Z</time></trkpt>
			<trkpt lat="52.055538" lon="39.003267"><time>1970-01-01T00:00:01.000Z</time></trkpt>
			<trkpt lat="52.055974" lon="39.002430"><time>1970-01-01T00:00:01.000Z</time></trkpt>
			<trkpt lat="52.056211" lon="39.001808"><time>1970-01-01T00:00:01.000Z</time></trkpt>
			<trkpt lat="52.056211" lon="39.001358"><time>1970-01-01T00:00:01.000Z</time></trkpt>
			<trkpt lat="52.056845" lon="39.001164"><time>1970-01-01T00:00:01.000Z</time></trkpt>
			<trkpt lat="52.057584" lon="39.001486"><time>1970-01-01T00:00:01.000Z</time></trkpt>
			<trkpt lat="52.058124" lon="39.001679"><time>1970-01-01T00:00:01.000Z</time></trkpt>
			<trkpt lat="52.058599" lon="39.001894"><time>1970-01-01T00:00:01.000Z</time></trkpt>
			<trkpt lat="52.059193" lon="39.002173"><time>1970-01-01T00:00:01.000Z</time></trkpt>
			<trkpt lat="52.060539" lon="39.001873"><time>1970-01-01T00:00:01.000Z</time></trkpt>
			<trkpt lat="52.062016" lon="39.002130"><time>1970-01-01T00:00:01.000Z</time></trkpt>
			<trkpt lat="52.062518" lon="39.002259"><time>1970-01-01T00:00:01.000Z</time></trkpt>
			<trkpt lat="52.062689" lon="39.002237"><time>1970-01-01T00:00:01.000Z</time></trkpt>
			<trkpt lat="52.062953" lon="39.002066"><time>1970-01-01T00:00:01.000Z</time></trkpt>
			<trkpt lat="52.063270" lon="39.001830"><time>1970-01-01T00:00:01.000Z</time></trkpt>
			<trkpt lat="52.067583" lon="38.989985"><time>1970-01-01T00:00:01.000Z</time></trkpt>
			<trkpt lat="52.070168" lon="38.982131"><time>1970-01-01T00:00:01.000Z</time></trkpt>
			<trkpt lat="52.073492" lon="38.971982"><time>1970-01-01T00:00:01.000Z</time></trkpt>
			<trkpt lat="52.074389" lon="38.969386"><time>1970-01-01T00:00:01.000Z</time></trkpt>
			<trkpt lat="52.075906" lon="38.965223"><time>1970-01-01T00:00:01.000Z</time></trkpt>
			<trkpt lat="52.076301" lon="38.963978"><time>1970-01-01T00:00:01.000Z</time></trkpt>
			<trkpt lat="52.076486" lon="38.963227"><time>1970-01-01T00:00:01.000Z</time></trkpt>
			<trkpt lat="52.076882" lon="38.962691"><time>1970-01-01T00:00:01.000Z</time></trkpt>
			<trkpt lat="52.077317" lon="38.962562"><time>1970-01-01T00:00:01.000Z</time></trkpt>
			<trkpt lat="52.077989" lon="38.962712"><time>1970-01-01T00:00:01.000Z</time></trkpt>
			<trkpt lat="52.079137" lon="38.962326"><time>1970-01-01T00:00:01.000Z</time></trkpt>
			<trkpt lat="52.079651" lon="38.961875"><time>1970-01-01T00:00:01.000Z</time></trkpt>
			<trkpt lat="52.080680" lon="38.960481"><time>1970-01-01T00:00:01.000Z</time></trkpt>
			<trkpt lat="52.081207" lon="38.959558"><time>1970-01-01T00:00:01.000Z</time></trkpt>
			<trkpt lat="52.081682" lon="38.958485"><time>1970-01-01T00:00:01.000Z</time></trkpt>
			<trkpt lat="52.081932" lon="38.958206"><time>1970-01-01T00:00:01.000Z</time></trkpt>
			<trkpt lat="52.082196" lon="38.958249"><time>1970-01-01T00:00:01.000Z</time></trkpt>
			<trkpt lat="52.082737" lon="38.959193"><time>1970-01-01T00:00:01.000Z</time></trkpt>
			<trkpt lat="52.083330" lon="38.960159"><time>1970-01-01T00:00:01.000Z</time></trkpt>
			<trkpt lat="52.083515" lon="38.960137"><time>1970-01-01T00:00:01.000Z</time></trkpt>
			<trkpt lat="52.084543" lon="38.958786"><time>1970-01-01T00:00:01.000Z</time></trkpt>
			<trkpt lat="52.084741" lon="38.958507"><time>1970-01-01T00:00:01.000Z</time></trkpt>
			<trkpt lat="52.085011" lon="38.958582"><time>1970-01-01T00:00:01.000Z</time></trkpt>
			<trkpt lat="52.088789" lon="38.957713"><time>1970-01-01T00:00:01.000Z</time></trkpt>
			<trkpt lat="52.089020" lon="38.957498"><time>1970-01-01T00:00:01.000Z</time></trkpt>
			<trkpt lat="52.089237" lon="38.956854"><time>1970-01-01T00:00:01.000Z</time></trkpt>
			<trkpt lat="52.089870" lon="38.955256"><time>1970-01-01T00:00:01.000Z</time></trkpt>
			<trkpt lat="52.090391" lon="38.953786"><time>1970-01-01T00:00:01.000Z</time></trkpt>
			<trkpt lat="52.090879" lon="38.952177"><time>1970-01-01T00:00:01.000Z</time></trkpt>
			<trkpt lat="52.091056" lon="38.951415"><time>1970-01-01T00:00:01.000Z</time></trkpt>
			<trkpt lat="52.091083" lon="38.950471"><time>1970-01-01T00:00:01.000Z</time></trkpt>
			<trkpt lat="52.091063" lon="38.949966"><time>1970-01-01T00:00:01.000Z</time></trkpt>
			<trkpt lat="52.091202" lon="38.949516"><time>1970-01-01T00:00:01.000Z</time></trkpt>
			<trkpt lat="52.091801" lon="38.948443"><time>1970-01-01T00:00:01.000Z</time></trkpt>
			<trkpt lat="52.092612" lon="38.945975"><time>1970-01-01T00:00:01.000Z</time></trkpt>
			<trkpt lat="52.093139" lon="38.945653"><time>1970-01-01T00:00:01.000Z</time></trkpt>
			<trkpt lat="52.093311" lon="38.945364"><time>1970-01-01T00:00:01.000Z</time></trkpt>
			<trkpt lat="52.093746" lon="38.944913"><time>1970-01-01T00:00:01.000Z</time></trkpt>
			<trkpt lat="52.093944" lon="38.944613"><time>1970-01-01T00:00:01.000Z</time></trkpt>
			<trkpt lat="52.094326" lon="38.943486"><time>1970-01-01T00:00:01.000Z</time></trkpt>
			<trkpt lat="52.095657" lon="38.940922"><time>1970-01-01T00:00:01.000Z</time></trkpt>
			<trkpt lat="52.098103" lon="38.935579"><time>1970-01-01T00:00:01.000Z</time></trkpt>
			<trkpt lat="52.100304" lon="38.930923"><time>1970-01-01T00:00:01.000Z</time></trkpt>
			<trkpt lat="52.100515" lon="38.930140"><time>1970-01-01T00:00:01.000Z</time></trkpt>
			<trkpt lat="52.100581" lon="38.929828"><time>1970-01-01T00:00:01.000Z</time></trkpt>
			<trkpt lat="52.100495" lon="38.929303"><time>1970-01-01T00:00:01.000Z</time></trkpt>
			<trkpt lat="52.100245" lon="38.928519"><time>1970-01-01T00:00:01.000Z</time></trkpt>
			<trkpt lat="52.100027" lon="38.928005"><time>1970-01-01T00:00:01.000Z</time></trkpt>
			<trkpt lat="52.099790" lon="38.927447"><time>1970-01-01T00:00:01.000Z</time></trkpt>
			<trkpt lat="52.099816" lon="38.927125"><time>1970-01-01T00:00:01.000Z</time></trkpt>
			<trkpt lat="52.099961" lon="38.926953"><time>1970-01-01T00:00:01.000Z</time></trkpt>
			<trkpt lat="52.100113" lon="38.927017"><time>1970-01-01T00:00:01.000Z</time></trkpt>
			<trkpt lat="52.100383" lon="38.927189"><time>1970-01-01T00:00:01.000Z</time></trkpt>
			<trkpt lat="52.100627" lon="38.927618"><time>1970-01-01T00:00:01.000Z</time></trkpt>
			<trkpt lat="52.100746" lon="38.928090"><time>1970-01-01T00:00:01.000Z</time></trkpt>
			<trkpt lat="52.100923" lon="38.928359"><time>1970-01-01T00:00:01.000Z</time></trkpt>
			<trkpt lat="52.101134" lon="38.928498"><time>1970-01-01T00:00:01.000Z</time></trkpt>
			<trkpt lat="52.101424" lon="38.928401"><time>1970-01-01T00:00:01.000Z</time></trkpt>
			<trkpt lat="52.102136" lon="38.926749"><time>1970-01-01T00:00:01.000Z</time></trkpt>
			<trkpt lat="52.103138" lon="38.924732"><time>1970-01-01T00:00:01.000Z</time></trkpt>
			<trkpt lat="52.104001" lon="38.922930"><time>1970-01-01T00:00:01.000Z</time></trkpt>
			<trkpt lat="52.104357" lon="38.922232"><time>1970-01-01T00:00:01.000Z</time></trkpt>
			<trkpt lat="52.105293" lon="38.920827"><time>1970-01-01T00:00:01.000Z</time></trkpt>
			<trkpt lat="52.106011" lon="38.919797"><time>1970-01-01T00:00:01.000Z</time></trkpt>
			<trkpt lat="52.106472" lon="38.919185"><time>1970-01-01T00:00:01.000Z</time></trkpt>
			<trkpt lat="52.107579" lon="38.917147"><time>1970-01-01T00:00:01.000Z</time></trkpt>
			<trkpt lat="52.107961" lon="38.916450"><time>1970-01-01T00:00:01.000Z</time></trkpt>
			<trkpt lat="52.108522" lon="38.915817"><time>1970-01-01T00:00:01.000Z</time></trkpt>
			<trkpt lat="52.108970" lon="38.919078"><time>1970-01-01T00:00:01.000Z</time></trkpt>
			<trkpt lat="52.109233" lon="38.921084"><time>1970-01-01T00:00:01.000Z</time></trkpt>
			<trkpt lat="52.109629" lon="38.920709"><time>1970-01-01T00:00:01.000Z</time></trkpt>
			<trkpt lat="52.109780" lon="38.920248"><time>1970-01-01T00:00:01.000Z</time></trkpt>
			<trkpt lat="52.110110" lon="38.919861"><time>1970-01-01T00:00:01.000Z</time></trkpt>
			<trkpt lat="52.110301" lon="38.918424"><time>1970-01-01T00:00:01.000Z</time></trkpt>
			<trkpt lat="52.110399" lon="38.917329"><time>1970-01-01T00:00:01.000Z</time></trkpt>
			<trkpt lat="52.110841" lon="38.916117"><time>1970-01-01T00:00:01.000Z</time></trkpt>
			<trkpt lat="52.111394" lon="38.915398"><time>1970-01-01T00:00:01.000Z</time></trkpt>
			<trkpt lat="52.111770" lon="38.914776"><time>1970-01-01T00:00:01.000Z</time></trkpt>
			<trkpt lat="52.112073" lon="38.913746"><time>1970-01-01T00:00:01.000Z</time></trkpt>
			<trkpt lat="52.112435" lon="38.913113"><time>1970-01-01T00:00:01.000Z</time></trkpt>
			<trkpt lat="52.113226" lon="38.911697"><time>1970-01-01T00:00:01.000Z</time></trkpt>
			<trkpt lat="52.113595" lon="38.910602"><time>1970-01-01T00:00:01.000Z</time></trkpt>
			<trkpt lat="52.114168" lon="38.908714"><time>1970-01-01T00:00:01.000Z</time></trkpt>
			<trkpt lat="52.114478" lon="38.907770"><time>1970-01-01T00:00:01.000Z</time></trkpt>
			<trkpt lat="52.114794" lon="38.906826"><time>1970-01-01T00:00:01.000Z</time></trkpt>
			<trkpt lat="52.115242" lon="38.905892"><time>1970-01-01T00:00:01.000Z</time></trkpt>
			<trkpt lat="52.115703" lon="38.905356"><time>1970-01-01T00:00:01.000Z</time></trkpt>
			<trkpt lat="52.116197" lon="38.904991"><time>1970-01-01T00:00:01.000Z</time></trkpt>
			<trkpt lat="52.116494" lon="38.904959"><time>1970-01-01T00:00:01.000Z</time></trkpt>
			<trkpt lat="52.117245" lon="38.905571"><time>1970-01-01T00:00:01.000Z</time></trkpt>
			<trkpt lat="52.117779" lon="38.906375"><time>1970-01-01T00:00:01.000Z</time></trkpt>
			<trkpt lat="52.118385" lon="38.907309"><time>1970-01-01T00:00:01.000Z</time></trkpt>
			<trkpt lat="52.118872" lon="38.908178"><time>1970-01-01T00:00:01.000Z</time></trkpt>
			<trkpt lat="52.119221" lon="38.909004"><time>1970-01-01T00:00:01.000Z</time></trkpt>
			<trkpt lat="52.119715" lon="38.909819"><time>1970-01-01T00:00:01.000Z</time></trkpt>
			<trkpt lat="52.119959" lon="38.909980"><time>1970-01-01T00:00:01.000Z</time></trkpt>
			<trkpt lat="52.120289" lon="38.910034"><time>1970-01-01T00:00:01.000Z</time></trkpt>
			<trkpt lat="52.121428" lon="38.910871"><time>1970-01-01T00:00:01.000Z</time></trkpt>
			<trkpt lat="52.121632" lon="38.910892"><time>1970-01-01T00:00:01.000Z</time></trkpt>
			<trkpt lat="52.121975" lon="38.910613"><time>1970-01-01T00:00:01.000Z</time></trkpt>
			<trkpt lat="52.122219" lon="38.910527"><time>1970-01-01T00:00:01.000Z</time></trkpt>
			<trkpt lat="52.122647" lon="38.910913"><time>1970-01-01T00:00:01.000Z</time></trkpt>
			<trkpt lat="52.122989" lon="38.911107"><time>1970-01-01T00:00:01.000Z</time></trkpt>
			<trkpt lat="52.123510" lon="38.911085"><time>1970-01-01T00:00:01.000Z</time></trkpt>
			<trkpt lat="52.123793" lon="38.911117"><time>1970-01-01T00:00:01.000Z</time></trkpt>
			<trkpt lat="52.124182" lon="38.910903"><time>1970-01-01T00:00:01.000Z</time></trkpt>
			<trkpt lat="52.124425" lon="38.910903"><time>1970-01-01T00:00:01.000Z</time></trkpt>
			<trkpt lat="52.126105" lon="38.911632"><time>1970-01-01T00:00:01.000Z</time></trkpt>
			<trkpt lat="52.126540" lon="38.912008"><time>1970-01-01T00:00:01.000Z</time></trkpt>
			<trkpt lat="52.127284" lon="38.913993"><time>1970-01-01T00:00:01.000Z</time></trkpt>
			<trkpt lat="52.127692" lon="38.915720"><time>1970-01-01T00:00:01.000Z</time></trkpt>
			<trkpt lat="52.128008" lon="38.917705"><time>1970-01-01T00:00:01.000Z</time></trkpt>
			<trkpt lat="52.128272" lon="38.918949"><time>1970-01-01T00:00:01.000Z</time></trkpt>
			<trkpt lat="52.128292" lon="38.919625"><time>1970-01-01T00:00:01.000Z</time></trkpt>
			<trkpt lat="52.128226" lon="38.920280"><time>1970-01-01T00:00:01.000Z</time></trkpt>
			<trkpt lat="52.128160" lon="38.920805"><time>1970-01-01T00:00:01.000Z</time></trkpt>
			<trkpt lat="52.128226" lon="38.921374"><time>1970-01-01T00:00:01.000Z</time></trkpt>
			<trkpt lat="52.128358" lon="38.921632"><time>1970-01-01T00:00:01.000Z</time></trkpt>
			<trkpt lat="52.128726" lon="38.921911"><time>1970-01-01T00:00:01.000Z</time></trkpt>
			<trkpt lat="52.129550" lon="38.922619"><time>1970-01-01T00:00:01.000Z</time></trkpt>
			<trkpt lat="52.131137" lon="38.924453"><time>1970-01-01T00:00:01.000Z</time></trkpt>
			<trkpt lat="52.131868" lon="38.925086"><time>1970-01-01T00:00:01.000Z</time></trkpt>
			<trkpt lat="52.132974" lon="38.926181"><time>1970-01-01T00:00:01.000Z</time></trkpt>
			<trkpt lat="52.134515" lon="38.927897"><time>1970-01-01T00:00:01.000Z</time></trkpt>
			<trkpt lat="52.135319" lon="38.928455"><time>1970-01-01T00:00:01.000Z</time></trkpt>
			<trkpt lat="52.137505" lon="38.930655"><time>1970-01-01T00:00:01.000Z</time></trkpt>
			<trkpt lat="52.139592" lon="38.932854"><time>1970-01-01T00:00:01.000Z</time></trkpt>
			<trkpt lat="52.139948" lon="38.932983"><time>1970-01-01T00:00:01.000Z</time></trkpt>
			<trkpt lat="52.140626" lon="38.932854"><time>1970-01-01T00:00:01.000Z</time></trkpt>
			<trkpt lat="52.141535" lon="38.932489"><time>1970-01-01T00:00:01.000Z</time></trkpt>
			<trkpt lat="52.142424" lon="38.932006"><time>1970-01-01T00:00:01.000Z</time></trkpt>
			<trkpt lat="52.146881" lon="38.933723"><time>1970-01-01T00:00:01.000Z</time></trkpt>
			<trkpt lat="52.148889" lon="38.934410"><time>1970-01-01T00:00:01.000Z</time></trkpt>
			<trkpt lat="52.154755" lon="38.936695"><time>1970-01-01T00:00:01.000Z</time></trkpt>
			<trkpt lat="52.158980" lon="38.938304"><time>1970-01-01T00:00:01.000Z</time></trkpt>
			<trkpt lat="52.162587" lon="38.939602"><time>1970-01-01T00:00:01.000Z</time></trkpt>
			<trkpt lat="52.163087" lon="38.939731"><time>1970-01-01T00:00:01.000Z</time></trkpt>
			<trkpt lat="52.164035" lon="38.939667"><time>1970-01-01T00:00:01.000Z</time></trkpt>
			<trkpt lat="52.164640" lon="38.939860"><time>1970-01-01T00:00:01.000Z</time></trkpt>
			<trkpt lat="52.164943" lon="38.940246"><time>1970-01-01T00:00:01.000Z</time></trkpt>
			<trkpt lat="52.165298" lon="38.940976"><time>1970-01-01T00:00:01.000Z</time></trkpt>
			<trkpt lat="52.165746" lon="38.942285"><time>1970-01-01T00:00:01.000Z</time></trkpt>
			<trkpt lat="52.166812" lon="38.943744"><time>1970-01-01T00:00:01.000Z</time></trkpt>
			<trkpt lat="52.167470" lon="38.944452"><time>1970-01-01T00:00:01.000Z</time></trkpt>
			<trkpt lat="52.167852" lon="38.945203"><time>1970-01-01T00:00:01.000Z</time></trkpt>
			<trkpt lat="52.168023" lon="38.945739"><time>1970-01-01T00:00:01.000Z</time></trkpt>
			<trkpt lat="52.168260" lon="38.946340"><time>1970-01-01T00:00:01.000Z</time></trkpt>
			<trkpt lat="52.169102" lon="38.946190"><time>1970-01-01T00:00:01.000Z</time></trkpt>
			<trkpt lat="52.169470" lon="38.945568"><time>1970-01-01T00:00:01.000Z</time></trkpt>
			<trkpt lat="52.169905" lon="38.944602"><time>1970-01-01T00:00:01.000Z</time></trkpt>
			<trkpt lat="52.169826" lon="38.944216"><time>1970-01-01T00:00:01.000Z</time></trkpt>
			<trkpt lat="52.169286" lon="38.943336"><time>1970-01-01T00:00:01.000Z</time></trkpt>
			<trkpt lat="52.169168" lon="38.942950"><time>1970-01-01T00:00:01.000Z</time></trkpt>
			<trkpt lat="52.169220" lon="38.942521"><time>1970-01-01T00:00:01.000Z</time></trkpt>
			<trkpt lat="52.170260" lon="38.941147"><time>1970-01-01T00:00:01.000Z</time></trkpt>
			<trkpt lat="52.171037" lon="38.940096"><time>1970-01-01T00:00:01.000Z</time></trkpt>
			<trkpt lat="52.173800" lon="38.937886"><time>1970-01-01T00:00:01.000Z</time></trkpt>
			<trkpt lat="52.176813" lon="38.935225"><time>1970-01-01T00:00:01.000Z</time></trkpt>
			<trkpt lat="52.177879" lon="38.934367"><time>1970-01-01T00:00:01.000Z</time></trkpt>
			<trkpt lat="52.180669" lon="38.932757"><time>1970-01-01T00:00:01.000Z</time></trkpt>
			<trkpt lat="52.181866" lon="38.932371"><time>1970-01-01T00:00:01.000Z</time></trkpt>
			<trkpt lat="52.181419" lon="38.928981"><time>1970-01-01T00:00:01.000Z</time></trkpt>
			<trkpt lat="52.183984" lon="38.928702"><time>1970-01-01T00:00:01.000Z</time></trkpt>
			<trkpt lat="52.184300" lon="38.928423"><time>1970-01-01T00:00:01.000Z</time></trkpt>
			<trkpt lat="52.185010" lon="38.925612"><time>1970-01-01T00:00:01.000Z</time></trkpt>
			<trkpt lat="52.185747" lon="38.923917"><time>1970-01-01T00:00:01.000Z</time></trkpt>
			<trkpt lat="52.187142" lon="38.919389"><time>1970-01-01T00:00:01.000Z</time></trkpt>
			<trkpt lat="52.187563" lon="38.919089"><time>1970-01-01T00:00:01.000Z</time></trkpt>
			<trkpt lat="52.189878" lon="38.918703"><time>1970-01-01T00:00:01.000Z</time></trkpt>
			<trkpt lat="52.190825" lon="38.916621"><time>1970-01-01T00:00:01.000Z</time></trkpt>
			<trkpt lat="52.192693" lon="38.913789"><time>1970-01-01T00:00:01.000Z</time></trkpt>
			<trkpt lat="52.192772" lon="38.912737"><time>1970-01-01T00:00:01.000Z</time></trkpt>
			<trkpt lat="52.193285" lon="38.912652"><time>1970-01-01T00:00:01.000Z</time></trkpt>
			<trkpt lat="52.193574" lon="38.912137"><time>1970-01-01T00:00:01.000Z</time></trkpt>
			<trkpt lat="52.193745" lon="38.911643"><time>1970-01-01T00:00:01.000Z</time></trkpt>
			<trkpt lat="52.194113" lon="38.911557"><time>1970-01-01T00:00:01.000Z</time></trkpt>
			<trkpt lat="52.194561" lon="38.911600"><time>1970-01-01T00:00:01.000Z</time></trkpt>
			<trkpt lat="52.194758" lon="38.911300"><time>1970-01-01T00:00:01.000Z</time></trkpt>
			<trkpt lat="52.194929" lon="38.910720"><time>1970-01-01T00:00:01.000Z</time></trkpt>
			<trkpt lat="52.195218" lon="38.909454"><time>1970-01-01T00:00:01.000Z</time></trkpt>
			<trkpt lat="52.196007" lon="38.908038"><time>1970-01-01T00:00:01.000Z</time></trkpt>
			<trkpt lat="52.196560" lon="38.906772"><time>1970-01-01T00:00:01.000Z</time></trkpt>
			<trkpt lat="52.196797" lon="38.906536"><time>1970-01-01T00:00:01.000Z</time></trkpt>
			<trkpt lat="52.197310" lon="38.906257"><time>1970-01-01T00:00:01.000Z</time></trkpt>
			<trkpt lat="52.198901" lon="38.905098"><time>1970-01-01T00:00:01.000Z</time></trkpt>
			<trkpt lat="52.199322" lon="38.905120"><time>1970-01-01T00:00:01.000Z</time></trkpt>
			<trkpt lat="52.204293" lon="38.903124"><time>1970-01-01T00:00:01.000Z</time></trkpt>
			<trkpt lat="52.205240" lon="38.900743"><time>1970-01-01T00:00:01.000Z</time></trkpt>
			<trkpt lat="52.207488" lon="38.894756"><time>1970-01-01T00:00:01.000Z</time></trkpt>
			<trkpt lat="52.210223" lon="38.886881"><time>1970-01-01T00:00:01.000Z</time></trkpt>
			<trkpt lat="52.210618" lon="38.886130"><time>1970-01-01T00:00:01.000Z</time></trkpt>
			<trkpt lat="52.211052" lon="38.885765"><time>1970-01-01T00:00:01.000Z</time></trkpt>
			<trkpt lat="52.212945" lon="38.886323"><time>1970-01-01T00:00:01.000Z</time></trkpt>
			<trkpt lat="52.215588" lon="38.887546"><time>1970-01-01T00:00:01.000Z</time></trkpt>
			<trkpt lat="52.219597" lon="38.889627"><time>1970-01-01T00:00:01.000Z</time></trkpt>
			<trkpt lat="52.220110" lon="38.889821"><time>1970-01-01T00:00:01.000Z</time></trkpt>
			<trkpt lat="52.220583" lon="38.889542"><time>1970-01-01T00:00:01.000Z</time></trkpt>
			<trkpt lat="52.222949" lon="38.882933"><time>1970-01-01T00:00:01.000Z</time></trkpt>
			<trkpt lat="52.223856" lon="38.880916"><time>1970-01-01T00:00:01.000Z</time></trkpt>
			<trkpt lat="52.224277" lon="38.880508"><time>1970-01-01T00:00:01.000Z</time></trkpt>
			<trkpt lat="52.225052" lon="38.880991"><time>1970-01-01T00:00:01.000Z</time></trkpt>
			<trkpt lat="52.225256" lon="38.880524"><time>1970-01-01T00:00:01.000Z</time></trkpt>
			<trkpt lat="52.226981" lon="38.876334"><time>1970-01-01T00:00:01.000Z</time></trkpt>
			<trkpt lat="52.230533" lon="38.867269"><time>1970-01-01T00:00:01.000Z</time></trkpt>
			<trkpt lat="52.231138" lon="38.866282"><time>1970-01-01T00:00:01.000Z</time></trkpt>
			<trkpt lat="52.232836" lon="38.861910"><time>1970-01-01T00:00:01.000Z</time></trkpt>
			<trkpt lat="52.233467" lon="38.860188"><time>1970-01-01T00:00:01.000Z</time></trkpt>
			<trkpt lat="52.234147" lon="38.859726"><time>1970-01-01T00:00:01.000Z</time></trkpt>
			<trkpt lat="52.234798" lon="38.858793"><time>1970-01-01T00:00:01.000Z</time></trkpt>
			<trkpt lat="52.236440" lon="38.856127"><time>1970-01-01T00:00:01.000Z</time></trkpt>
			<trkpt lat="52.238411" lon="38.852774"><time>1970-01-01T00:00:01.000Z</time></trkpt>
			<trkpt lat="52.238503" lon="38.852806"><time>1970-01-01T00:00:01.000Z</time></trkpt>
			<trkpt lat="52.242104" lon="38.857141"><time>1970-01-01T00:00:01.000Z</time></trkpt>
			<trkpt lat="52.244488" lon="38.860155"><time>1970-01-01T00:00:01.000Z</time></trkpt>
			<trkpt lat="52.244915" lon="38.860649"><time>1970-01-01T00:00:01.000Z</time></trkpt>
			<trkpt lat="52.247346" lon="38.858374"><time>1970-01-01T00:00:01.000Z</time></trkpt>
			<trkpt lat="52.250906" lon="38.855402"><time>1970-01-01T00:00:01.000Z</time></trkpt>
			<trkpt lat="52.255983" lon="38.851326"><time>1970-01-01T00:00:01.000Z</time></trkpt>
			<trkpt lat="52.257099" lon="38.850424"><time>1970-01-01T00:00:01.000Z</time></trkpt>
			<trkpt lat="52.258058" lon="38.849502"><time>1970-01-01T00:00:01.000Z</time></trkpt>
			<trkpt lat="52.258735" lon="38.848504"><time>1970-01-01T00:00:01.000Z</time></trkpt>
			<trkpt lat="52.259050" lon="38.847753"><time>1970-01-01T00:00:01.000Z</time></trkpt>
			<trkpt lat="52.261158" lon="38.843858"><time>1970-01-01T00:00:01.000Z</time></trkpt>
			<trkpt lat="52.266266" lon="38.833902"><time>1970-01-01T00:00:01.000Z</time></trkpt>
			<trkpt lat="52.267461" lon="38.831434"><time>1970-01-01T00:00:01.000Z</time></trkpt>
			<trkpt lat="52.267921" lon="38.830082"><time>1970-01-01T00:00:01.000Z</time></trkpt>
			<trkpt lat="52.268262" lon="38.828516"><time>1970-01-01T00:00:01.000Z</time></trkpt>
			<trkpt lat="52.268788" lon="38.823452"><time>1970-01-01T00:00:01.000Z</time></trkpt>
			<trkpt lat="52.269851" lon="38.812079"><time>1970-01-01T00:00:01.000Z</time></trkpt>
			<trkpt lat="52.269707" lon="38.810341"><time>1970-01-01T00:00:01.000Z</time></trkpt>
			<trkpt lat="52.269392" lon="38.808496"><time>1970-01-01T00:00:01.000Z</time></trkpt>
			<trkpt lat="52.268669" lon="38.804204"><time>1970-01-01T00:00:01.000Z</time></trkpt>
			<trkpt lat="52.268223" lon="38.802402"><time>1970-01-01T00:00:01.000Z</time></trkpt>
			<trkpt lat="52.267868" lon="38.801436"><time>1970-01-01T00:00:01.000Z</time></trkpt>
			<trkpt lat="52.267632" lon="38.801072"><time>1970-01-01T00:00:01.000Z</time></trkpt>
			<trkpt lat="52.267330" lon="38.800321"><time>1970-01-01T00:00:01.000Z</time></trkpt>
			<trkpt lat="52.267383" lon="38.799806"><time>1970-01-01T00:00:01.000Z</time></trkpt>
			<trkpt lat="52.267934" lon="38.799527"><time>1970-01-01T00:00:01.000Z</time></trkpt>
			<trkpt lat="52.268893" lon="38.799076"><time>1970-01-01T00:00:01.000Z</time></trkpt>
			<trkpt lat="52.270573" lon="38.798990"><time>1970-01-01T00:00:01.000Z</time></trkpt>
			<trkpt lat="52.271059" lon="38.799505"><time>1970-01-01T00:00:01.000Z</time></trkpt>
			<trkpt lat="52.273685" lon="38.800385"><time>1970-01-01T00:00:01.000Z</time></trkpt>
			<trkpt lat="52.276692" lon="38.801694"><time>1970-01-01T00:00:01.000Z</time></trkpt>
			<trkpt lat="52.277204" lon="38.801630"><time>1970-01-01T00:00:01.000Z</time></trkpt>
			<trkpt lat="52.281116" lon="38.800213"><time>1970-01-01T00:00:01.000Z</time></trkpt>
			<trkpt lat="52.288664" lon="38.799784"><time>1970-01-01T00:00:01.000Z</time></trkpt>
			<trkpt lat="52.292982" lon="38.799570"><time>1970-01-01T00:00:01.000Z</time></trkpt>
			<trkpt lat="52.294242" lon="38.799849"><time>1970-01-01T00:00:01.000Z</time></trkpt>
			<trkpt lat="52.299320" lon="38.801823"><time>1970-01-01T00:00:01.000Z</time></trkpt>
			<trkpt lat="52.299950" lon="38.801758"><time>1970-01-01T00:00:01.000Z</time></trkpt>
			<trkpt lat="52.300908" lon="38.800964"><time>1970-01-01T00:00:01.000Z</time></trkpt>
			<trkpt lat="52.306471" lon="38.795772"><time>1970-01-01T00:00:01.000Z</time></trkpt>
			<trkpt lat="52.310171" lon="38.792295"><time>1970-01-01T00:00:01.000Z</time></trkpt>
			<trkpt lat="52.313254" lon="38.789334"><time>1970-01-01T00:00:01.000Z</time></trkpt>
			<trkpt lat="52.314553" lon="38.787961"><time>1970-01-01T00:00:01.000Z</time></trkpt>
			<trkpt lat="52.320993" lon="38.780622"><time>1970-01-01T00:00:01.000Z</time></trkpt>
			<trkpt lat="52.322488" lon="38.778863"><time>1970-01-01T00:00:01.000Z</time></trkpt>
			<trkpt lat="52.326239" lon="38.776503"><time>1970-01-01T00:00:01.000Z</time></trkpt>
			<trkpt lat="52.335274" lon="38.770730"><time>1970-01-01T00:00:01.000Z</time></trkpt>
			<trkpt lat="52.336506" lon="38.769722"><time>1970-01-01T00:00:01.000Z</time></trkpt>
			<trkpt lat="52.337752" lon="38.767877"><time>1970-01-01T00:00:01.000Z</time></trkpt>
			<trkpt lat="52.338538" lon="38.764508"><time>1970-01-01T00:00:01.000Z</time></trkpt>
			<trkpt lat="52.340636" lon="38.755238"><time>1970-01-01T00:00:01.000Z</time></trkpt>
			<trkpt lat="52.341082" lon="38.754272"><time>1970-01-01T00:00:01.000Z</time></trkpt>
			<trkpt lat="52.343074" lon="38.750839"><time>1970-01-01T00:00:01.000Z</time></trkpt>
			<trkpt lat="52.344464" lon="38.749402"><time>1970-01-01T00:00:01.000Z</time></trkpt>
			<trkpt lat="52.345394" lon="38.749058"><time>1970-01-01T00:00:01.000Z</time></trkpt>
			<trkpt lat="52.358173" lon="38.753307"><time>1970-01-01T00:00:01.000Z</time></trkpt>
			<trkpt lat="52.360008" lon="38.753650"><time>1970-01-01T00:00:01.000Z</time></trkpt>
			<trkpt lat="52.361711" lon="38.753843"><time>1970-01-01T00:00:01.000Z</time></trkpt>
			<trkpt lat="52.362707" lon="38.754380"><time>1970-01-01T00:00:01.000Z</time></trkpt>
			<trkpt lat="52.364922" lon="38.756826"><time>1970-01-01T00:00:01.000Z</time></trkpt>
			<trkpt lat="52.365642" lon="38.757019"><time>1970-01-01T00:00:01.000Z</time></trkpt>
			<trkpt lat="52.369062" lon="38.758006"><time>1970-01-01T00:00:01.000Z</time></trkpt>
			<trkpt lat="52.369665" lon="38.757706"><time>1970-01-01T00:00:01.000Z</time></trkpt>
			<trkpt lat="52.372272" lon="38.756247"><time>1970-01-01T00:00:01.000Z</time></trkpt>
			<trkpt lat="52.373005" lon="38.756182"><time>1970-01-01T00:00:01.000Z</time></trkpt>
			<trkpt lat="52.374289" lon="38.756740"><time>1970-01-01T00:00:01.000Z</time></trkpt>
			<trkpt lat="52.376647" lon="38.758972"><time>1970-01-01T00:00:01.000Z</time></trkpt>
			<trkpt lat="52.377315" lon="38.759165"><time>1970-01-01T00:00:01.000Z</time></trkpt>
			<trkpt lat="52.381258" lon="38.759916"><time>1970-01-01T00:00:01.000Z</time></trkpt>
			<trkpt lat="52.381559" lon="38.760452"><time>1970-01-01T00:00:01.000Z</time></trkpt>
			<trkpt lat="52.383249" lon="38.763692"><time>1970-01-01T00:00:01.000Z</time></trkpt>
			<trkpt lat="52.384991" lon="38.766997"><time>1970-01-01T00:00:01.000Z</time></trkpt>
			<trkpt lat="52.384886" lon="38.767855"><time>1970-01-01T00:00:01.000Z</time></trkpt>
			<trkpt lat="52.384977" lon="38.768821"><time>1970-01-01T00:00:01.000Z</time></trkpt>
			<trkpt lat="52.385187" lon="38.769572"><time>1970-01-01T00:00:01.000Z</time></trkpt>
			<trkpt lat="52.385763" lon="38.772308"><time>1970-01-01T00:00:01.000Z</time></trkpt>
			<trkpt lat="52.386012" lon="38.773831"><time>1970-01-01T00:00:01.000Z</time></trkpt>
			<trkpt lat="52.386248" lon="38.776116"><time>1970-01-01T00:00:01.000Z</time></trkpt>
			<trkpt lat="52.386176" lon="38.778176"><time>1970-01-01T00:00:01.000Z</time></trkpt>
			<trkpt lat="52.386143" lon="38.780215"><time>1970-01-01T00:00:01.000Z</time></trkpt>
			<trkpt lat="52.386484" lon="38.781309"><time>1970-01-01T00:00:01.000Z</time></trkpt>
			<trkpt lat="52.386916" lon="38.782790"><time>1970-01-01T00:00:01.000Z</time></trkpt>
			<trkpt lat="52.387053" lon="38.783176"><time>1970-01-01T00:00:01.000Z</time></trkpt>
			<trkpt lat="52.388232" lon="38.787231"><time>1970-01-01T00:00:01.000Z</time></trkpt>
			<trkpt lat="52.390504" lon="38.794420"><time>1970-01-01T00:00:01.000Z</time></trkpt>
			<trkpt lat="52.389902" lon="38.795246"><time>1970-01-01T00:00:01.000Z</time></trkpt>
			<trkpt lat="52.386497" lon="38.800396"><time>1970-01-01T00:00:01.000Z</time></trkpt>
			<trkpt lat="52.386300" lon="38.800718"><time>1970-01-01T00:00:01.000Z</time></trkpt>
			<trkpt lat="52.386294" lon="38.801039"><time>1970-01-01T00:00:01.000Z</time></trkpt>
			<trkpt lat="52.386019" lon="38.802820"><time>1970-01-01T00:00:01.000Z</time></trkpt>
			<trkpt lat="52.385672" lon="38.803765"><time>1970-01-01T00:00:01.000Z</time></trkpt>
			<trkpt lat="52.385383" lon="38.804516"><time>1970-01-01T00:00:01.000Z</time></trkpt>
			<trkpt lat="52.385102" lon="38.804988"><time>1970-01-01T00:00:01.000Z</time></trkpt>
			<trkpt lat="52.384513" lon="38.806511"><time>1970-01-01T00:00:01.000Z</time></trkpt>
			<trkpt lat="52.384440" lon="38.807058"><time>1970-01-01T00:00:01.000Z</time></trkpt>
			<trkpt lat="52.384165" lon="38.807251"><time>1970-01-01T00:00:01.000Z</time></trkpt>
			<trkpt lat="52.383910" lon="38.807348"><time>1970-01-01T00:00:01.000Z</time></trkpt>
			<trkpt lat="52.383792" lon="38.807477"><time>1970-01-01T00:00:01.000Z</time></trkpt>
			<trkpt lat="52.383628" lon="38.807305"><time>1970-01-01T00:00:01.000Z</time></trkpt>
			<trkpt lat="52.383786" lon="38.807616"><time>1970-01-01T00:00:01.000Z</time></trkpt>
			<trkpt lat="52.383727" lon="38.808045"><time>1970-01-01T00:00:01.000Z</time></trkpt>
			<trkpt lat="52.383812" lon="38.808743"><time>1970-01-01T00:00:01.000Z</time></trkpt>
			<trkpt lat="52.383904" lon="38.809183"><time>1970-01-01T00:00:01.000Z</time></trkpt>
			<trkpt lat="52.384120" lon="38.809354"><time>1970-01-01T00:00:01.000Z</time></trkpt>
			<trkpt lat="52.384362" lon="38.809408"><time>1970-01-01T00:00:01.000Z</time></trkpt>
			<trkpt lat="52.385200" lon="38.810298"><time>1970-01-01T00:00:01.000Z</time></trkpt>
			<trkpt lat="52.385645" lon="38.810706"><time>1970-01-01T00:00:01.000Z</time></trkpt>
			<trkpt lat="52.386379" lon="38.811586"><time>1970-01-01T00:00:01.000Z</time></trkpt>
			<trkpt lat="52.386667" lon="38.812262"><time>1970-01-01T00:00:01.000Z</time></trkpt>
			<trkpt lat="52.386988" lon="38.812906"><time>1970-01-01T00:00:01.000Z</time></trkpt>
			<trkpt lat="52.387184" lon="38.813485"><time>1970-01-01T00:00:01.000Z</time></trkpt>
			<trkpt lat="52.387223" lon="38.813742"><time>1970-01-01T00:00:01.000Z</time></trkpt>
			<trkpt lat="52.388107" lon="38.815041"><time>1970-01-01T00:00:01.000Z</time></trkpt>
			<trkpt lat="52.388291" lon="38.815041"><time>1970-01-01T00:00:01.000Z</time></trkpt>
			<trkpt lat="52.388900" lon="38.814783"><time>1970-01-01T00:00:01.000Z</time></trkpt>
			<trkpt lat="52.390249" lon="38.814783"><time>1970-01-01T00:00:01.000Z</time></trkpt>
			<trkpt lat="52.390556" lon="38.814901"><time>1970-01-01T00:00:01.000Z</time></trkpt>
			<trkpt lat="52.391578" lon="38.814719"><time>1970-01-01T00:00:01.000Z</time></trkpt>
			<trkpt lat="52.392481" lon="38.814633"><time>1970-01-01T00:00:01.000Z</time></trkpt>
			<trkpt lat="52.392815" lon="38.814762"><time>1970-01-01T00:00:01.000Z</time></trkpt>
			<trkpt lat="52.393404" lon="38.815320"><time>1970-01-01T00:00:01.000Z</time></trkpt>
			<trkpt lat="52.393607" lon="38.815727"><time>1970-01-01T00:00:01.000Z</time></trkpt>
			<trkpt lat="52.393974" lon="38.816575"><time>1970-01-01T00:00:01.000Z</time></trkpt>
			<trkpt lat="52.396213" lon="38.821746"><time>1970-01-01T00:00:01.000Z</time></trkpt>
			<trkpt lat="52.396383" lon="38.821896"><time>1970-01-01T00:00:01.000Z</time></trkpt>
			<trkpt lat="52.396540" lon="38.821961"><time>1970-01-01T00:00:01.000Z</time></trkpt>
			<trkpt lat="52.397208" lon="38.823591"><time>1970-01-01T00:00:01.000Z</time></trkpt>
			<trkpt lat="52.397758" lon="38.825083"><time>1970-01-01T00:00:01.000Z</time></trkpt>
			<trkpt lat="52.398177" lon="38.826263"><time>1970-01-01T00:00:01.000Z</time></trkpt>
			<trkpt lat="52.398393" lon="38.827186"><time>1970-01-01T00:00:01.000Z</time></trkpt>
			<trkpt lat="52.398386" lon="38.827840"><time>1970-01-01T00:00:01.000Z</time></trkpt>
			<trkpt lat="52.398393" lon="38.829385"><time>1970-01-01T00:00:01.000Z</time></trkpt>
			<trkpt lat="52.398779" lon="38.829224"><time>1970-01-01T00:00:01.000Z</time></trkpt>
			<trkpt lat="52.399349" lon="38.828870"><time>1970-01-01T00:00:01.000Z</time></trkpt>
			<trkpt lat="52.400370" lon="38.828098"><time>1970-01-01T00:00:01.000Z</time></trkpt>
			<trkpt lat="52.401260" lon="38.827540"><time>1970-01-01T00:00:01.000Z</time></trkpt>
			<trkpt lat="52.402124" lon="38.827271"><time>1970-01-01T00:00:01.000Z</time></trkpt>
			<trkpt lat="52.402962" lon="38.827057"><time>1970-01-01T00:00:01.000Z</time></trkpt>
			<trkpt lat="52.403505" lon="38.826982"><time>1970-01-01T00:00:01.000Z</time></trkpt>
			<trkpt lat="52.404193" lon="38.827325"><time>1970-01-01T00:00:01.000Z</time></trkpt>
			<trkpt lat="52.404638" lon="38.827722"><time>1970-01-01T00:00:01.000Z</time></trkpt>
			<trkpt lat="52.404932" lon="38.827947"><time>1970-01-01T00:00:01.000Z</time></trkpt>
			<trkpt lat="52.405469" lon="38.827829"><time>1970-01-01T00:00:01.000Z</time></trkpt>
			<trkpt lat="52.406968" lon="38.828452"><time>1970-01-01T00:00:01.000Z</time></trkpt>
			<trkpt lat="52.407426" lon="38.828623"><time>1970-01-01T00:00:01.000Z</time></trkpt>
			<trkpt lat="52.408238" lon="38.829192"><time>1970-01-01T00:00:01.000Z</time></trkpt>
			<trkpt lat="52.408853" lon="38.829793"><time>1970-01-01T00:00:01.000Z</time></trkpt>
			<trkpt lat="52.409134" lon="38.830168"><time>1970-01-01T00:00:01.000Z</time></trkpt>
			<trkpt lat="52.409272" lon="38.830243"><time>1970-01-01T00:00:01.000Z</time></trkpt>
			<trkpt lat="52.409579" lon="38.830329"><time>1970-01-01T00:00:01.000Z</time></trkpt>
			<trkpt lat="52.409946" lon="38.829997"><time>1970-01-01T00:00:01.000Z</time></trkpt>
			<trkpt lat="52.410181" lon="38.829728"><time>1970-01-01T00:00:01.000Z</time></trkpt>
			<trkpt lat="52.410456" lon="38.829288"><time>1970-01-01T00:00:01.000Z</time></trkpt>
			<trkpt lat="52.410842" lon="38.828956"><time>1970-01-01T00:00:01.000Z</time></trkpt>
			<trkpt lat="52.411235" lon="38.828773"><time>1970-01-01T00:00:01.000Z</time></trkpt>
			<trkpt lat="52.411602" lon="38.828816"><time>1970-01-01T00:00:01.000Z</time></trkpt>
			<trkpt lat="52.411968" lon="38.829042"><time>1970-01-01T00:00:01.000Z</time></trkpt>
			<trkpt lat="52.412079" lon="38.829439"><time>1970-01-01T00:00:01.000Z</time></trkpt>
			<trkpt lat="52.412289" lon="38.829825"><time>1970-01-01T00:00:01.000Z</time></trkpt>
			<trkpt lat="52.412498" lon="38.829997"><time>1970-01-01T00:00:01.000Z</time></trkpt>
			<trkpt lat="52.412852" lon="38.830447"><time>1970-01-01T00:00:01.000Z</time></trkpt>
			<trkpt lat="52.413028" lon="38.831005"><time>1970-01-01T00:00:01.000Z</time></trkpt>
			<trkpt lat="52.413323" lon="38.831531"><time>1970-01-01T00:00:01.000Z</time></trkpt>
			<trkpt lat="52.413604" lon="38.831681"><time>1970-01-01T00:00:01.000Z</time></trkpt>
			<trkpt lat="52.414160" lon="38.831820"><time>1970-01-01T00:00:01.000Z</time></trkpt>
			<trkpt lat="52.414717" lon="38.831799"><time>1970-01-01T00:00:01.000Z</time></trkpt>
			<trkpt lat="52.415168" lon="38.831649"><time>1970-01-01T00:00:01.000Z</time></trkpt>
			<trkpt lat="52.417629" lon="38.828580"><time>1970-01-01T00:00:01.000Z</time></trkpt>
			<trkpt lat="52.418388" lon="38.827722"><time>1970-01-01T00:00:01.000Z</time></trkpt>
			<trkpt lat="52.418617" lon="38.827572"><time>1970-01-01T00:00:01.000Z</time></trkpt>
			<trkpt lat="52.418977" lon="38.827733"><time>1970-01-01T00:00:01.000Z</time></trkpt>
			<trkpt lat="52.419356" lon="38.827679"><time>1970-01-01T00:00:01.000Z</time></trkpt>
			<trkpt lat="52.420154" lon="38.827411"><time>1970-01-01T00:00:01.000Z</time></trkpt>
			<trkpt lat="52.420416" lon="38.827357"><time>1970-01-01T00:00:01.000Z</time></trkpt>
			<trkpt lat="52.420913" lon="38.827111"><time>1970-01-01T00:00:01.000Z</time></trkpt>
			<trkpt lat="52.421483" lon="38.827046"><time>1970-01-01T00:00:01.000Z</time></trkpt>
			<trkpt lat="52.422045" lon="38.827175"><time>1970-01-01T00:00:01.000Z</time></trkpt>
			<trkpt lat="52.422529" lon="38.827583"><time>1970-01-01T00:00:01.000Z</time></trkpt>
			<trkpt lat="52.422811" lon="38.828280"><time>1970-01-01T00:00:01.000Z</time></trkpt>
			<trkpt lat="52.423040" lon="38.829192"><time>1970-01-01T00:00:01.000Z</time></trkpt>
			<trkpt lat="52.423439" lon="38.830619"><time>1970-01-01T00:00:01.000Z</time></trkpt>
			<trkpt lat="52.423668" lon="38.831381"><time>1970-01-01T00:00:01.000Z</time></trkpt>
			<trkpt lat="52.423714" lon="38.831660"><time>1970-01-01T00:00:01.000Z</time></trkpt>
			<trkpt lat="52.423648" lon="38.832207"><time>1970-01-01T00:00:01.000Z</time></trkpt>
			<trkpt lat="52.423949" lon="38.832958"><time>1970-01-01T00:00:01.000Z</time></trkpt>
			<trkpt lat="52.424152" lon="38.833290"><time>1970-01-01T00:00:01.000Z</time></trkpt>
			<trkpt lat="52.424126" lon="38.834031"><time>1970-01-01T00:00:01.000Z</time></trkpt>
			<trkpt lat="52.425271" lon="38.838429"><time>1970-01-01T00:00:01.000Z</time></trkpt>
			<trkpt lat="52.425493" lon="38.838805"><time>1970-01-01T00:00:01.000Z</time></trkpt>
			<trkpt lat="52.425775" lon="38.839685"><time>1970-01-01T00:00:01.000Z</time></trkpt>
			<trkpt lat="52.421489" lon="38.844910"><time>1970-01-01T00:00:01.000Z</time></trkpt>
			<trkpt lat="52.419716" lon="38.847034"><time>1970-01-01T00:00:01.000Z</time></trkpt>
			<trkpt lat="52.418950" lon="38.848139"><time>1970-01-01T00:00:01.000Z</time></trkpt>
			<trkpt lat="52.418532" lon="38.848901"><time>1970-01-01T00:00:01.000Z</time></trkpt>
			<trkpt lat="52.418159" lon="38.849802"><time>1970-01-01T00:00:01.000Z</time></trkpt>
			<trkpt lat="52.417779" lon="38.850993"><time>1970-01-01T00:00:01.000Z</time></trkpt>
			<trkpt lat="52.416817" lon="38.855413"><time>1970-01-01T00:00:01.000Z</time></trkpt>
			<trkpt lat="52.414978" lon="38.863814"><time>1970-01-01T00:00:01.000Z</time></trkpt>
			<trkpt lat="52.413277" lon="38.871496"><time>1970-01-01T00:00:01.000Z</time></trkpt>
			<trkpt lat="52.412871" lon="38.873127"><time>1970-01-01T00:00:01.000Z</time></trkpt>
			<trkpt lat="52.412649" lon="38.874178"><time>1970-01-01T00:00:01.000Z</time></trkpt>
			<trkpt lat="52.412498" lon="38.874779"><time>1970-01-01T00:00:01.000Z</time></trkpt>
			<trkpt lat="52.412407" lon="38.875262"><time>1970-01-01T00:00:01.000Z</time></trkpt>
			<trkpt lat="52.412623" lon="38.876313"><time>1970-01-01T00:00:01.000Z</time></trkpt>
			<trkpt lat="52.413958" lon="38.876796"><time>1970-01-01T00:00:01.000Z</time></trkpt>
			<trkpt lat="52.414893" lon="38.876978"><time>1970-01-01T00:00:01.000Z</time></trkpt>
			<trkpt lat="52.415410" lon="38.876882"><time>1970-01-01T00:00:01.000Z</time></trkpt>
			<trkpt lat="52.415829" lon="38.876592"><time>1970-01-01T00:00:01.000Z</time></trkpt>
			<trkpt lat="52.416412" lon="38.875937"><time>1970-01-01T00:00:01.000Z</time></trkpt>
			<trkpt lat="52.416641" lon="38.875852"><time>1970-01-01T00:00:01.000Z</time></trkpt>
			<trkpt lat="52.419906" lon="38.877633"><time>1970-01-01T00:00:01.000Z</time></trkpt>
			<trkpt lat="52.423825" lon="38.879746"><time>1970-01-01T00:00:01.000Z</time></trkpt>
			<trkpt lat="52.424178" lon="38.880165"><time>1970-01-01T00:00:01.000Z</time></trkpt>
			<trkpt lat="52.425546" lon="38.881602"><time>1970-01-01T00:00:01.000Z</time></trkpt>
			<trkpt lat="52.428477" lon="38.884424"><time>1970-01-01T00:00:01.000Z</time></trkpt>
			<trkpt lat="52.428817" lon="38.884757"><time>1970-01-01T00:00:01.000Z</time></trkpt>
			<trkpt lat="52.428862" lon="38.885089"><time>1970-01-01T00:00:01.000Z</time></trkpt>
			<trkpt lat="52.429111" lon="38.885518"><time>1970-01-01T00:00:01.000Z</time></trkpt>
			<trkpt lat="52.429903" lon="38.886774"><time>1970-01-01T00:00:01.000Z</time></trkpt>
			<trkpt lat="52.430583" lon="38.887632"><time>1970-01-01T00:00:01.000Z</time></trkpt>
			<trkpt lat="52.431087" lon="38.888576"><time>1970-01-01T00:00:01.000Z</time></trkpt>
			<trkpt lat="52.431178" lon="38.888952"><time>1970-01-01T00:00:01.000Z</time></trkpt>
			<trkpt lat="52.431152" lon="38.889542"><time>1970-01-01T00:00:01.000Z</time></trkpt>
			<trkpt lat="52.431178" lon="38.890142"><time>1970-01-01T00:00:01.000Z</time></trkpt>
			<trkpt lat="52.431165" lon="38.891344"><time>1970-01-01T00:00:01.000Z</time></trkpt>
			<trkpt lat="52.431231" lon="38.892245"><time>1970-01-01T00:00:01.000Z</time></trkpt>
			<trkpt lat="52.431191" lon="38.893007"><time>1970-01-01T00:00:01.000Z</time></trkpt>
			<trkpt lat="52.431322" lon="38.893436"><time>1970-01-01T00:00:01.000Z</time></trkpt>
			<trkpt lat="52.431662" lon="38.893940"><time>1970-01-01T00:00:01.000Z</time></trkpt>
			<trkpt lat="52.433487" lon="38.894134"><time>1970-01-01T00:00:01.000Z</time></trkpt>
			<trkpt lat="52.435378" lon="38.894209"><time>1970-01-01T00:00:01.000Z</time></trkpt>
			<trkpt lat="52.435901" lon="38.894123"><time>1970-01-01T00:00:01.000Z</time></trkpt>
			<trkpt lat="52.436535" lon="38.894219"><time>1970-01-01T00:00:01.000Z</time></trkpt>
			<trkpt lat="52.437170" lon="38.894370"><time>1970-01-01T00:00:01.000Z</time></trkpt>
			<trkpt lat="52.440290" lon="38.894691"><time>1970-01-01T00:00:01.000Z</time></trkpt>
			<trkpt lat="52.441271" lon="38.894745"><time>1970-01-01T00:00:01.000Z</time></trkpt>
			<trkpt lat="52.441722" lon="38.894842"><time>1970-01-01T00:00:01.000Z</time></trkpt>
			<trkpt lat="52.445031" lon="38.895915"><time>1970-01-01T00:00:01.000Z</time></trkpt>
			<trkpt lat="52.447889" lon="38.896773"><time>1970-01-01T00:00:01.000Z</time></trkpt>
			<trkpt lat="52.452597" lon="38.898414"><time>1970-01-01T00:00:01.000Z</time></trkpt>
			<trkpt lat="52.457833" lon="38.899873"><time>1970-01-01T00:00:01.000Z</time></trkpt>
			<trkpt lat="52.458611" lon="38.900120"><time>1970-01-01T00:00:01.000Z</time></trkpt>
			<trkpt lat="52.459690" lon="38.900431"><time>1970-01-01T00:00:01.000Z</time></trkpt>
			<trkpt lat="52.460448" lon="38.900571"><time>1970-01-01T00:00:01.000Z</time></trkpt>
			<trkpt lat="52.460893" lon="38.900228"><time>1970-01-01T00:00:01.000Z</time></trkpt>
			<trkpt lat="52.460945" lon="38.899155"><time>1970-01-01T00:00:01.000Z</time></trkpt>
			<trkpt lat="52.461017" lon="38.898039"><time>1970-01-01T00:00:01.000Z</time></trkpt>
			<trkpt lat="52.461331" lon="38.895067"><time>1970-01-01T00:00:01.000Z</time></trkpt>
			<trkpt lat="52.461527" lon="38.892771"><time>1970-01-01T00:00:01.000Z</time></trkpt>
			<trkpt lat="52.461717" lon="38.890990"><time>1970-01-01T00:00:01.000Z</time></trkpt>
			<trkpt lat="52.461756" lon="38.889188"><time>1970-01-01T00:00:01.000Z</time></trkpt>
			<trkpt lat="52.461671" lon="38.887868"><time>1970-01-01T00:00:01.000Z</time></trkpt>
			<trkpt lat="52.461507" lon="38.887246"><time>1970-01-01T00:00:01.000Z</time></trkpt>
			<trkpt lat="52.461305" lon="38.885990"><time>1970-01-01T00:00:01.000Z</time></trkpt>
			<trkpt lat="52.461141" lon="38.885132"><time>1970-01-01T00:00:01.000Z</time></trkpt>
			<trkpt lat="52.460631" lon="38.883995"><time>1970-01-01T00:00:01.000Z</time></trkpt>
			<trkpt lat="52.459429" lon="38.882235"><time>1970-01-01T00:00:01.000Z</time></trkpt>
			<trkpt lat="52.459004" lon="38.881592"><time>1970-01-01T00:00:01.000Z</time></trkpt>
			<trkpt lat="52.458853" lon="38.881173"><time>1970-01-01T00:00:01.000Z</time></trkpt>
			<trkpt lat="52.459010" lon="38.880926"><time>1970-01-01T00:00:01.000Z</time></trkpt>
			<trkpt lat="52.460056" lon="38.880508"><time>1970-01-01T00:00:01.000Z</time></trkpt>
			<trkpt lat="52.461383" lon="38.880036"><time>1970-01-01T00:00:01.000Z</time></trkpt>
			<trkpt lat="52.462351" lon="38.879918"><time>1970-01-01T00:00:01.000Z</time></trkpt>
			<trkpt lat="52.462952" lon="38.879907"><time>1970-01-01T00:00:01.000Z</time></trkpt>
			<trkpt lat="52.463272" lon="38.879811"><time>1970-01-01T00:00:01.000Z</time></trkpt>
			<trkpt lat="52.463462" lon="38.880358"><time>1970-01-01T00:00:01.000Z</time></trkpt>
			<trkpt lat="52.464201" lon="38.881173"><time>1970-01-01T00:00:01.000Z</time></trkpt>
			<trkpt lat="52.465410" lon="38.882729"><time>1970-01-01T00:00:01.000Z</time></trkpt>
			<trkpt lat="52.466161" lon="38.883737"><time>1970-01-01T00:00:01.000Z</time></trkpt>
			<trkpt lat="52.466436" lon="38.884242"><time>1970-01-01T00:00:01.000Z</time></trkpt>
			<trkpt lat="52.466482" lon="38.884606"><time>1970-01-01T00:00:01.000Z</time></trkpt>
			<trkpt lat="52.466279" lon="38.885894"><time>1970-01-01T00:00:01.000Z</time></trkpt>
			<trkpt lat="52.465782" lon="38.887868"><time>1970-01-01T00:00:01.000Z</time></trkpt>
			<trkpt lat="52.465625" lon="38.888555"><time>1970-01-01T00:00:01.000Z</time></trkpt>
			<trkpt lat="52.465527" lon="38.889166"><time>1970-01-01T00:00:01.000Z</time></trkpt>
			<trkpt lat="52.465606" lon="38.889467"><time>1970-01-01T00:00:01.000Z</time></trkpt>
			<trkpt lat="52.465952" lon="38.889885"><time>1970-01-01T00:00:01.000Z</time></trkpt>
			<trkpt lat="52.468547" lon="38.892460"><time>1970-01-01T00:00:01.000Z</time></trkpt>
			<trkpt lat="52.468815" lon="38.892825"><time>1970-01-01T00:00:01.000Z</time></trkpt>
			<trkpt lat="52.469345" lon="38.893833"><time>1970-01-01T00:00:01.000Z</time></trkpt>
			<trkpt lat="52.469848" lon="38.894638"><time>1970-01-01T00:00:01.000Z</time></trkpt>
			<trkpt lat="52.470933" lon="38.896097"><time>1970-01-01T00:00:01.000Z</time></trkpt>
			<trkpt lat="52.471998" lon="38.897138"><time>1970-01-01T00:00:01.000Z</time></trkpt>
			<trkpt lat="52.472514" lon="38.897331"><time>1970-01-01T00:00:01.000Z</time></trkpt>
			<trkpt lat="52.472795" lon="38.897535"><time>1970-01-01T00:00:01.000Z</time></trkpt>
			<trkpt lat="52.473887" lon="38.898586"><time>1970-01-01T00:00:01.000Z</time></trkpt>
			<trkpt lat="52.476200" lon="38.900796"><time>1970-01-01T00:00:01.000Z</time></trkpt>
			<trkpt lat="52.478422" lon="38.902845"><time>1970-01-01T00:00:01.000Z</time></trkpt>
			<trkpt lat="52.480650" lon="38.904916"><time>1970-01-01T00:00:01.000Z</time></trkpt>
			<trkpt lat="52.484629" lon="38.908628"><time>1970-01-01T00:00:01.000Z</time></trkpt>
			<trkpt lat="52.485531" lon="38.909250"><time>1970-01-01T00:00:01.000Z</time></trkpt>
			<trkpt lat="52.486805" lon="38.909808"><time>1970-01-01T00:00:01.000Z</time></trkpt>
			<trkpt lat="52.494239" lon="38.911643"><time>1970-01-01T00:00:01.000Z</time></trkpt>
			<trkpt lat="52.498511" lon="38.912759"><time>1970-01-01T00:00:01.000Z</time></trkpt>
			<trkpt lat="52.502247" lon="38.913424"><time>1970-01-01T00:00:01.000Z</time></trkpt>
			<trkpt lat="52.505591" lon="38.913896"><time>1970-01-01T00:00:01.000Z</time></trkpt>
			<trkpt lat="52.505969" lon="38.913703"><time>1970-01-01T00:00:01.000Z</time></trkpt>
			<trkpt lat="52.507902" lon="38.912094"><time>1970-01-01T00:00:01.000Z</time></trkpt>
			<trkpt lat="52.508294" lon="38.911643"><time>1970-01-01T00:00:01.000Z</time></trkpt>
			<trkpt lat="52.509953" lon="38.907051"><time>1970-01-01T00:00:01.000Z</time></trkpt>
			<trkpt lat="52.511167" lon="38.902524"><time>1970-01-01T00:00:01.000Z</time></trkpt>
			<trkpt lat="52.511663" lon="38.902202"><time>1970-01-01T00:00:01.000Z</time></trkpt>
			<trkpt lat="52.515268" lon="38.899906"><time>1970-01-01T00:00:01.000Z</time></trkpt>
			<trkpt lat="52.515725" lon="38.899541"><time>1970-01-01T00:00:01.000Z</time></trkpt>
			<trkpt lat="52.517265" lon="38.897824"><time>1970-01-01T00:00:01.000Z</time></trkpt>
			<trkpt lat="52.522462" lon="38.894498"><time>1970-01-01T00:00:01.000Z</time></trkpt>
			<trkpt lat="52.524590" lon="38.893490"><time>1970-01-01T00:00:01.000Z</time></trkpt>
			<trkpt lat="52.528715" lon="38.893726"><time>1970-01-01T00:00:01.000Z</time></trkpt>
			<trkpt lat="52.529799" lon="38.893747"><time>1970-01-01T00:00:01.000Z</time></trkpt>
			<trkpt lat="52.531692" lon="38.891795"><time>1970-01-01T00:00:01.000Z</time></trkpt>
			<trkpt lat="52.532031" lon="38.891258"><time>1970-01-01T00:00:01.000Z</time></trkpt>
			<trkpt lat="52.532188" lon="38.891323"><time>1970-01-01T00:00:01.000Z</time></trkpt>
			<trkpt lat="52.532540" lon="38.891129"><time>1970-01-01T00:00:01.000Z</time></trkpt>
			<trkpt lat="52.533023" lon="38.891355"><time>1970-01-01T00:00:01.000Z</time></trkpt>
			<trkpt lat="52.533826" lon="38.891999"><time>1970-01-01T00:00:01.000Z</time></trkpt>
			<trkpt lat="52.534263" lon="38.891934"><time>1970-01-01T00:00:01.000Z</time></trkpt>
			<trkpt lat="52.535131" lon="38.891709"><time>1970-01-01T00:00:01.000Z</time></trkpt>
			<trkpt lat="52.535679" lon="38.891634"><time>1970-01-01T00:00:01.000Z</time></trkpt>
			<trkpt lat="52.536019" lon="38.891612"><time>1970-01-01T00:00:01.000Z</time></trkpt>
			<trkpt lat="52.536652" lon="38.891666"><time>1970-01-01T00:00:01.000Z</time></trkpt>
			<trkpt lat="52.537134" lon="38.891784"><time>1970-01-01T00:00:01.000Z</time></trkpt>
			<trkpt lat="52.537702" lon="38.891709"><time>1970-01-01T00:00:01.000Z</time></trkpt>
			<trkpt lat="52.538192" lon="38.891784"><time>1970-01-01T00:00:01.000Z</time></trkpt>
			<trkpt lat="52.539033" lon="38.891441"><time>1970-01-01T00:00:01.000Z</time></trkpt>
			<trkpt lat="52.540156" lon="38.891301"><time>1970-01-01T00:00:01.000Z</time></trkpt>
			<trkpt lat="52.540534" lon="38.891044"><time>1970-01-01T00:00:01.000Z</time></trkpt>
			<trkpt lat="52.540984" lon="38.889209"><time>1970-01-01T00:00:01.000Z</time></trkpt>
			<trkpt lat="52.541252" lon="38.888619"><time>1970-01-01T00:00:01.000Z</time></trkpt>
			<trkpt lat="52.541741" lon="38.888222"><time>1970-01-01T00:00:01.000Z</time></trkpt>
			<trkpt lat="52.542048" lon="38.887922"><time>1970-01-01T00:00:01.000Z</time></trkpt>
			<trkpt lat="52.542100" lon="38.887235"><time>1970-01-01T00:00:01.000Z</time></trkpt>
			<trkpt lat="52.541422" lon="38.881731"><time>1970-01-01T00:00:01.000Z</time></trkpt>
			<trkpt lat="52.541507" lon="38.881184"><time>1970-01-01T00:00:01.000Z</time></trkpt>
			<trkpt lat="52.542335" lon="38.880014"><time>1970-01-01T00:00:01.000Z</time></trkpt>
			<trkpt lat="52.543360" lon="38.878126"><time>1970-01-01T00:00:01.000Z</time></trkpt>
			<trkpt lat="52.543797" lon="38.877493"><time>1970-01-01T00:00:01.000Z</time></trkpt>
			<trkpt lat="52.544195" lon="38.877171"><time>1970-01-01T00:00:01.000Z</time></trkpt>
			<trkpt lat="52.544586" lon="38.877225"><time>1970-01-01T00:00:01.000Z</time></trkpt>
			<trkpt lat="52.545160" lon="38.877643"><time>1970-01-01T00:00:01.000Z</time></trkpt>
			<trkpt lat="52.545545" lon="38.877676"><time>1970-01-01T00:00:01.000Z</time></trkpt>
			<trkpt lat="52.546759" lon="38.877611"><time>1970-01-01T00:00:01.000Z</time></trkpt>
			<trkpt lat="52.547385" lon="38.877815"><time>1970-01-01T00:00:01.000Z</time></trkpt>
			<trkpt lat="52.548879" lon="38.878523"><time>1970-01-01T00:00:01.000Z</time></trkpt>
			<trkpt lat="52.549590" lon="38.878706"><time>1970-01-01T00:00:01.000Z</time></trkpt>
			<trkpt lat="52.552141" lon="38.879800"><time>1970-01-01T00:00:01.000Z</time></trkpt>
			<trkpt lat="52.555833" lon="38.881323"><time>1970-01-01T00:00:01.000Z</time></trkpt>
			<trkpt lat="52.558521" lon="38.882418"><time>1970-01-01T00:00:01.000Z</time></trkpt>
			<trkpt lat="52.566778" lon="38.885658"><time>1970-01-01T00:00:01.000Z</time></trkpt>
			<trkpt lat="52.567025" lon="38.886065"><time>1970-01-01T00:00:01.000Z</time></trkpt>
			<trkpt lat="52.567025" lon="38.886881"><time>1970-01-01T00:00:01.000Z</time></trkpt>
			<trkpt lat="52.566360" lon="38.888791"><time>1970-01-01T00:00:01.000Z</time></trkpt>
			<trkpt lat="52.565786" lon="38.890615"><time>1970-01-01T00:00:01.000Z</time></trkpt>
			<trkpt lat="52.565643" lon="38.891838"><time>1970-01-01T00:00:01.000Z</time></trkpt>
			<trkpt lat="52.565682" lon="38.892717"><time>1970-01-01T00:00:01.000Z</time></trkpt>
			<trkpt lat="52.565904" lon="38.893769"><time>1970-01-01T00:00:01.000Z</time></trkpt>
			<trkpt lat="52.566047" lon="38.894584"><time>1970-01-01T00:00:01.000Z</time></trkpt>
			<trkpt lat="52.566543" lon="38.894820"><time>1970-01-01T00:00:01.000Z</time></trkpt>
			<trkpt lat="52.568004" lon="38.894863"><time>1970-01-01T00:00:01.000Z</time></trkpt>
			<trkpt lat="52.569895" lon="38.895421"><time>1970-01-01T00:00:01.000Z</time></trkpt>
			<trkpt lat="52.576885" lon="38.898640"><time>1970-01-01T00:00:01.000Z</time></trkpt>
			<trkpt lat="52.578801" lon="38.899477"><time>1970-01-01T00:00:01.000Z</time></trkpt>
			<trkpt lat="52.581266" lon="38.900828"><time>1970-01-01T00:00:01.000Z</time></trkpt>
			<trkpt lat="52.582126" lon="38.900614"><time>1970-01-01T00:00:01.000Z</time></trkpt>
			<trkpt lat="52.582609" lon="38.901021"><time>1970-01-01T00:00:01.000Z</time></trkpt>
			<trkpt lat="52.592151" lon="38.901536"><time>1970-01-01T00:00:01.000Z</time></trkpt>
			<trkpt lat="52.594889" lon="38.901515"><time>1970-01-01T00:00:01.000Z</time></trkpt>
			<trkpt lat="52.595061" lon="38.901477"><time>1970-01-01T00:00:01.000Z</time></trkpt>
			<trkpt lat="52.595710" lon="38.901215"><time>1970-01-01T00:00:01.000Z</time></trkpt>
			<trkpt lat="52.596622" lon="38.900914"><time>1970-01-01T00:00:01.000Z</time></trkpt>
			<trkpt lat="52.597078" lon="38.901000"><time>1970-01-01T00:00:01.000Z</time></trkpt>
			<trkpt lat="52.599451" lon="38.901687"><time>1970-01-01T00:00:01.000Z</time></trkpt>
			<trkpt lat="52.600154" lon="38.901880"><time>1970-01-01T00:00:01.000Z</time></trkpt>
			<trkpt lat="52.601171" lon="38.901687"><time>1970-01-01T00:00:01.000Z</time></trkpt>
			<trkpt lat="52.603048" lon="38.901665"><time>1970-01-01T00:00:01.000Z</time></trkpt>
			<trkpt lat="52.603243" lon="38.901687"><time>1970-01-01T00:00:01.000Z</time></trkpt>
			<trkpt lat="52.603308" lon="38.902137"><time>1970-01-01T00:00:01.000Z</time></trkpt>
			<trkpt lat="52.603452" lon="38.902588"><time>1970-01-01T00:00:01.000Z</time></trkpt>
			<trkpt lat="52.603595" lon="38.903618"><time>1970-01-01T00:00:01.000Z</time></trkpt>
			<trkpt lat="52.603751" lon="38.905656"><time>1970-01-01T00:00:01.000Z</time></trkpt>
			<trkpt lat="52.603686" lon="38.906837"><time>1970-01-01T00:00:01.000Z</time></trkpt>
			<trkpt lat="52.603829" lon="38.908381"><time>1970-01-01T00:00:01.000Z</time></trkpt>
			<trkpt lat="52.603908" lon="38.909454"><time>1970-01-01T00:00:01.000Z</time></trkpt>
			<trkpt lat="52.603999" lon="38.909755"><time>1970-01-01T00:00:01.000Z</time></trkpt>
			<trkpt lat="52.604168" lon="38.910484"><time>1970-01-01T00:00:01.000Z</time></trkpt>
			<trkpt lat="52.604377" lon="38.911085"><time>1970-01-01T00:00:01.000Z</time></trkpt>
			<trkpt lat="52.604520" lon="38.912330"><time>1970-01-01T00:00:01.000Z</time></trkpt>
			<trkpt lat="52.604390" lon="38.913531"><time>1970-01-01T00:00:01.000Z</time></trkpt>
			<trkpt lat="52.604351" lon="38.914561"><time>1970-01-01T00:00:01.000Z</time></trkpt>
			<trkpt lat="52.604546" lon="38.915570"><time>1970-01-01T00:00:01.000Z</time></trkpt>
			<trkpt lat="52.605054" lon="38.915977"><time>1970-01-01T00:00:01.000Z</time></trkpt>
			<trkpt lat="52.604576" lon="38.915548"><time>1970-01-01T00:00:01.000Z</time></trkpt>
			<trkpt lat="52.604393" lon="38.914615"><time>1970-01-01T00:00:01.000Z</time></trkpt>
			<trkpt lat="52.604409" lon="38.913612"><time>1970-01-01T00:00:01.000Z</time></trkpt>
			<trkpt lat="52.604488" lon="38.912281"><time>1970-01-01T00:00:01.000Z</time></trkpt>
			<trkpt lat="52.604432" lon="38.911348"><time>1970-01-01T00:00:01.000Z</time></trkpt>
			<trkpt lat="52.604331" lon="38.910828"><time>1970-01-01T00:00:01.000Z</time></trkpt>
			<trkpt lat="52.603927" lon="38.909315"><time>1970-01-01T00:00:01.000Z</time></trkpt>
			<trkpt lat="52.603738" lon="38.907845"><time>1970-01-01T00:00:01.000Z</time></trkpt>
			<trkpt lat="52.603663" lon="38.907073"><time>1970-01-01T00:00:01.000Z</time></trkpt>
			<trkpt lat="52.603725" lon="38.905726"><time>1970-01-01T00:00:01.000Z</time></trkpt>
			<trkpt lat="52.603588" lon="38.903768"><time>1970-01-01T00:00:01.000Z</time></trkpt>
			<trkpt lat="52.603487" lon="38.902679"><time>1970-01-01T00:00:01.000Z</time></trkpt>
			<trkpt lat="52.603399" lon="38.902314"><time>1970-01-01T00:00:01.000Z</time></trkpt>
			<trkpt lat="52.603289" lon="38.901853"><time>1970-01-01T00:00:01.000Z</time></trkpt>
			<trkpt lat="52.603295" lon="38.901671"><time>1970-01-01T00:00:01.000Z</time></trkpt>
			<trkpt lat="52.600936" lon="38.901665"><time>1970-01-01T00:00:01.000Z</time></trkpt>
			<trkpt lat="52.600070" lon="38.901799"><time>1970-01-01T00:00:01.000Z</time></trkpt>
			<trkpt lat="52.599333" lon="38.901681"><time>1970-01-01T00:00:01.000Z</time></trkpt>
			<trkpt lat="52.596697" lon="38.900871"><time>1970-01-01T00:00:01.000Z</time></trkpt>
			<trkpt lat="52.595987" lon="38.901070"><time>1970-01-01T00:00:01.000Z</time></trkpt>
			<trkpt lat="52.595169" lon="38.901483"><time>1970-01-01T00:00:01.000Z</time></trkpt>
			<trkpt lat="52.593406" lon="38.901461"><time>1970-01-01T00:00:01.000Z</time></trkpt>
			<trkpt lat="52.590649" lon="38.901354"><time>1970-01-01T00:00:01.000Z</time></trkpt>
			<trkpt lat="52.582970" lon="38.900962"><time>1970-01-01T00:00:01.000Z</time></trkpt>
			<trkpt lat="52.582319" lon="38.900871"><time>1970-01-01T00:00:01.000Z</time></trkpt>
			<trkpt lat="52.582172" lon="38.901177"><time>1970-01-01T00:00:01.000Z</time></trkpt>
			<trkpt lat="52.579962" lon="38.910785"><time>1970-01-01T00:00:01.000Z</time></trkpt>
			<trkpt lat="52.578619" lon="38.916922"><time>1970-01-01T00:00:01.000Z</time></trkpt>
			<trkpt lat="52.577928" lon="38.920634"><time>1970-01-01T00:00:01.000Z</time></trkpt>
			<trkpt lat="52.577419" lon="38.924174"><time>1970-01-01T00:00:01.000Z</time></trkpt>
			<trkpt lat="52.577237" lon="38.928466"><time>1970-01-01T00:00:01.000Z</time></trkpt>
			<trkpt lat="52.577380" lon="38.931963"><time>1970-01-01T00:00:01.000Z</time></trkpt>
			<trkpt lat="52.577954" lon="38.937457"><time>1970-01-01T00:00:01.000Z</time></trkpt>
			<trkpt lat="52.579649" lon="38.952541"><time>1970-01-01T00:00:01.000Z</time></trkpt>
			<trkpt lat="52.578071" lon="38.952734"><time>1970-01-01T00:00:01.000Z</time></trkpt>
			<trkpt lat="52.574185" lon="38.952606"><time>1970-01-01T00:00:01.000Z</time></trkpt>
			<trkpt lat="52.569660" lon="38.952048"><time>1970-01-01T00:00:01.000Z</time></trkpt>
			<trkpt lat="52.568512" lon="38.952005"><time>1970-01-01T00:00:01.000Z</time></trkpt>
			<trkpt lat="52.565447" lon="38.952692"><time>1970-01-01T00:00:01.000Z</time></trkpt>
			<trkpt lat="52.562760" lon="38.952949"><time>1970-01-01T00:00:01.000Z</time></trkpt>
			<trkpt lat="52.558586" lon="38.952928"><time>1970-01-01T00:00:01.000Z</time></trkpt>
			<trkpt lat="52.552859" lon="38.954108"><time>1970-01-01T00:00:01.000Z</time></trkpt>
			<trkpt lat="52.552246" lon="38.954430"><time>1970-01-01T00:00:01.000Z</time></trkpt>
			<trkpt lat="52.549780" lon="38.956661"><time>1970-01-01T00:00:01.000Z</time></trkpt>
			<trkpt lat="52.549310" lon="38.956919"><time>1970-01-01T00:00:01.000Z</time></trkpt>
			<trkpt lat="52.547744" lon="38.956726"><time>1970-01-01T00:00:01.000Z</time></trkpt>
			<trkpt lat="52.541650" lon="38.953958"><time>1970-01-01T00:00:01.000Z</time></trkpt>
			<trkpt lat="52.540919" lon="38.953807"><time>1970-01-01T00:00:01.000Z</time></trkpt>
			<trkpt lat="52.535033" lon="38.953400"><time>1970-01-01T00:00:01.000Z</time></trkpt>
			<trkpt lat="52.532070" lon="38.953228"><time>1970-01-01T00:00:01.000Z</time></trkpt>
			<trkpt lat="52.520647" lon="38.953743"><time>1970-01-01T00:00:01.000Z</time></trkpt>
			<trkpt lat="52.518963" lon="38.953829"><time>1970-01-01T00:00:01.000Z</time></trkpt>
			<trkpt lat="52.514863" lon="38.954902"><time>1970-01-01T00:00:01.000Z</time></trkpt>
			<trkpt lat="52.509509" lon="38.957305"><time>1970-01-01T00:00:01.000Z</time></trkpt>
			<trkpt lat="52.506008" lon="38.958721"><time>1970-01-01T00:00:01.000Z</time></trkpt>
			<trkpt lat="52.503318" lon="38.958721"><time>1970-01-01T00:00:01.000Z</time></trkpt>
			<trkpt lat="52.500967" lon="38.958120"><time>1970-01-01T00:00:01.000Z</time></trkpt>
			<trkpt lat="52.494540" lon="38.955073"><time>1970-01-01T00:00:01.000Z</time></trkpt>
			<trkpt lat="52.490646" lon="38.953958"><time>1970-01-01T00:00:01.000Z</time></trkpt>
			<trkpt lat="52.489052" lon="38.954129"><time>1970-01-01T00:00:01.000Z</time></trkpt>
			<trkpt lat="52.483956" lon="38.956189"><time>1970-01-01T00:00:01.000Z</time></trkpt>
			<trkpt lat="52.482989" lon="38.957562"><time>1970-01-01T00:00:01.000Z</time></trkpt>
			<trkpt lat="52.482231" lon="38.959236"><time>1970-01-01T00:00:01.000Z</time></trkpt>
			<trkpt lat="52.481735" lon="38.961167"><time>1970-01-01T00:00:01.000Z</time></trkpt>
			<trkpt lat="52.481369" lon="38.964643"><time>1970-01-01T00:00:01.000Z</time></trkpt>
			<trkpt lat="52.471724" lon="38.976660"><time>1970-01-01T00:00:01.000Z</time></trkpt>
			<trkpt lat="52.470207" lon="38.977990"><time>1970-01-01T00:00:01.000Z</time></trkpt>
			<trkpt lat="52.469580" lon="38.978333"><time>1970-01-01T00:00:01.000Z</time></trkpt>
			<trkpt lat="52.468979" lon="38.978076"><time>1970-01-01T00:00:01.000Z</time></trkpt>
			<trkpt lat="52.461762" lon="38.971725"><time>1970-01-01T00:00:01.000Z</time></trkpt>
			<trkpt lat="52.456009" lon="38.972282"><time>1970-01-01T00:00:01.000Z</time></trkpt>
			<trkpt lat="52.452819" lon="38.972840"><time>1970-01-01T00:00:01.000Z</time></trkpt>
			<trkpt lat="52.448608" lon="38.972111"><time>1970-01-01T00:00:01.000Z</time></trkpt>
			<trkpt lat="52.442618" lon="38.971510"><time>1970-01-01T00:00:01.000Z</time></trkpt>
			<trkpt lat="52.441650" lon="38.970995"><time>1970-01-01T00:00:01.000Z</time></trkpt>
			<trkpt lat="52.440787" lon="38.970265"><time>1970-01-01T00:00:01.000Z</time></trkpt>
			<trkpt lat="52.439348" lon="38.969707"><time>1970-01-01T00:00:01.000Z</time></trkpt>
			<trkpt lat="52.436444" lon="38.967733"><time>1970-01-01T00:00:01.000Z</time></trkpt>
			<trkpt lat="52.425977" lon="38.953700"><time>1970-01-01T00:00:01.000Z</time></trkpt>
			<trkpt lat="52.423779" lon="38.950481"><time>1970-01-01T00:00:01.000Z</time></trkpt>
			<trkpt lat="52.418833" lon="38.937693"><time>1970-01-01T00:00:01.000Z</time></trkpt>
			<trkpt lat="52.416896" lon="38.928380"><time>1970-01-01T00:00:01.000Z</time></trkpt>
			<trkpt lat="52.416503" lon="38.926148"><time>1970-01-01T00:00:01.000Z</time></trkpt>
			<trkpt lat="52.415482" lon="38.924689"><time>1970-01-01T00:00:01.000Z</time></trkpt>
			<trkpt lat="52.414357" lon="38.924131"><time>1970-01-01T00:00:01.000Z</time></trkpt>
			<trkpt lat="52.399231" lon="38.918799"><time>1970-01-01T00:00:01.000Z</time></trkpt>
			<trkpt lat="52.398357" lon="38.918434"><time>1970-01-01T00:00:01.000Z</time></trkpt>
			<trkpt lat="52.396881" lon="38.917817"><time>1970-01-01T00:00:01.000Z</time></trkpt>
			<trkpt lat="52.393365" lon="38.916417"><time>1970-01-01T00:00:01.000Z</time></trkpt>
			<trkpt lat="52.392818" lon="38.920103"><time>1970-01-01T00:00:01.000Z</time></trkpt>
			<trkpt lat="52.392550" lon="38.921776"><time>1970-01-01T00:00:01.000Z</time></trkpt>
			<trkpt lat="52.391751" lon="38.921503"><time>1970-01-01T00:00:01.000Z</time></trkpt>
			<trkpt lat="52.390717" lon="38.921095"><time>1970-01-01T00:00:01.000Z</time></trkpt>
			<trkpt lat="52.389535" lon="38.920559"><time>1970-01-01T00:00:01.000Z</time></trkpt>
			<trkpt lat="52.387754" lon="38.919834"><time>1970-01-01T00:00:01.000Z</time></trkpt>
			<trkpt lat="52.387518" lon="38.921412"><time>1970-01-01T00:00:01.000Z</time></trkpt>
			<trkpt lat="52.385514" lon="38.920607"><time>1970-01-01T00:00:01.000Z</time></trkpt>
			<trkpt lat="52.385786" lon="38.919142"><time>1970-01-01T00:00:01.000Z</time></trkpt>
			<trkpt lat="52.383913" lon="38.918311"><time>1970-01-01T00:00:01.000Z</time></trkpt>
			<trkpt lat="52.381156" lon="38.917158"><time>1970-01-01T00:00:01.000Z</time></trkpt>
			<trkpt lat="52.379987" lon="38.916707"><time>1970-01-01T00:00:01.000Z</time></trkpt>
			<trkpt lat="52.379188" lon="38.916750"><time>1970-01-01T00:00:01.000Z</time></trkpt>
			<trkpt lat="52.378140" lon="38.916986"><time>1970-01-01T00:00:01.000Z</time></trkpt>
			<trkpt lat="52.376791" lon="38.917844"><time>1970-01-01T00:00:01.000Z</time></trkpt>
			<trkpt lat="52.375350" lon="38.918338"><time>1970-01-01T00:00:01.000Z</time></trkpt>
			<trkpt lat="52.374198" lon="38.918359"><time>1970-01-01T00:00:01.000Z</time></trkpt>
			<trkpt lat="52.373778" lon="38.917994"><time>1970-01-01T00:00:01.000Z</time></trkpt>
			<trkpt lat="52.373556" lon="38.918037"><time>1970-01-01T00:00:01.000Z</time></trkpt>
			<trkpt lat="52.373372" lon="38.918252"><time>1970-01-01T00:00:01.000Z</time></trkpt>
			<trkpt lat="52.372874" lon="38.918381"><time>1970-01-01T00:00:01.000Z</time></trkpt>
			<trkpt lat="52.371866" lon="38.918231"><time>1970-01-01T00:00:01.000Z</time></trkpt>
			<trkpt lat="52.369665" lon="38.917630"><time>1970-01-01T00:00:01.000Z</time></trkpt>
			<trkpt lat="52.367241" lon="38.917136"><time>1970-01-01T00:00:01.000Z</time></trkpt>
			<trkpt lat="52.366953" lon="38.916857"><time>1970-01-01T00:00:01.000Z</time></trkpt>
			<trkpt lat="52.366730" lon="38.916728"><time>1970-01-01T00:00:01.000Z</time></trkpt>
			<trkpt lat="52.366442" lon="38.916857"><time>1970-01-01T00:00:01.000Z</time></trkpt>
			<trkpt lat="52.365498" lon="38.916600"><time>1970-01-01T00:00:01.000Z</time></trkpt>
			<trkpt lat="52.363651" lon="38.915849"><time>1970-01-01T00:00:01.000Z</time></trkpt>
			<trkpt lat="52.362563" lon="38.915484"><time>1970-01-01T00:00:01.000Z</time></trkpt>
			<trkpt lat="52.361790" lon="38.915269"><time>1970-01-01T00:00:01.000Z</time></trkpt>
			<trkpt lat="52.361214" lon="38.914969"><time>1970-01-01T00:00:01.000Z</time></trkpt>
			<trkpt lat="52.359680" lon="38.913617"><time>1970-01-01T00:00:01.000Z</time></trkpt>
			<trkpt lat="52.358553" lon="38.912930"><time>1970-01-01T00:00:01.000Z</time></trkpt>
			<trkpt lat="52.356745" lon="38.911815"><time>1970-01-01T00:00:01.000Z</time></trkpt>
			<trkpt lat="52.355736" lon="38.911579"><time>1970-01-01T00:00:01.000Z</time></trkpt>
			<trkpt lat="52.354727" lon="38.911257"><time>1970-01-01T00:00:01.000Z</time></trkpt>
			<trkpt lat="52.353744" lon="38.911064"><time>1970-01-01T00:00:01.000Z</time></trkpt>
			<trkpt lat="52.353206" lon="38.911257"><time>1970-01-01T00:00:01.000Z</time></trkpt>
			<trkpt lat="52.352079" lon="38.912351"><time>1970-01-01T00:00:01.000Z</time></trkpt>
			<trkpt lat="52.351450" lon="38.912566"><time>1970-01-01T00:00:01.000Z</time></trkpt>
			<trkpt lat="52.351162" lon="38.912566"><time>1970-01-01T00:00:01.000Z</time></trkpt>
			<trkpt lat="52.349943" lon="38.914390"><time>1970-01-01T00:00:01.000Z</time></trkpt>
			<trkpt lat="52.349720" lon="38.915784"><time>1970-01-01T00:00:01.000Z</time></trkpt>
			<trkpt lat="52.349471" lon="38.916793"><time>1970-01-01T00:00:01.000Z</time></trkpt>
			<trkpt lat="52.348829" lon="38.917544"><time>1970-01-01T00:00:01.000Z</time></trkpt>
			<trkpt lat="52.348108" lon="38.917694"><time>1970-01-01T00:00:01.000Z</time></trkpt>
			<trkpt lat="52.347505" lon="38.917844"><time>1970-01-01T00:00:01.000Z</time></trkpt>
			<trkpt lat="52.346574" lon="38.917630"><time>1970-01-01T00:00:01.000Z</time></trkpt>
			<trkpt lat="52.346286" lon="38.917737"><time>1970-01-01T00:00:01.000Z</time></trkpt>
			<trkpt lat="52.345408" lon="38.918531"><time>1970-01-01T00:00:01.000Z</time></trkpt>
			<trkpt lat="52.344097" lon="38.920076"><time>1970-01-01T00:00:01.000Z</time></trkpt>
			<trkpt lat="52.343218" lon="38.920333"><time>1970-01-01T00:00:01.000Z</time></trkpt>
			<trkpt lat="52.336585" lon="38.920527"><time>1970-01-01T00:00:01.000Z</time></trkpt>
			<trkpt lat="52.328206" lon="38.921406"><time>1970-01-01T00:00:01.000Z</time></trkpt>
			<trkpt lat="52.322042" lon="38.922544"><time>1970-01-01T00:00:01.000Z</time></trkpt>
			<trkpt lat="52.320993" lon="38.923059"><time>1970-01-01T00:00:01.000Z</time></trkpt>
			<trkpt lat="52.319957" lon="38.923295"><time>1970-01-01T00:00:01.000Z</time></trkpt>
			<trkpt lat="52.319537" lon="38.923295"><time>1970-01-01T00:00:01.000Z</time></trkpt>
			<trkpt lat="52.319406" lon="38.922243"><time>1970-01-01T00:00:01.000Z</time></trkpt>
			<trkpt lat="52.319366" lon="38.921256"><time>1970-01-01T00:00:01.000Z</time></trkpt>
			<trkpt lat="52.319012" lon="38.920677"><time>1970-01-01T00:00:01.000Z</time></trkpt>
			<trkpt lat="52.317858" lon="38.920226"><time>1970-01-01T00:00:01.000Z</time></trkpt>
			<trkpt lat="52.317150" lon="38.919775"><time>1970-01-01T00:00:01.000Z</time></trkpt>
			<trkpt lat="52.316704" lon="38.919582"><time>1970-01-01T00:00:01.000Z</time></trkpt>
			<trkpt lat="52.315733" lon="38.919775"><time>1970-01-01T00:00:01.000Z</time></trkpt>
			<trkpt lat="52.312427" lon="38.921020"><time>1970-01-01T00:00:01.000Z</time></trkpt>
			<trkpt lat="52.312021" lon="38.921556"><time>1970-01-01T00:00:01.000Z</time></trkpt>
			<trkpt lat="52.309410" lon="38.924754"><time>1970-01-01T00:00:01.000Z</time></trkpt>
			<trkpt lat="52.299583" lon="38.933573"><time>1970-01-01T00:00:01.000Z</time></trkpt>
			<trkpt lat="52.297851" lon="38.937993"><time>1970-01-01T00:00:01.000Z</time></trkpt>
			<trkpt lat="52.297129" lon="38.939559"><time>1970-01-01T00:00:01.000Z</time></trkpt>
			<trkpt lat="52.296919" lon="38.940783"><time>1970-01-01T00:00:01.000Z</time></trkpt>
			<trkpt lat="52.296656" lon="38.942134"><time>1970-01-01T00:00:01.000Z</time></trkpt>
			<trkpt lat="52.293743" lon="38.946748"><time>1970-01-01T00:00:01.000Z</time></trkpt>
			<trkpt lat="52.293074" lon="38.947842"><time>1970-01-01T00:00:01.000Z</time></trkpt>
			<trkpt lat="52.292523" lon="38.949044"><time>1970-01-01T00:00:01.000Z</time></trkpt>
			<trkpt lat="52.292116" lon="38.949816"><time>1970-01-01T00:00:01.000Z</time></trkpt>
			<trkpt lat="52.289543" lon="38.951104"><time>1970-01-01T00:00:01.000Z</time></trkpt>
			<trkpt lat="52.288651" lon="38.951254"><time>1970-01-01T00:00:01.000Z</time></trkpt>
			<trkpt lat="52.286905" lon="38.950610"><time>1970-01-01T00:00:01.000Z</time></trkpt>
			<trkpt lat="52.285080" lon="38.949645"><time>1970-01-01T00:00:01.000Z</time></trkpt>
			<trkpt lat="52.284017" lon="38.949065"><time>1970-01-01T00:00:01.000Z</time></trkpt>
			<trkpt lat="52.284017" lon="38.948228"><time>1970-01-01T00:00:01.000Z</time></trkpt>
			<trkpt lat="52.283873" lon="38.949001"><time>1970-01-01T00:00:01.000Z</time></trkpt>
			<trkpt lat="52.283111" lon="38.948550"><time>1970-01-01T00:00:01.000Z</time></trkpt>
			<trkpt lat="52.282324" lon="38.948379"><time>1970-01-01T00:00:01.000Z</time></trkpt>
			<trkpt lat="52.282114" lon="38.948786"><time>1970-01-01T00:00:01.000Z</time></trkpt>
			<trkpt lat="52.281878" lon="38.950031"><time>1970-01-01T00:00:01.000Z</time></trkpt>
			<trkpt lat="52.281799" lon="38.950953"><time>1970-01-01T00:00:01.000Z</time></trkpt>
			<trkpt lat="52.281582" lon="38.951313"><time>1970-01-01T00:00:01.000Z</time></trkpt>
			<trkpt lat="52.281159" lon="38.951474"><time>1970-01-01T00:00:01.000Z</time></trkpt>
			<trkpt lat="52.280932" lon="38.951420"><time>1970-01-01T00:00:01.000Z</time></trkpt>
			<trkpt lat="52.280539" lon="38.950980"><time>1970-01-01T00:00:01.000Z</time></trkpt>
			<trkpt lat="52.279370" lon="38.948599"><time>1970-01-01T00:00:01.000Z</time></trkpt>
			<trkpt lat="52.279150" lon="38.948094"><time>1970-01-01T00:00:01.000Z</time></trkpt>
			<trkpt lat="52.278399" lon="38.948336"><time>1970-01-01T00:00:01.000Z</time></trkpt>
			<trkpt lat="52.276587" lon="38.949494"><time>1970-01-01T00:00:01.000Z</time></trkpt>
			<trkpt lat="52.273856" lon="38.953056"><time>1970-01-01T00:00:01.000Z</time></trkpt>
			<trkpt lat="52.272596" lon="38.954644"><time>1970-01-01T00:00:01.000Z</time></trkpt>
			<trkpt lat="52.271887" lon="38.955030"><time>1970-01-01T00:00:01.000Z</time></trkpt>
			<trkpt lat="52.271532" lon="38.954558"><time>1970-01-01T00:00:01.000Z</time></trkpt>
			<trkpt lat="52.270990" lon="38.954381"><time>1970-01-01T00:00:01.000Z</time></trkpt>
			<trkpt lat="52.270268" lon="38.953990"><time>1970-01-01T00:00:01.000Z</time></trkpt>
			<trkpt lat="52.269887" lon="38.954102"><time>1970-01-01T00:00:01.000Z</time></trkpt>
			<trkpt lat="52.269681" lon="38.954215"><time>1970-01-01T00:00:01.000Z</time></trkpt>
			<trkpt lat="52.268669" lon="38.954430"><time>1970-01-01T00:00:01.000Z</time></trkpt>
			<trkpt lat="52.268144" lon="38.954902"><time>1970-01-01T00:00:01.000Z</time></trkpt>
			<trkpt lat="52.267317" lon="38.955460"><time>1970-01-01T00:00:01.000Z</time></trkpt>
			<trkpt lat="52.266752" lon="38.955674"><time>1970-01-01T00:00:01.000Z</time></trkpt>
			<trkpt lat="52.266227" lon="38.955760"><time>1970-01-01T00:00:01.000Z</time></trkpt>
			<trkpt lat="52.265767" lon="38.955224"><time>1970-01-01T00:00:01.000Z</time></trkpt>
			<trkpt lat="52.265163" lon="38.954751"><time>1970-01-01T00:00:01.000Z</time></trkpt>
			<trkpt lat="52.264717" lon="38.954666"><time>1970-01-01T00:00:01.000Z</time></trkpt>
			<trkpt lat="52.263929" lon="38.954837"><time>1970-01-01T00:00:01.000Z</time></trkpt>
			<trkpt lat="52.262970" lon="38.954751"><time>1970-01-01T00:00:01.000Z</time></trkpt>
			<trkpt lat="52.261736" lon="38.954902"><time>1970-01-01T00:00:01.000Z</time></trkpt>
			<trkpt lat="52.257480" lon="38.956425"><time>1970-01-01T00:00:01.000Z</time></trkpt>
			<trkpt lat="52.254144" lon="38.957798"><time>1970-01-01T00:00:01.000Z</time></trkpt>
			<trkpt lat="52.252069" lon="38.958871"><time>1970-01-01T00:00:01.000Z</time></trkpt>
			<trkpt lat="52.246787" lon="38.961811"><time>1970-01-01T00:00:01.000Z</time></trkpt>
			<trkpt lat="52.245106" lon="38.962584"><time>1970-01-01T00:00:01.000Z</time></trkpt>
			<trkpt lat="52.243266" lon="38.963850"><time>1970-01-01T00:00:01.000Z</time></trkpt>
			<trkpt lat="52.239614" lon="38.967733"><time>1970-01-01T00:00:01.000Z</time></trkpt>
			<trkpt lat="52.236105" lon="38.971574"><time>1970-01-01T00:00:01.000Z</time></trkpt>
			<trkpt lat="52.235787" lon="38.972036"><time>1970-01-01T00:00:01.000Z</time></trkpt>
			<trkpt lat="52.235672" lon="38.972384"><time>1970-01-01T00:00:01.000Z</time></trkpt>
			<trkpt lat="52.235727" lon="38.973151"><time>1970-01-01T00:00:01.000Z</time></trkpt>
			<trkpt lat="52.235668" lon="38.974042"><time>1970-01-01T00:00:01.000Z</time></trkpt>
			<trkpt lat="52.235514" lon="38.974573"><time>1970-01-01T00:00:01.000Z</time></trkpt>
			<trkpt lat="52.234170" lon="38.976091"><time>1970-01-01T00:00:01.000Z</time></trkpt>
			<trkpt lat="52.234042" lon="38.976402"><time>1970-01-01T00:00:01.000Z</time></trkpt>
			<trkpt lat="52.233983" lon="38.976901"><time>1970-01-01T00:00:01.000Z</time></trkpt>
			<trkpt lat="52.234095" lon="38.977497"><time>1970-01-01T00:00:01.000Z</time></trkpt>
			<trkpt lat="52.234065" lon="38.977770"><time>1970-01-01T00:00:01.000Z</time></trkpt>
			<trkpt lat="52.233875" lon="38.977974"><time>1970-01-01T00:00:01.000Z</time></trkpt>
			<trkpt lat="52.233546" lon="38.978274"><time>1970-01-01T00:00:01.000Z</time></trkpt>
			<trkpt lat="52.233411" lon="38.978451"><time>1970-01-01T00:00:01.000Z</time></trkpt>
			<trkpt lat="52.233303" lon="38.978913"><time>1970-01-01T00:00:01.000Z</time></trkpt>
			<trkpt lat="52.233332" lon="38.979524"><time>1970-01-01T00:00:01.000Z</time></trkpt>
			<trkpt lat="52.233467" lon="38.979927"><time>1970-01-01T00:00:01.000Z</time></trkpt>
			<trkpt lat="52.233792" lon="38.980576"><time>1970-01-01T00:00:01.000Z</time></trkpt>
			<trkpt lat="52.234104" lon="38.980930"><time>1970-01-01T00:00:01.000Z</time></trkpt>
			<trkpt lat="52.234463" lon="38.981606"><time>1970-01-01T00:00:01.000Z</time></trkpt>
			<trkpt lat="52.234535" lon="38.981928"><time>1970-01-01T00:00:01.000Z</time></trkpt>
			<trkpt lat="52.234604" lon="38.982550"><time>1970-01-01T00:00:01.000Z</time></trkpt>
			<trkpt lat="52.234752" lon="38.983596"><time>1970-01-01T00:00:01.000Z</time></trkpt>
			<trkpt lat="52.234978" lon="38.984250"><time>1970-01-01T00:00:01.000Z</time></trkpt>
			<trkpt lat="52.235425" lon="38.985216"><time>1970-01-01T00:00:01.000Z</time></trkpt>
			<trkpt lat="52.236184" lon="38.986450"><time>1970-01-01T00:00:01.000Z</time></trkpt>
			<trkpt lat="52.236779" lon="38.987528"><time>1970-01-01T00:00:01.000Z</time></trkpt>
			<trkpt lat="52.236867" lon="38.987786"><time>1970-01-01T00:00:01.000Z</time></trkpt>
			<trkpt lat="52.236881" lon="38.987984"><time>1970-01-01T00:00:01.000Z</time></trkpt>
			<trkpt lat="52.236759" lon="38.988365"><time>1970-01-01T00:00:01.000Z</time></trkpt>
			<trkpt lat="52.236565" lon="38.988773"><time>1970-01-01T00:00:01.000Z</time></trkpt>
			<trkpt lat="52.236289" lon="38.989561"><time>1970-01-01T00:00:01.000Z</time></trkpt>
			<trkpt lat="52.235826" lon="38.990570"><time>1970-01-01T00:00:01.000Z</time></trkpt>
			<trkpt lat="52.235652" lon="38.990940"><time>1970-01-01T00:00:01.000Z</time></trkpt>
			<trkpt lat="52.235274" lon="38.992463"><time>1970-01-01T00:00:01.000Z</time></trkpt>
			<trkpt lat="52.235123" lon="38.992962"><time>1970-01-01T00:00:01.000Z</time></trkpt>
			<trkpt lat="52.235051" lon="38.993209"><time>1970-01-01T00:00:01.000Z</time></trkpt>
			<trkpt lat="52.234969" lon="38.993649"><time>1970-01-01T00:00:01.000Z</time></trkpt>
			<trkpt lat="52.234955" lon="38.994185"><time>1970-01-01T00:00:01.000Z</time></trkpt>
			<trkpt lat="52.234840" lon="38.994877"><time>1970-01-01T00:00:01.000Z</time></trkpt>
			<trkpt lat="52.234702" lon="38.995312"><time>1970-01-01T00:00:01.000Z</time></trkpt>
			<trkpt lat="52.234607" lon="38.995832"><time>1970-01-01T00:00:01.000Z</time></trkpt>
			<trkpt lat="52.234430" lon="38.996379"><time>1970-01-01T00:00:01.000Z</time></trkpt>
			<trkpt lat="52.234085" lon="38.997479"><time>1970-01-01T00:00:01.000Z</time></trkpt>
			<trkpt lat="52.233615" lon="38.998353"><time>1970-01-01T00:00:01.000Z</time></trkpt>
			<trkpt lat="52.232754" lon="38.999974"><time>1970-01-01T00:00:01.000Z</time></trkpt>
			<trkpt lat="52.231953" lon="39.001561"><time>1970-01-01T00:00:01.000Z</time></trkpt>
			<trkpt lat="52.231125" lon="39.003353"><time>1970-01-01T00:00:01.000Z</time></trkpt>
			<trkpt lat="52.230474" lon="39.004426"><time>1970-01-01T00:00:01.000Z</time></trkpt>
			<trkpt lat="52.230007" lon="39.005198"><time>1970-01-01T00:00:01.000Z</time></trkpt>
			<trkpt lat="52.229403" lon="39.005724"><time>1970-01-01T00:00:01.000Z</time></trkpt>
			<trkpt lat="52.228595" lon="39.006143"><time>1970-01-01T00:00:01.000Z</time></trkpt>
			<trkpt lat="52.227602" lon="39.006701"><time>1970-01-01T00:00:01.000Z</time></trkpt>
			<trkpt lat="52.227142" lon="39.007044"><time>1970-01-01T00:00:01.000Z</time></trkpt>
			<trkpt lat="52.225756" lon="39.008514"><time>1970-01-01T00:00:01.000Z</time></trkpt>
			<trkpt lat="52.224770" lon="39.009737"><time>1970-01-01T00:00:01.000Z</time></trkpt>
			<trkpt lat="52.223587" lon="39.011550"><time>1970-01-01T00:00:01.000Z</time></trkpt>
			<trkpt lat="52.222410" lon="39.013299"><time>1970-01-01T00:00:01.000Z</time></trkpt>
			<trkpt lat="52.221405" lon="39.014361"><time>1970-01-01T00:00:01.000Z</time></trkpt>
			<trkpt lat="52.219873" lon="39.016002"><time>1970-01-01T00:00:01.000Z</time></trkpt>
			<trkpt lat="52.217454" lon="39.018438"><time>1970-01-01T00:00:01.000Z</time></trkpt>
			<trkpt lat="52.216554" lon="39.019178"><time>1970-01-01T00:00:01.000Z</time></trkpt>
			<trkpt lat="52.216107" lon="39.019532"><time>1970-01-01T00:00:01.000Z</time></trkpt>
			<trkpt lat="52.214851" lon="39.020766"><time>1970-01-01T00:00:01.000Z</time></trkpt>
			<trkpt lat="52.214260" lon="39.021324"><time>1970-01-01T00:00:01.000Z</time></trkpt>
			<trkpt lat="52.214076" lon="39.021292"><time>1970-01-01T00:00:01.000Z</time></trkpt>
			<trkpt lat="52.212787" lon="39.018298"><time>1970-01-01T00:00:01.000Z</time></trkpt>
			<trkpt lat="52.212649" lon="39.018277"><time>1970-01-01T00:00:01.000Z</time></trkpt>
			<trkpt lat="52.211262" lon="39.019983"><time>1970-01-01T00:00:01.000Z</time></trkpt>
			<trkpt lat="52.208810" lon="39.023609"><time>1970-01-01T00:00:01.000Z</time></trkpt>
			<trkpt lat="52.207962" lon="39.024768"><time>1970-01-01T00:00:01.000Z</time></trkpt>
			<trkpt lat="52.207258" lon="39.025916"><time>1970-01-01T00:00:01.000Z</time></trkpt>
			<trkpt lat="52.206877" lon="39.026527"><time>1970-01-01T00:00:01.000Z</time></trkpt>
			<trkpt lat="52.206515" lon="39.026678"><time>1970-01-01T00:00:01.000Z</time></trkpt>
			<trkpt lat="52.206246" lon="39.026442"><time>1970-01-01T00:00:01.000Z</time></trkpt>
			<trkpt lat="52.206430" lon="39.026989"><time>1970-01-01T00:00:01.000Z</time></trkpt>
			<trkpt lat="52.206279" lon="39.027622"><time>1970-01-01T00:00:01.000Z</time></trkpt>
			<trkpt lat="52.205654" lon="39.028491"><time>1970-01-01T00:00:01.000Z</time></trkpt>
			<trkpt lat="52.205259" lon="39.029049"><time>1970-01-01T00:00:01.000Z</time></trkpt>
			<trkpt lat="52.204878" lon="39.028984"><time>1970-01-01T00:00:01.000Z</time></trkpt>
			<trkpt lat="52.204444" lon="39.028265"><time>1970-01-01T00:00:01.000Z</time></trkpt>
			<trkpt lat="52.204109" lon="39.027600"><time>1970-01-01T00:00:01.000Z</time></trkpt>
			<trkpt lat="52.203806" lon="39.026892"><time>1970-01-01T00:00:01.000Z</time></trkpt>
			<trkpt lat="52.203346" lon="39.025905"><time>1970-01-01T00:00:01.000Z</time></trkpt>
			<trkpt lat="52.203090" lon="39.025315"><time>1970-01-01T00:00:01.000Z</time></trkpt>
			<trkpt lat="52.202879" lon="39.024746"><time>1970-01-01T00:00:01.000Z</time></trkpt>
			<trkpt lat="52.202603" lon="39.024585"><time>1970-01-01T00:00:01.000Z</time></trkpt>
			<trkpt lat="52.202406" lon="39.024725"><time>1970-01-01T00:00:01.000Z</time></trkpt>
			<trkpt lat="52.202268" lon="39.025358"><time>1970-01-01T00:00:01.000Z</time></trkpt>
			<trkpt lat="52.201919" lon="39.025798"><time>1970-01-01T00:00:01.000Z</time></trkpt>
			<trkpt lat="52.201479" lon="39.026184"><time>1970-01-01T00:00:01.000Z</time></trkpt>
			<trkpt lat="52.201124" lon="39.026892"><time>1970-01-01T00:00:01.000Z</time></trkpt>
			<trkpt lat="52.200131" lon="39.028051"><time>1970-01-01T00:00:01.000Z</time></trkpt>
			<trkpt lat="52.199776" lon="39.028147"><time>1970-01-01T00:00:01.000Z</time></trkpt>
			<trkpt lat="52.199605" lon="39.028212"><time>1970-01-01T00:00:01.000Z</time></trkpt>
			<trkpt lat="52.199118" lon="39.028598"><time>1970-01-01T00:00:01.000Z</time></trkpt>
			<trkpt lat="52.198020" lon="39.028727"><time>1970-01-01T00:00:01.000Z</time></trkpt>
			<trkpt lat="52.197803" lon="39.028115"><time>1970-01-01T00:00:01.000Z</time></trkpt>
			<trkpt lat="52.197467" lon="39.026592"><time>1970-01-01T00:00:01.000Z</time></trkpt>
			<trkpt lat="52.197329" lon="39.026302"><time>1970-01-01T00:00:01.000Z</time></trkpt>
			<trkpt lat="52.196691" lon="39.025819"><time>1970-01-01T00:00:01.000Z</time></trkpt>
			<trkpt lat="52.196435" lon="39.025819"><time>1970-01-01T00:00:01.000Z</time></trkpt>
			<trkpt lat="52.195935" lon="39.026173"><time>1970-01-01T00:00:01.000Z</time></trkpt>
			<trkpt lat="52.195495" lon="39.026248"><time>1970-01-01T00:00:01.000Z</time></trkpt>
			<trkpt lat="52.195192" lon="39.028029"><time>1970-01-01T00:00:01.000Z</time></trkpt>
			<trkpt lat="52.194758" lon="39.029671"><time>1970-01-01T00:00:01.000Z</time></trkpt>
			<trkpt lat="52.193962" lon="39.031194"><time>1970-01-01T00:00:01.000Z</time></trkpt>
			<trkpt lat="52.186997" lon="39.040775"><time>1970-01-01T00:00:01.000Z</time></trkpt>
			<trkpt lat="52.183761" lon="39.044724"><time>1970-01-01T00:00:01.000Z</time></trkpt>
			<trkpt lat="52.176300" lon="39.053242"><time>1970-01-01T00:00:01.000Z</time></trkpt>
			<trkpt lat="52.175484" lon="39.054873"><time>1970-01-01T00:00:01.000Z</time></trkpt>
			<trkpt lat="52.174721" lon="39.056203"><time>1970-01-01T00:00:01.000Z</time></trkpt>
			<trkpt lat="52.172432" lon="39.060001"><time>1970-01-01T00:00:01.000Z</time></trkpt>
			<trkpt lat="52.172984" lon="39.063241"><time>1970-01-01T00:00:01.000Z</time></trkpt>
			<trkpt lat="52.173879" lon="39.070151"><time>1970-01-01T00:00:01.000Z</time></trkpt>
			<trkpt lat="52.174576" lon="39.077747"><time>1970-01-01T00:00:01.000Z</time></trkpt>
			<trkpt lat="52.174827" lon="39.080343"><time>1970-01-01T00:00:01.000Z</time></trkpt>
			<trkpt lat="52.175248" lon="39.083197"><time>1970-01-01T00:00:01.000Z</time></trkpt>
			<trkpt lat="52.175998" lon="39.086416"><time>1970-01-01T00:00:01.000Z</time></trkpt>
			<trkpt lat="52.177024" lon="39.089613"><time>1970-01-01T00:00:01.000Z</time></trkpt>
			<trkpt lat="52.177958" lon="39.091973"><time>1970-01-01T00:00:01.000Z</time></trkpt>
			<trkpt lat="52.179379" lon="39.094720"><time>1970-01-01T00:00:01.000Z</time></trkpt>
			<trkpt lat="52.181024" lon="39.097295"><time>1970-01-01T00:00:01.000Z</time></trkpt>
			<trkpt lat="52.184787" lon="39.101779"><time>1970-01-01T00:00:01.000Z</time></trkpt>
			<trkpt lat="52.179314" lon="39.110491"><time>1970-01-01T00:00:01.000Z</time></trkpt>
			<trkpt lat="52.173563" lon="39.119825"><time>1970-01-01T00:00:01.000Z</time></trkpt>
			<trkpt lat="52.169352" lon="39.126499"><time>1970-01-01T00:00:01.000Z</time></trkpt>
			<trkpt lat="52.163627" lon="39.135661"><time>1970-01-01T00:00:01.000Z</time></trkpt>
			<trkpt lat="52.156400" lon="39.147270"><time>1970-01-01T00:00:01.000Z</time></trkpt>
			<trkpt lat="52.151450" lon="39.155080"><time>1970-01-01T00:00:01.000Z</time></trkpt>
			<trkpt lat="52.149120" lon="39.158728"><time>1970-01-01T00:00:01.000Z</time></trkpt>
			<trkpt lat="52.148198" lon="39.159329"><time>1970-01-01T00:00:01.000Z</time></trkpt>
			<trkpt lat="52.143510" lon="39.161453"><time>1970-01-01T00:00:01.000Z</time></trkpt>
			<trkpt lat="52.142404" lon="39.161732"><time>1970-01-01T00:00:01.000Z</time></trkpt>
			<trkpt lat="52.132882" lon="39.163728"><time>1970-01-01T00:00:01.000Z</time></trkpt>
			<trkpt lat="52.124570" lon="39.164994"><time>1970-01-01T00:00:01.000Z</time></trkpt>
			<trkpt lat="52.121303" lon="39.165981"><time>1970-01-01T00:00:01.000Z</time></trkpt>
			<trkpt lat="52.116692" lon="39.167333"><time>1970-01-01T00:00:01.000Z</time></trkpt>
			<trkpt lat="52.113463" lon="39.168255"><time>1970-01-01T00:00:01.000Z</time></trkpt>
			<trkpt lat="52.105121" lon="39.171731"><time>1970-01-01T00:00:01.000Z</time></trkpt>
			<trkpt lat="52.097951" lon="39.174843"><time>1970-01-01T00:00:01.000Z</time></trkpt>
			<trkpt lat="52.096013" lon="39.175680"><time>1970-01-01T00:00:01.000Z</time></trkpt>
			<trkpt lat="52.095077" lon="39.176495"><time>1970-01-01T00:00:01.000Z</time></trkpt>
			<trkpt lat="52.093614" lon="39.176774"><time>1970-01-01T00:00:01.000Z</time></trkpt>
			<trkpt lat="52.084134" lon="39.180593"><time>1970-01-01T00:00:01.000Z</time></trkpt>
			<trkpt lat="52.078899" lon="39.183018"><time>1970-01-01T00:00:01.000Z</time></trkpt>
			<trkpt lat="52.078164" lon="39.183281"><time>1970-01-01T00:00:01.000Z</time></trkpt>
			<trkpt lat="52.077953" lon="39.183265"><time>1970-01-01T00:00:01.000Z</time></trkpt>
			<trkpt lat="52.077525" lon="39.183453"><time>1970-01-01T00:00:01.000Z</time></trkpt>
			<trkpt lat="52.077182" lon="39.183560"><time>1970-01-01T00:00:01.000Z</time></trkpt>
			<trkpt lat="52.076740" lon="39.183624"><time>1970-01-01T00:00:01.000Z</time></trkpt>
			<trkpt lat="52.076216" lon="39.183485"><time>1970-01-01T00:00:01.000Z</time></trkpt>
			<trkpt lat="52.075382" lon="39.183480"><time>1970-01-01T00:00:01.000Z</time></trkpt>
			<trkpt lat="52.075223" lon="39.183474"><time>1970-01-01T00:00:01.000Z</time></trkpt>
			<trkpt lat="52.075108" lon="39.184408"><time>1970-01-01T00:00:01.000Z</time></trkpt>
			<trkpt lat="52.074903" lon="39.184649"><time>1970-01-01T00:00:01.000Z</time></trkpt>
			<trkpt lat="52.074617" lon="39.184788"><time>1970-01-01T00:00:01.000Z</time></trkpt>
			<trkpt lat="52.074406" lon="39.185148"><time>1970-01-01T00:00:01.000Z</time></trkpt>
			<trkpt lat="52.073548" lon="39.185470"><time>1970-01-01T00:00:01.000Z</time></trkpt>
			<trkpt lat="52.065321" lon="39.189166"><time>1970-01-01T00:00:01.000Z</time></trkpt>
			<trkpt lat="52.062900" lon="39.190260"><time>1970-01-01T00:00:01.000Z</time></trkpt>
			<trkpt lat="52.062854" lon="39.187374"><time>1970-01-01T00:00:01.000Z</time></trkpt>
			<trkpt lat="52.062854" lon="39.186773"><time>1970-01-01T00:00:01.000Z</time></trkpt>
			<trkpt lat="52.062689" lon="39.186612"><time>1970-01-01T00:00:01.000Z</time></trkpt>
			<trkpt lat="52.060354" lon="39.187278"><time>1970-01-01T00:00:01.000Z</time></trkpt>
			<trkpt lat="52.059015" lon="39.187653"><time>1970-01-01T00:00:01.000Z</time></trkpt>
			<trkpt lat="52.058632" lon="39.187288"><time>1970-01-01T00:00:01.000Z</time></trkpt>
			<trkpt lat="52.058395" lon="39.185915"><time>1970-01-01T00:00:01.000Z</time></trkpt>
			<trkpt lat="52.058006" lon="39.185722"><time>1970-01-01T00:00:01.000Z</time></trkpt>
			<trkpt lat="52.056277" lon="39.185851"><time>1970-01-01T00:00:01.000Z</time></trkpt>
			<trkpt lat="52.051798" lon="39.189327"><time>1970-01-01T00:00:01.000Z</time></trkpt>
			<trkpt lat="52.051461" lon="39.189509"><time>1970-01-01T00:00:01.000Z</time></trkpt>
			<trkpt lat="52.051244" lon="39.189938"><time>1970-01-01T00:00:01.000Z</time></trkpt>
			<trkpt lat="52.051303" lon="39.190668"><time>1970-01-01T00:00:01.000Z</time></trkpt>
			<trkpt lat="52.051309" lon="39.191408"><time>1970-01-01T00:00:01.000Z</time></trkpt>
			<trkpt lat="52.051118" lon="39.191312"><time>1970-01-01T00:00:01.000Z</time></trkpt>
			<trkpt lat="52.051039" lon="39.190818"><time>1970-01-01T00:00:01.000Z</time></trkpt>
			<trkpt lat="52.050854" lon="39.190657"><time>1970-01-01T00:00:01.000Z</time></trkpt>
			<trkpt lat="52.050115" lon="39.190840"><time>1970-01-01T00:00:01.000Z</time></trkpt>
			<trkpt lat="52.049805" lon="39.191140"><time>1970-01-01T00:00:01.000Z</time></trkpt>
			<trkpt lat="52.049455" lon="39.191226"><time>1970-01-01T00:00:01.000Z</time></trkpt>
			<trkpt lat="52.048954" lon="39.191494"><time>1970-01-01T00:00:01.000Z</time></trkpt>
			<trkpt lat="52.048439" lon="39.191912"><time>1970-01-01T00:00:01.000Z</time></trkpt>
			<trkpt lat="52.047938" lon="39.192041"><time>1970-01-01T00:00:01.000Z</time></trkpt>
			<trkpt lat="52.047271" lon="39.191998"><time>1970-01-01T00:00:01.000Z</time></trkpt>
			<trkpt lat="52.046559" lon="39.192084"><time>1970-01-01T00:00:01.000Z</time></trkpt>
			<trkpt lat="52.045398" lon="39.191848"><time>1970-01-01T00:00:01.000Z</time></trkpt>
			<trkpt lat="52.044421" lon="39.191880"><time>1970-01-01T00:00:01.000Z</time></trkpt>
			<trkpt lat="52.043702" lon="39.191902"><time>1970-01-01T00:00:01.000Z</time></trkpt>
			<trkpt lat="52.043134" lon="39.191988"><time>1970-01-01T00:00:01.000Z</time></trkpt>
			<trkpt lat="52.042864" lon="39.192256"><time>1970-01-01T00:00:01.000Z</time></trkpt>
			<trkpt lat="52.042580" lon="39.192953"><time>1970-01-01T00:00:01.000Z</time></trkpt>
			<trkpt lat="52.042369" lon="39.193532"><time>1970-01-01T00:00:01.000Z</time></trkpt>
			<trkpt lat="52.041425" lon="39.193447"><time>1970-01-01T00:00:01.000Z</time></trkpt>
			<trkpt lat="52.040996" lon="39.193093"><time>1970-01-01T00:00:01.000Z</time></trkpt>
			<trkpt lat="52.040494" lon="39.192996"><time>1970-01-01T00:00:01.000Z</time></trkpt>
			<trkpt lat="52.038079" lon="39.192631"><time>1970-01-01T00:00:01.000Z</time></trkpt>
			<trkpt lat="52.036620" lon="39.191601"><time>1970-01-01T00:00:01.000Z</time></trkpt>
			<trkpt lat="52.036172" lon="39.190915"><time>1970-01-01T00:00:01.000Z</time></trkpt>
			<trkpt lat="52.034489" lon="39.188951"><time>1970-01-01T00:00:01.000Z</time></trkpt>
			<trkpt lat="52.032931" lon="39.187717"><time>1970-01-01T00:00:01.000Z</time></trkpt>
			<trkpt lat="52.031901" lon="39.186419"><time>1970-01-01T00:00:01.000Z</time></trkpt>
			<trkpt lat="52.030489" lon="39.186033"><time>1970-01-01T00:00:01.000Z</time></trkpt>
			<trkpt lat="52.029162" lon="39.185647"><time>1970-01-01T00:00:01.000Z</time></trkpt>
			<trkpt lat="52.028825" lon="39.185722"><time>1970-01-01T00:00:01.000Z</time></trkpt>
			<trkpt lat="52.028621" lon="39.185990"><time>1970-01-01T00:00:01.000Z</time></trkpt>
			<trkpt lat="52.028225" lon="39.185861"><time>1970-01-01T00:00:01.000Z</time></trkpt>
			<trkpt lat="52.026469" lon="39.183480"><time>1970-01-01T00:00:01.000Z</time></trkpt>
			<trkpt lat="52.025360" lon="39.181634"><time>1970-01-01T00:00:01.000Z</time></trkpt>
			<trkpt lat="52.024244" lon="39.178995"><time>1970-01-01T00:00:01.000Z</time></trkpt>
			<trkpt lat="52.021907" lon="39.172987"><time>1970-01-01T00:00:01.000Z</time></trkpt>
			<trkpt lat="52.021722" lon="39.172279"><time>1970-01-01T00:00:01.000Z</time></trkpt>
			<trkpt lat="52.021894" lon="39.166582"><time>1970-01-01T00:00:01.000Z</time></trkpt>
			<trkpt lat="52.021953" lon="39.165959"><time>1970-01-01T00:00:01.000Z</time></trkpt>
			<trkpt lat="52.022118" lon="39.165745"><time>1970-01-01T00:00:01.000Z</time></trkpt>
			<trkpt lat="52.022230" lon="39.165691"><time>1970-01-01T00:00:01.000Z</time></trkpt>
			<trkpt lat="52.022270" lon="39.165444"><time>1970-01-01T00:00:01.000Z</time></trkpt>
			<trkpt lat="52.022369" lon="39.165230"><time>1970-01-01T00:00:01.000Z</time></trkpt>
			<trkpt lat="52.022600" lon="39.165112"><time>1970-01-01T00:00:01.000Z</time></trkpt>
			<trkpt lat="52.023161" lon="39.165230"><time>1970-01-01T00:00:01.000Z</time></trkpt>
			<trkpt lat="52.023267" lon="39.165423"><time>1970-01-01T00:00:01.000Z</time></trkpt>
			<trkpt lat="52.023907" lon="39.165938"><time>1970-01-01T00:00:01.000Z</time></trkpt>
			<trkpt lat="52.024237" lon="39.166174"><time>1970-01-01T00:00:01.000Z</time></trkpt>
			<trkpt lat="52.024488" lon="39.166120"><time>1970-01-01T00:00:01.000Z</time></trkpt>
			<trkpt lat="52.024772" lon="39.166270"><time>1970-01-01T00:00:01.000Z</time></trkpt>
			<trkpt lat="52.025201" lon="39.166303"><time>1970-01-01T00:00:01.000Z</time></trkpt>
			<trkpt lat="52.026330" lon="39.166989"><time>1970-01-01T00:00:01.000Z</time></trkpt>
			<trkpt lat="52.025379" lon="39.166335"><time>1970-01-01T00:00:01.000Z</time></trkpt>
			<trkpt lat="52.024878" lon="39.166206"><time>1970-01-01T00:00:01.000Z</time></trkpt>
			<trkpt lat="52.024567" lon="39.166228"><time>1970-01-01T00:00:01.000Z</time></trkpt>
			<trkpt lat="52.024343" lon="39.166077"><time>1970-01-01T00:00:01.000Z</time></trkpt>
			<trkpt lat="52.024033" lon="39.166088"><time>1970-01-01T00:00:01.000Z</time></trkpt>
			<trkpt lat="52.023432" lon="39.165648"><time>1970-01-01T00:00:01.000Z</time></trkpt>
			<trkpt lat="52.023069" lon="39.165133"><time>1970-01-01T00:00:01.000Z</time></trkpt>
			<trkpt lat="52.022494" lon="39.165058"><time>1970-01-01T00:00:01.000Z</time></trkpt>
			<trkpt lat="52.022303" lon="39.165198"><time>1970-01-01T00:00:01.000Z</time></trkpt>
			<trkpt lat="52.021960" lon="39.165798"><time>1970-01-01T00:00:01.000Z</time></trkpt>
			<trkpt lat="52.021735" lon="39.166367"><time>1970-01-01T00:00:01.000Z</time></trkpt>
			<trkpt lat="52.006495" lon="39.162655"><time>1970-01-01T00:00:01.000Z</time></trkpt>
			<trkpt lat="52.006733" lon="39.176087"><time>1970-01-01T00:00:01.000Z</time></trkpt>
			<trkpt lat="52.006970" lon="39.190121"><time>1970-01-01T00:00:01.000Z</time></trkpt>
			<trkpt lat="52.006918" lon="39.191837"><time>1970-01-01T00:00:01.000Z</time></trkpt>
			<trkpt lat="52.007155" lon="39.200120"><time>1970-01-01T00:00:01.000Z</time></trkpt>
			<trkpt lat="52.007208" lon="39.207673"><time>1970-01-01T00:00:01.000Z</time></trkpt>
			<trkpt lat="52.007393" lon="39.210720"><time>1970-01-01T00:00:01.000Z</time></trkpt>
			<trkpt lat="52.007869" lon="39.213123"><time>1970-01-01T00:00:01.000Z</time></trkpt>
			<trkpt lat="52.007921" lon="39.214411"><time>1970-01-01T00:00:01.000Z</time></trkpt>
			<trkpt lat="52.007763" lon="39.215012"><time>1970-01-01T00:00:01.000Z</time></trkpt>
			<trkpt lat="52.000934" lon="39.220591"><time>1970-01-01T00:00:01.000Z</time></trkpt>
			<trkpt lat="52.000115" lon="39.221106"><time>1970-01-01T00:00:01.000Z</time></trkpt>
			<trkpt lat="52.000828" lon="39.222071"><time>1970-01-01T00:00:01.000Z</time></trkpt>
			<trkpt lat="52.001766" lon="39.226406"><time>1970-01-01T00:00:01.000Z</time></trkpt>
			<trkpt lat="52.001911" lon="39.227757"><time>1970-01-01T00:00:01.000Z</time></trkpt>
			<trkpt lat="52.001964" lon="39.229817"><time>1970-01-01T00:00:01.000Z</time></trkpt>
			<trkpt lat="52.001713" lon="39.230311"><time>1970-01-01T00:00:01.000Z</time></trkpt>
			<trkpt lat="52.000088" lon="39.230053"><time>1970-01-01T00:00:01.000Z</time></trkpt>
			<trkpt lat="51.998939" lon="39.229989"><time>1970-01-01T00:00:01.000Z</time></trkpt>
			<trkpt lat="51.999163" lon="39.240868"><time>1970-01-01T00:00:01.000Z</time></trkpt>
			<trkpt lat="51.999362" lon="39.241984"><time>1970-01-01T00:00:01.000Z</time></trkpt>
			<trkpt lat="51.999322" lon="39.243271"><time>1970-01-01T00:00:01.000Z</time></trkpt>
			<trkpt lat="51.999348" lon="39.245760"><time>1970-01-01T00:00:01.000Z</time></trkpt>
			<trkpt lat="51.999111" lon="39.247563"><time>1970-01-01T00:00:01.000Z</time></trkpt>
			<trkpt lat="51.999018" lon="39.248872"><time>1970-01-01T00:00:01.000Z</time></trkpt>
			<trkpt lat="51.998939" lon="39.249837"><time>1970-01-01T00:00:01.000Z</time></trkpt>
			<trkpt lat="52.000366" lon="39.251404"><time>1970-01-01T00:00:01.000Z</time></trkpt>
			<trkpt lat="52.001409" lon="39.252348"><time>1970-01-01T00:00:01.000Z</time></trkpt>
			<trkpt lat="52.002004" lon="39.252648"><time>1970-01-01T00:00:01.000Z</time></trkpt>
			<trkpt lat="52.002757" lon="39.252863"><time>1970-01-01T00:00:01.000Z</time></trkpt>
			<trkpt lat="52.003232" lon="39.253743"><time>1970-01-01T00:00:01.000Z</time></trkpt>
			<trkpt lat="52.003523" lon="39.255245"><time>1970-01-01T00:00:01.000Z</time></trkpt>
			<trkpt lat="52.004355" lon="39.257219"><time>1970-01-01T00:00:01.000Z</time></trkpt>
			<trkpt lat="52.005636" lon="39.259944"><time>1970-01-01T00:00:01.000Z</time></trkpt>
			<trkpt lat="52.005967" lon="39.263270"><time>1970-01-01T00:00:01.000Z</time></trkpt>
			<trkpt lat="52.005742" lon="39.264171"><time>1970-01-01T00:00:01.000Z</time></trkpt>
			<trkpt lat="52.003417" lon="39.267755"><time>1970-01-01T00:00:01.000Z</time></trkpt>
			<trkpt lat="52.003140" lon="39.268227"><time>1970-01-01T00:00:01.000Z</time></trkpt>
			<trkpt lat="52.001422" lon="39.268355"><time>1970-01-01T00:00:01.000Z</time></trkpt>
			<trkpt lat="52.000432" lon="39.266961"><time>1970-01-01T00:00:01.000Z</time></trkpt>
			<trkpt lat="51.999864" lon="39.266939"><time>1970-01-01T00:00:01.000Z</time></trkpt>
			<trkpt lat="51.997869" lon="39.264987"><time>1970-01-01T00:00:01.000Z</time></trkpt>
			<trkpt lat="51.990945" lon="39.279621"><time>1970-01-01T00:00:01.000Z</time></trkpt>
			<trkpt lat="51.989466" lon="39.286165"><time>1970-01-01T00:00:01.000Z</time></trkpt>
			<trkpt lat="51.989043" lon="39.287066"><time>1970-01-01T00:00:01.000Z</time></trkpt>
			<trkpt lat="51.988950" lon="39.287839"><time>1970-01-01T00:00:01.000Z</time></trkpt>
			<trkpt lat="51.988646" lon="39.288933"><time>1970-01-01T00:00:01.000Z</time></trkpt>
			<trkpt lat="51.988171" lon="39.289405"><time>1970-01-01T00:00:01.000Z</time></trkpt>
			<trkpt lat="51.987761" lon="39.290392"><time>1970-01-01T00:00:01.000Z</time></trkpt>
			<trkpt lat="51.984708" lon="39.305627"><time>1970-01-01T00:00:01.000Z</time></trkpt>
			<trkpt lat="51.984814" lon="39.306099"><time>1970-01-01T00:00:01.000Z</time></trkpt>
			<trkpt lat="51.982924" lon="39.317493"><time>1970-01-01T00:00:01.000Z</time></trkpt>
			<trkpt lat="51.982515" lon="39.318674"><time>1970-01-01T00:00:01.000Z</time></trkpt>
			<trkpt lat="51.979686" lon="39.334488"><time>1970-01-01T00:00:01.000Z</time></trkpt>
			<trkpt lat="51.979158" lon="39.335711"><time>1970-01-01T00:00:01.000Z</time></trkpt>
			<trkpt lat="51.978497" lon="39.335496"><time>1970-01-01T00:00:01.000Z</time></trkpt>
			<trkpt lat="51.969138" lon="39.328437"><time>1970-01-01T00:00:01.000Z</time></trkpt>
			<trkpt lat="51.968675" lon="39.328458"><time>1970-01-01T00:00:01.000Z</time></trkpt>
			<trkpt lat="51.965622" lon="39.332621"><time>1970-01-01T00:00:01.000Z</time></trkpt>
			<trkpt lat="51.965423" lon="39.333007"><time>1970-01-01T00:00:01.000Z</time></trkpt>
			<trkpt lat="51.965503" lon="39.342320"><time>1970-01-01T00:00:01.000Z</time></trkpt>
			<trkpt lat="51.965536" lon="39.343522"><time>1970-01-01T00:00:01.000Z</time></trkpt>
			<trkpt lat="51.965086" lon="39.345657"><time>1970-01-01T00:00:01.000Z</time></trkpt>
			<trkpt lat="51.964445" lon="39.347491"><time>1970-01-01T00:00:01.000Z</time></trkpt>
			<trkpt lat="51.963989" lon="39.348167"><time>1970-01-01T00:00:01.000Z</time></trkpt>
			<trkpt lat="51.962197" lon="39.349787"><time>1970-01-01T00:00:01.000Z</time></trkpt>
			<trkpt lat="51.961655" lon="39.350077"><time>1970-01-01T00:00:01.000Z</time></trkpt>
			<trkpt lat="51.960928" lon="39.350721"><time>1970-01-01T00:00:01.000Z</time></trkpt>
			<trkpt lat="51.958673" lon="39.356149"><time>1970-01-01T00:00:01.000Z</time></trkpt>
			<trkpt lat="51.957821" lon="39.357630"><time>1970-01-01T00:00:01.000Z</time></trkpt>
			<trkpt lat="51.957345" lon="39.358542"><time>1970-01-01T00:00:01.000Z</time></trkpt>
			<trkpt lat="51.956994" lon="39.359357"><time>1970-01-01T00:00:01.000Z</time></trkpt>
			<trkpt lat="51.956650" lon="39.359432"><time>1970-01-01T00:00:01.000Z</time></trkpt>
			<trkpt lat="51.955916" lon="39.359497"><time>1970-01-01T00:00:01.000Z</time></trkpt>
			<trkpt lat="51.953120" lon="39.358617"><time>1970-01-01T00:00:01.000Z</time></trkpt>
			<trkpt lat="51.951566" lon="39.357362"><time>1970-01-01T00:00:01.000Z</time></trkpt>
			<trkpt lat="51.950303" lon="39.356729"><time>1970-01-01T00:00:01.000Z</time></trkpt>
			<trkpt lat="51.948755" lon="39.355710"><time>1970-01-01T00:00:01.000Z</time></trkpt>
			<trkpt lat="51.946289" lon="39.353971"><time>1970-01-01T00:00:01.000Z</time></trkpt>
			<trkpt lat="51.944648" lon="39.353049"><time>1970-01-01T00:00:01.000Z</time></trkpt>
			<trkpt lat="51.940528" lon="39.350742"><time>1970-01-01T00:00:01.000Z</time></trkpt>
			<trkpt lat="51.931076" lon="39.345324"><time>1970-01-01T00:00:01.000Z</time></trkpt>
			<trkpt lat="51.929051" lon="39.344273"><time>1970-01-01T00:00:01.000Z</time></trkpt>
			<trkpt lat="51.923242" lon="39.341741"><time>1970-01-01T00:00:01.000Z</time></trkpt>
			<trkpt lat="51.915500" lon="39.337642"><time>1970-01-01T00:00:01.000Z</time></trkpt>
			<trkpt lat="51.913680" lon="39.336784"><time>1970-01-01T00:00:01.000Z</time></trkpt>
			<trkpt lat="51.913104" lon="39.339080"><time>1970-01-01T00:00:01.000Z</time></trkpt>
			<trkpt lat="51.912025" lon="39.338554"><time>1970-01-01T00:00:01.000Z</time></trkpt>
			<trkpt lat="51.910927" lon="39.338404"><time>1970-01-01T00:00:01.000Z</time></trkpt>
			<trkpt lat="51.910397" lon="39.338039"><time>1970-01-01T00:00:01.000Z</time></trkpt>
			<trkpt lat="51.909041" lon="39.336119"><time>1970-01-01T00:00:01.000Z</time></trkpt>
			<trkpt lat="51.908868" lon="39.336065"><time>1970-01-01T00:00:01.000Z</time></trkpt>
			<trkpt lat="51.908299" lon="39.337567"><time>1970-01-01T00:00:01.000Z</time></trkpt>
			<trkpt lat="51.907571" lon="39.338726"><time>1970-01-01T00:00:01.000Z</time></trkpt>
			<trkpt lat="51.907300" lon="39.339316"><time>1970-01-01T00:00:01.000Z</time></trkpt>
			<trkpt lat="51.907161" lon="39.339724"><time>1970-01-01T00:00:01.000Z</time></trkpt>
			<trkpt lat="51.907174" lon="39.340099"><time>1970-01-01T00:00:01.000Z</time></trkpt>
			<trkpt lat="51.907326" lon="39.340303"><time>1970-01-01T00:00:01.000Z</time></trkpt>
			<trkpt lat="51.907670" lon="39.340786"><time>1970-01-01T00:00:01.000Z</time></trkpt>
			<trkpt lat="51.907631" lon="39.341333"><time>1970-01-01T00:00:01.000Z</time></trkpt>
			<trkpt lat="51.907392" lon="39.342352"><time>1970-01-01T00:00:01.000Z</time></trkpt>
			<trkpt lat="51.907061" lon="39.343050"><time>1970-01-01T00:00:01.000Z</time></trkpt>
			<trkpt lat="51.906625" lon="39.343082"><time>1970-01-01T00:00:01.000Z</time></trkpt>
			<trkpt lat="51.905691" lon="39.343103"><time>1970-01-01T00:00:01.000Z</time></trkpt>
			<trkpt lat="51.905446" lon="39.343221"><time>1970-01-01T00:00:01.000Z</time></trkpt>
			<trkpt lat="51.905162" lon="39.343983"><time>1970-01-01T00:00:01.000Z</time></trkpt>
			<trkpt lat="51.904844" lon="39.345088"><time>1970-01-01T00:00:01.000Z</time></trkpt>
			<trkpt lat="51.904784" lon="39.345753"><time>1970-01-01T00:00:01.000Z</time></trkpt>
			<trkpt lat="51.904824" lon="39.346558"><time>1970-01-01T00:00:01.000Z</time></trkpt>
			<trkpt lat="51.905307" lon="39.346837"><time>1970-01-01T00:00:01.000Z</time></trkpt>
			<trkpt lat="51.905572" lon="39.347212"><time>1970-01-01T00:00:01.000Z</time></trkpt>
			<trkpt lat="51.905771" lon="39.348446"><time>1970-01-01T00:00:01.000Z</time></trkpt>
			<trkpt lat="51.905757" lon="39.349369"><time>1970-01-01T00:00:01.000Z</time></trkpt>
			<trkpt lat="51.905705" lon="39.349819"><time>1970-01-01T00:00:01.000Z</time></trkpt>
			<trkpt lat="51.905691" lon="39.350485"><time>1970-01-01T00:00:01.000Z</time></trkpt>
			<trkpt lat="51.905122" lon="39.352480"><time>1970-01-01T00:00:01.000Z</time></trkpt>
			<trkpt lat="51.905076" lon="39.353102"><time>1970-01-01T00:00:01.000Z</time></trkpt>
			<trkpt lat="51.905321" lon="39.353521"><time>1970-01-01T00:00:01.000Z</time></trkpt>
			<trkpt lat="51.906155" lon="39.354454"><time>1970-01-01T00:00:01.000Z</time></trkpt>
			<trkpt lat="51.907704" lon="39.358499"><time>1970-01-01T00:00:01.000Z</time></trkpt>
			<trkpt lat="51.907909" lon="39.361761"><time>1970-01-01T00:00:01.000Z</time></trkpt>
			<trkpt lat="51.907823" lon="39.362394"><time>1970-01-01T00:00:01.000Z</time></trkpt>
			<trkpt lat="51.907498" lon="39.362866"><time>1970-01-01T00:00:01.000Z</time></trkpt>
			<trkpt lat="51.905996" lon="39.363585"><time>1970-01-01T00:00:01.000Z</time></trkpt>
			<trkpt lat="51.903891" lon="39.364271"><time>1970-01-01T00:00:01.000Z</time></trkpt>
			<trkpt lat="51.902964" lon="39.364700"><time>1970-01-01T00:00:01.000Z</time></trkpt>
			<trkpt lat="51.902348" lon="39.365205"><time>1970-01-01T00:00:01.000Z</time></trkpt>
			<trkpt lat="51.897231" lon="39.368026"><time>1970-01-01T00:00:01.000Z</time></trkpt>
			<trkpt lat="51.893232" lon="39.368391"><time>1970-01-01T00:00:01.000Z</time></trkpt>
			<trkpt lat="51.890835" lon="39.369378"><time>1970-01-01T00:00:01.000Z</time></trkpt>
			<trkpt lat="51.890173" lon="39.369571"><time>1970-01-01T00:00:01.000Z</time></trkpt>
			<trkpt lat="51.889683" lon="39.369335"><time>1970-01-01T00:00:01.000Z</time></trkpt>
			<trkpt lat="51.888531" lon="39.370108"><time>1970-01-01T00:00:01.000Z</time></trkpt>
			<trkpt lat="51.887683" lon="39.369829"><time>1970-01-01T00:00:01.000Z</time></trkpt>
			<trkpt lat="51.886968" lon="39.369850"><time>1970-01-01T00:00:01.000Z</time></trkpt>
			<trkpt lat="51.885710" lon="39.370923"><time>1970-01-01T00:00:01.000Z</time></trkpt>
			<trkpt lat="51.884372" lon="39.372768"><time>1970-01-01T00:00:01.000Z</time></trkpt>
			<trkpt lat="51.883564" lon="39.373026"><time>1970-01-01T00:00:01.000Z</time></trkpt>
			<trkpt lat="51.881723" lon="39.375107"><time>1970-01-01T00:00:01.000Z</time></trkpt>
			<trkpt lat="51.880571" lon="39.375923"><time>1970-01-01T00:00:01.000Z</time></trkpt>
			<trkpt lat="51.879829" lon="39.376717"><time>1970-01-01T00:00:01.000Z</time></trkpt>
			<trkpt lat="51.879392" lon="39.377253"><time>1970-01-01T00:00:01.000Z</time></trkpt>
			<trkpt lat="51.878743" lon="39.377875"><time>1970-01-01T00:00:01.000Z</time></trkpt>
			<trkpt lat="51.878240" lon="39.378626"><time>1970-01-01T00:00:01.000Z</time></trkpt>
			<trkpt lat="51.877736" lon="39.379034"><time>1970-01-01T00:00:01.000Z</time></trkpt>
			<trkpt lat="51.877140" lon="39.379227"><time>1970-01-01T00:00:01.000Z</time></trkpt>
			<trkpt lat="51.876491" lon="39.379098"><time>1970-01-01T00:00:01.000Z</time></trkpt>
			<trkpt lat="51.876094" lon="39.379227"><time>1970-01-01T00:00:01.000Z</time></trkpt>
			<trkpt lat="51.875511" lon="39.379785"><time>1970-01-01T00:00:01.000Z</time></trkpt>
			<trkpt lat="51.875113" lon="39.379978"><time>1970-01-01T00:00:01.000Z</time></trkpt>
			<trkpt lat="51.873815" lon="39.382403"><time>1970-01-01T00:00:01.000Z</time></trkpt>
			<trkpt lat="51.873272" lon="39.382832"><time>1970-01-01T00:00:01.000Z</time></trkpt>
			<trkpt lat="51.872768" lon="39.383690"><time>1970-01-01T00:00:01.000Z</time></trkpt>
			<trkpt lat="51.871775" lon="39.385107"><time>1970-01-01T00:00:01.000Z</time></trkpt>
			<trkpt lat="51.870967" lon="39.385815"><time>1970-01-01T00:00:01.000Z</time></trkpt>
			<trkpt lat="51.870529" lon="39.385943"><time>1970-01-01T00:00:01.000Z</time></trkpt>
			<trkpt lat="51.869827" lon="39.386351"><time>1970-01-01T00:00:01.000Z</time></trkpt>
			<trkpt lat="51.869125" lon="39.386179"><time>1970-01-01T00:00:01.000Z</time></trkpt>
			<trkpt lat="51.868688" lon="39.386201"><time>1970-01-01T00:00:01.000Z</time></trkpt>
			<trkpt lat="51.868277" lon="39.386523"><time>1970-01-01T00:00:01.000Z</time></trkpt>
			<trkpt lat="51.867906" lon="39.387059"><time>1970-01-01T00:00:01.000Z</time></trkpt>
			<trkpt lat="51.867204" lon="39.387488"><time>1970-01-01T00:00:01.000Z</time></trkpt>
			<trkpt lat="51.866647" lon="39.388797"><time>1970-01-01T00:00:01.000Z</time></trkpt>
			<trkpt lat="51.866276" lon="39.389377"><time>1970-01-01T00:00:01.000Z</time></trkpt>
			<trkpt lat="51.865839" lon="39.389741"><time>1970-01-01T00:00:01.000Z</time></trkpt>
			<trkpt lat="51.864872" lon="39.389677"><time>1970-01-01T00:00:01.000Z</time></trkpt>
			<trkpt lat="51.862195" lon="39.390192"><time>1970-01-01T00:00:01.000Z</time></trkpt>
			<trkpt lat="51.861281" lon="39.389484"><time>1970-01-01T00:00:01.000Z</time></trkpt>
			<trkpt lat="51.860658" lon="39.389033"><time>1970-01-01T00:00:01.000Z</time></trkpt>
			<trkpt lat="51.860353" lon="39.389141"><time>1970-01-01T00:00:01.000Z</time></trkpt>
			<trkpt lat="51.860009" lon="39.389591"><time>1970-01-01T00:00:01.000Z</time></trkpt>
			<trkpt lat="51.859532" lon="39.389634"><time>1970-01-01T00:00:01.000Z</time></trkpt>
			<trkpt lat="51.859107" lon="39.389784"><time>1970-01-01T00:00:01.000Z</time></trkpt>
			<trkpt lat="51.858657" lon="39.390385"><time>1970-01-01T00:00:01.000Z</time></trkpt>
			<trkpt lat="51.857053" lon="39.391415"><time>1970-01-01T00:00:01.000Z</time></trkpt>
			<trkpt lat="51.856603" lon="39.391437"><time>1970-01-01T00:00:01.000Z</time></trkpt>
			<trkpt lat="51.856271" lon="39.391694"><time>1970-01-01T00:00:01.000Z</time></trkpt>
			<trkpt lat="51.855595" lon="39.392788"><time>1970-01-01T00:00:01.000Z</time></trkpt>
			<trkpt lat="51.854535" lon="39.393518"><time>1970-01-01T00:00:01.000Z</time></trkpt>
			<trkpt lat="51.853713" lon="39.393110"><time>1970-01-01T00:00:01.000Z</time></trkpt>
			<trkpt lat="51.853263" lon="39.392896"><time>1970-01-01T00:00:01.000Z</time></trkpt>
			<trkpt lat="51.852812" lon="39.392853"><time>1970-01-01T00:00:01.000Z</time></trkpt>
			<trkpt lat="51.851951" lon="39.393218"><time>1970-01-01T00:00:01.000Z</time></trkpt>
			<trkpt lat="51.851208" lon="39.393175"><time>1970-01-01T00:00:01.000Z</time></trkpt>
			<trkpt lat="51.850890" lon="39.392874"><time>1970-01-01T00:00:01.000Z</time></trkpt>
			<trkpt lat="51.850652" lon="39.392381"><time>1970-01-01T00:00:01.000Z</time></trkpt>
			<trkpt lat="51.850241" lon="39.392145"><time>1970-01-01T00:00:01.000Z</time></trkpt>
			<trkpt lat="51.849340" lon="39.392123"><time>1970-01-01T00:00:01.000Z</time></trkpt>
			<trkpt lat="51.848147" lon="39.391909"><time>1970-01-01T00:00:01.000Z</time></trkpt>
			<trkpt lat="51.847073" lon="39.392724"><time>1970-01-01T00:00:01.000Z</time></trkpt>
			<trkpt lat="51.846198" lon="39.392552"><time>1970-01-01T00:00:01.000Z</time></trkpt>
			<trkpt lat="51.845694" lon="39.392660"><time>1970-01-01T00:00:01.000Z</time></trkpt>
			<trkpt lat="51.845111" lon="39.392638"><time>1970-01-01T00:00:01.000Z</time></trkpt>
			<trkpt lat="51.843997" lon="39.393067"><time>1970-01-01T00:00:01.000Z</time></trkpt>
			<trkpt lat="51.843202" lon="39.393132"><time>1970-01-01T00:00:01.000Z</time></trkpt>
			<trkpt lat="51.842115" lon="39.392445"><time>1970-01-01T00:00:01.000Z</time></trkpt>
			<trkpt lat="51.841651" lon="39.391758"><time>1970-01-01T00:00:01.000Z</time></trkpt>
			<trkpt lat="51.841160" lon="39.391265"><time>1970-01-01T00:00:01.000Z</time></trkpt>
			<trkpt lat="51.840484" lon="39.391415"><time>1970-01-01T00:00:01.000Z</time></trkpt>
			<trkpt lat="51.839278" lon="39.391844"><time>1970-01-01T00:00:01.000Z</time></trkpt>
			<trkpt lat="51.838655" lon="39.392467"><time>1970-01-01T00:00:01.000Z</time></trkpt>
			<trkpt lat="51.838111" lon="39.392595"><time>1970-01-01T00:00:01.000Z</time></trkpt>
			<trkpt lat="51.837263" lon="39.392338"><time>1970-01-01T00:00:01.000Z</time></trkpt>
			<trkpt lat="51.836759" lon="39.392016"><time>1970-01-01T00:00:01.000Z</time></trkpt>
			<trkpt lat="51.836109" lon="39.391994"><time>1970-01-01T00:00:01.000Z</time></trkpt>
			<trkpt lat="51.835738" lon="39.392209"><time>1970-01-01T00:00:01.000Z</time></trkpt>
			<trkpt lat="51.835499" lon="39.392724"><time>1970-01-01T00:00:01.000Z</time></trkpt>
			<trkpt lat="51.835260" lon="39.393411"><time>1970-01-01T00:00:01.000Z</time></trkpt>
			<trkpt lat="51.834452" lon="39.394376"><time>1970-01-01T00:00:01.000Z</time></trkpt>
			<trkpt lat="51.834067" lon="39.395235"><time>1970-01-01T00:00:01.000Z</time></trkpt>
			<trkpt lat="51.834147" lon="39.396136"><time>1970-01-01T00:00:01.000Z</time></trkpt>
			<trkpt lat="51.834279" lon="39.396565"><time>1970-01-01T00:00:01.000Z</time></trkpt>
			<trkpt lat="51.834531" lon="39.396908"><time>1970-01-01T00:00:01.000Z</time></trkpt>
			<trkpt lat="51.834810" lon="39.398003"><time>1970-01-01T00:00:01.000Z</time></trkpt>
			<trkpt lat="51.834823" lon="39.398603"><time>1970-01-01T00:00:01.000Z</time></trkpt>
			<trkpt lat="51.834465" lon="39.399204"><time>1970-01-01T00:00:01.000Z</time></trkpt>
			<trkpt lat="51.834120" lon="39.399354"><time>1970-01-01T00:00:01.000Z</time></trkpt>
			<trkpt lat="51.833895" lon="39.399097"><time>1970-01-01T00:00:01.000Z</time></trkpt>
			<trkpt lat="51.833444" lon="39.399183"><time>1970-01-01T00:00:01.000Z</time></trkpt>
			<trkpt lat="51.832555" lon="39.400685"><time>1970-01-01T00:00:01.000Z</time></trkpt>
			<trkpt lat="51.831362" lon="39.401243"><time>1970-01-01T00:00:01.000Z</time></trkpt>
			<trkpt lat="51.829545" lon="39.402037"><time>1970-01-01T00:00:01.000Z</time></trkpt>
			<trkpt lat="51.829280" lon="39.402251"><time>1970-01-01T00:00:01.000Z</time></trkpt>
			<trkpt lat="51.828803" lon="39.403582"><time>1970-01-01T00:00:01.000Z</time></trkpt>
			<trkpt lat="51.828378" lon="39.404075"><time>1970-01-01T00:00:01.000Z</time></trkpt>
			<trkpt lat="51.827715" lon="39.404118"><time>1970-01-01T00:00:01.000Z</time></trkpt>
			<trkpt lat="51.827264" lon="39.404333"><time>1970-01-01T00:00:01.000Z</time></trkpt>
			<trkpt lat="51.826588" lon="39.405234"><time>1970-01-01T00:00:01.000Z</time></trkpt>
			<trkpt lat="51.826150" lon="39.405320"><time>1970-01-01T00:00:01.000Z</time></trkpt>
			<trkpt lat="51.824784" lon="39.405727"><time>1970-01-01T00:00:01.000Z</time></trkpt>
			<trkpt lat="51.823949" lon="39.405577"><time>1970-01-01T00:00:01.000Z</time></trkpt>
			<trkpt lat="51.823246" lon="39.405320"><time>1970-01-01T00:00:01.000Z</time></trkpt>
			<trkpt lat="51.822662" lon="39.405384"><time>1970-01-01T00:00:01.000Z</time></trkpt>
			<trkpt lat="51.822158" lon="39.405577"><time>1970-01-01T00:00:01.000Z</time></trkpt>
			<trkpt lat="51.821880" lon="39.406328"><time>1970-01-01T00:00:01.000Z</time></trkpt>
			<trkpt lat="51.821734" lon="39.407508"><time>1970-01-01T00:00:01.000Z</time></trkpt>
			<trkpt lat="51.821853" lon="39.408753"><time>1970-01-01T00:00:01.000Z</time></trkpt>
			<trkpt lat="51.821562" lon="39.409654"><time>1970-01-01T00:00:01.000Z</time></trkpt>
			<trkpt lat="51.821084" lon="39.410019"><time>1970-01-01T00:00:01.000Z</time></trkpt>
			<trkpt lat="51.820368" lon="39.410062"><time>1970-01-01T00:00:01.000Z</time></trkpt>
			<trkpt lat="51.819890" lon="39.410298"><time>1970-01-01T00:00:01.000Z</time></trkpt>
			<trkpt lat="51.819174" lon="39.410963"><time>1970-01-01T00:00:01.000Z</time></trkpt>
			<trkpt lat="51.818338" lon="39.411435"><time>1970-01-01T00:00:01.000Z</time></trkpt>
			<trkpt lat="51.817728" lon="39.411199"><time>1970-01-01T00:00:01.000Z</time></trkpt>
			<trkpt lat="51.817118" lon="39.410748"><time>1970-01-01T00:00:01.000Z</time></trkpt>
			<trkpt lat="51.816309" lon="39.410641"><time>1970-01-01T00:00:01.000Z</time></trkpt>
			<trkpt lat="51.814823" lon="39.411156"><time>1970-01-01T00:00:01.000Z</time></trkpt>
			<trkpt lat="51.814120" lon="39.411736"><time>1970-01-01T00:00:01.000Z</time></trkpt>
			<trkpt lat="51.811401" lon="39.412959"><time>1970-01-01T00:00:01.000Z</time></trkpt>
			<trkpt lat="51.810804" lon="39.413495"><time>1970-01-01T00:00:01.000Z</time></trkpt>
			<trkpt lat="51.809769" lon="39.413903"><time>1970-01-01T00:00:01.000Z</time></trkpt>
			<trkpt lat="51.809530" lon="39.413044"><time>1970-01-01T00:00:01.000Z</time></trkpt>
			<trkpt lat="51.808867" lon="39.412637"><time>1970-01-01T00:00:01.000Z</time></trkpt>
			<trkpt lat="51.807341" lon="39.412422"><time>1970-01-01T00:00:01.000Z</time></trkpt>
			<trkpt lat="51.806731" lon="39.411993"><time>1970-01-01T00:00:01.000Z</time></trkpt>
			<trkpt lat="51.805377" lon="39.411349"><time>1970-01-01T00:00:01.000Z</time></trkpt>
			<trkpt lat="51.786984" lon="39.406543"><time>1970-01-01T00:00:01.000Z</time></trkpt>
			<trkpt lat="51.781462" lon="39.405084"><time>1970-01-01T00:00:01.000Z</time></trkpt>
			<trkpt lat="51.780639" lon="39.403195"><time>1970-01-01T00:00:01.000Z</time></trkpt>
			<trkpt lat="51.780506" lon="39.401779"><time>1970-01-01T00:00:01.000Z</time></trkpt>
			<trkpt lat="51.783321" lon="39.374099"><time>1970-01-01T00:00:01.000Z</time></trkpt>
			<trkpt lat="51.782630" lon="39.373412"><time>1970-01-01T00:00:01.000Z</time></trkpt>
			<trkpt lat="51.778966" lon="39.371567"><time>1970-01-01T00:00:01.000Z</time></trkpt>
			<trkpt lat="51.778064" lon="39.370751"><time>1970-01-01T00:00:01.000Z</time></trkpt>
			<trkpt lat="51.768637" lon="39.365730"><time>1970-01-01T00:00:01.000Z</time></trkpt>
			<trkpt lat="51.759208" lon="39.365559"><time>1970-01-01T00:00:01.000Z</time></trkpt>
			<trkpt lat="51.758862" lon="39.365945"><time>1970-01-01T00:00:01.000Z</time></trkpt>
			<trkpt lat="51.743081" lon="39.365945"><time>1970-01-01T00:00:01.000Z</time></trkpt>
			<trkpt lat="51.742045" lon="39.366760"><time>1970-01-01T00:00:01.000Z</time></trkpt>
			<trkpt lat="51.741540" lon="39.366846"><time>1970-01-01T00:00:01.000Z</time></trkpt>
			<trkpt lat="51.741380" lon="39.365473"><time>1970-01-01T00:00:01.000Z</time></trkpt>
			<trkpt lat="51.738244" lon="39.354358"><time>1970-01-01T00:00:01.000Z</time></trkpt>
			<trkpt lat="51.737553" lon="39.351783"><time>1970-01-01T00:00:01.000Z</time></trkpt>
			<trkpt lat="51.736995" lon="39.350367"><time>1970-01-01T00:00:01.000Z</time></trkpt>
			<trkpt lat="51.736490" lon="39.350495"><time>1970-01-01T00:00:01.000Z</time></trkpt>
			<trkpt lat="51.735507" lon="39.351225"><time>1970-01-01T00:00:01.000Z</time></trkpt>
			<trkpt lat="51.735002" lon="39.350324"><time>1970-01-01T00:00:01.000Z</time></trkpt>
			<trkpt lat="51.731892" lon="39.350109"><time>1970-01-01T00:00:01.000Z</time></trkpt>
			<trkpt lat="51.730510" lon="39.349551"><time>1970-01-01T00:00:01.000Z</time></trkpt>
			<trkpt lat="51.729846" lon="39.348178"><time>1970-01-01T00:00:01.000Z</time></trkpt>
			<trkpt lat="51.728969" lon="39.337535"><time>1970-01-01T00:00:01.000Z</time></trkpt>
			<trkpt lat="51.729713" lon="39.335775"><time>1970-01-01T00:00:01.000Z</time></trkpt>
			<trkpt lat="51.729872" lon="39.334316"><time>1970-01-01T00:00:01.000Z</time></trkpt>
			<trkpt lat="51.729766" lon="39.332814"><time>1970-01-01T00:00:01.000Z</time></trkpt>
			<trkpt lat="51.730085" lon="39.330454"><time>1970-01-01T00:00:01.000Z</time></trkpt>
			<trkpt lat="51.731281" lon="39.328437"><time>1970-01-01T00:00:01.000Z</time></trkpt>
			<trkpt lat="51.731999" lon="39.321184"><time>1970-01-01T00:00:01.000Z</time></trkpt>
			<trkpt lat="51.731467" lon="39.319639"><time>1970-01-01T00:00:01.000Z</time></trkpt>
			<trkpt lat="51.730537" lon="39.319296"><time>1970-01-01T00:00:01.000Z</time></trkpt>
			<trkpt lat="51.726151" lon="39.318352"><time>1970-01-01T00:00:01.000Z</time></trkpt>
			<trkpt lat="51.727826" lon="39.300542"><time>1970-01-01T00:00:01.000Z</time></trkpt>
			<trkpt lat="51.727905" lon="39.299126"><time>1970-01-01T00:00:01.000Z</time></trkpt>
			<trkpt lat="51.727799" lon="39.296894"><time>1970-01-01T00:00:01.000Z</time></trkpt>
			<trkpt lat="51.703763" lon="39.290757"><time>1970-01-01T00:00:01.000Z</time></trkpt>
			<trkpt lat="51.702672" lon="39.290328"><time>1970-01-01T00:00:01.000Z</time></trkpt>
			<trkpt lat="51.702167" lon="39.289169"><time>1970-01-01T00:00:01.000Z</time></trkpt>
			<trkpt lat="51.702167" lon="39.286208"><time>1970-01-01T00:00:01.000Z</time></trkpt>
			<trkpt lat="51.703045" lon="39.275222"><time>1970-01-01T00:00:01.000Z</time></trkpt>
			<trkpt lat="51.697645" lon="39.272432"><time>1970-01-01T00:00:01.000Z</time></trkpt>
			<trkpt lat="51.693309" lon="39.269171"><time>1970-01-01T00:00:01.000Z</time></trkpt>
			<trkpt lat="51.694666" lon="39.263592"><time>1970-01-01T00:00:01.000Z</time></trkpt>
			<trkpt lat="51.680086" lon="39.253807"><time>1970-01-01T00:00:01.000Z</time></trkpt>
			<trkpt lat="51.676015" lon="39.250760"><time>1970-01-01T00:00:01.000Z</time></trkpt>
			<trkpt lat="51.674152" lon="39.249301"><time>1970-01-01T00:00:01.000Z</time></trkpt>
			<trkpt lat="51.674791" lon="39.246812"><time>1970-01-01T00:00:01.000Z</time></trkpt>
			<trkpt lat="51.674844" lon="39.244452"><time>1970-01-01T00:00:01.000Z</time></trkpt>
			<trkpt lat="51.674258" lon="39.242606"><time>1970-01-01T00:00:01.000Z</time></trkpt>
			<trkpt lat="51.669388" lon="39.228702"><time>1970-01-01T00:00:01.000Z</time></trkpt>
			<trkpt lat="51.668350" lon="39.227586"><time>1970-01-01T00:00:01.000Z</time></trkpt>
			<trkpt lat="51.667871" lon="39.228873"><time>1970-01-01T00:00:01.000Z</time></trkpt>
			<trkpt lat="51.667285" lon="39.228702"><time>1970-01-01T00:00:01.000Z</time></trkpt>
			<trkpt lat="51.668031" lon="39.221878"><time>1970-01-01T00:00:01.000Z</time></trkpt>
			<trkpt lat="51.668643" lon="39.220440"><time>1970-01-01T00:00:01.000Z</time></trkpt>
			<trkpt lat="51.669162" lon="39.220226"><time>1970-01-01T00:00:01.000Z</time></trkpt>
			<trkpt lat="51.669228" lon="39.220676"><time>1970-01-01T00:00:01.000Z</time></trkpt>
			<trkpt lat="51.668776" lon="39.221556"><time>1970-01-01T00:00:01.000Z</time></trkpt>
			<trkpt lat="51.668550" lon="39.222221"><time>1970-01-01T00:00:01.000Z</time></trkpt>
			<trkpt lat="51.667418" lon="39.221942"><time>1970-01-01T00:00:01.000Z</time></trkpt>
			<trkpt lat="51.667352" lon="39.221492"><time>1970-01-01T00:00:01.000Z</time></trkpt>
			<trkpt lat="51.667711" lon="39.220612"><time>1970-01-01T00:00:01.000Z</time></trkpt>
			<trkpt lat="51.667472" lon="39.219990"><time>1970-01-01T00:00:01.000Z</time></trkpt>
			<trkpt lat="51.667378" lon="39.218445"><time>1970-01-01T00:00:01.000Z</time></trkpt>
			<trkpt lat="51.665968" lon="39.216535"><time>1970-01-01T00:00:01.000Z</time></trkpt>
			<trkpt lat="51.665382" lon="39.215527"><time>1970-01-01T00:00:01.000Z</time></trkpt>
			<trkpt lat="51.665435" lon="39.215183"><time>1970-01-01T00:00:01.000Z</time></trkpt>
			<trkpt lat="51.665249" lon="39.214776"><time>1970-01-01T00:00:01.000Z</time></trkpt>
			<trkpt lat="51.664930" lon="39.213531"><time>1970-01-01T00:00:01.000Z</time></trkpt>
		</trkseg>
	</trk>
</gpx>